<?xml version="1.0" encoding="UTF-8" standalone="no" ?>
<gpx xmlns="http://www.topografix.com/GPX/1/1" xmlns:xsi="http://www.w3.org/2001/XMLSchema-instance" xsi:schemaLocation="http://www.topografix.com/GPX/1/1 http://www.topografix.com/GPX/1/1/gpx.xsd" version="1.1" creator="VisuGPX - https://www.visugpx.com">
  <metadata>
    <name>Circuit a Eyne</name>
    <desc><![CDATA[deux circuits à Eyné]]></desc>
  </metadata>
  <trk>
    <name><![CDATA[2013-08-14-02]]></name>
    <trkseg>
      <trkpt lat="42.47371" lon="2.07878">
        <ele>1575.5</ele>
        <time>2013-08-14T07:19:17Z</time>
      </trkpt>
      <trkpt lat="42.47369" lon="2.07874">
        <ele>1575.8</ele>
        <time>2013-08-14T07:19:28Z</time>
      </trkpt>
      <trkpt lat="42.47368" lon="2.07869">
        <ele>1575.7</ele>
        <time>2013-08-14T07:19:32Z</time>
      </trkpt>
      <trkpt lat="42.47369" lon="2.07864">
        <ele>1576.3</ele>
        <time>2013-08-14T07:19:36Z</time>
      </trkpt>
      <trkpt lat="42.47371" lon="2.07859">
        <ele>1576.8</ele>
        <time>2013-08-14T07:19:40Z</time>
      </trkpt>
      <trkpt lat="42.47373" lon="2.07854">
        <ele>1577.9</ele>
        <time>2013-08-14T07:19:45Z</time>
      </trkpt>
      <trkpt lat="42.47374" lon="2.07849">
        <ele>1578.1</ele>
        <time>2013-08-14T07:19:49Z</time>
      </trkpt>
      <trkpt lat="42.47375" lon="2.07843">
        <ele>1579.6</ele>
        <time>2013-08-14T07:19:56Z</time>
      </trkpt>
      <trkpt lat="42.47375" lon="2.07838">
        <ele>1581</ele>
        <time>2013-08-14T07:20:01Z</time>
      </trkpt>
      <trkpt lat="42.47375" lon="2.07833">
        <ele>1581.3</ele>
        <time>2013-08-14T07:20:05Z</time>
      </trkpt>
      <trkpt lat="42.47376" lon="2.07828">
        <ele>1582</ele>
        <time>2013-08-14T07:20:09Z</time>
      </trkpt>
      <trkpt lat="42.47379" lon="2.07824">
        <ele>1583.3</ele>
        <time>2013-08-14T07:20:13Z</time>
      </trkpt>
      <trkpt lat="42.47381" lon="2.07819">
        <ele>1583</ele>
        <time>2013-08-14T07:20:17Z</time>
      </trkpt>
      <trkpt lat="42.47382" lon="2.07818">
        <ele>1583.2</ele>
        <time>2013-08-14T07:20:18Z</time>
      </trkpt>
      <trkpt lat="42.47387" lon="2.07811">
        <ele>1583</ele>
        <time>2013-08-14T07:20:25Z</time>
      </trkpt>
      <trkpt lat="42.4739" lon="2.07806">
        <ele>1583.6</ele>
        <time>2013-08-14T07:20:29Z</time>
      </trkpt>
      <trkpt lat="42.4739" lon="2.078">
        <ele>1584.6</ele>
        <time>2013-08-14T07:20:35Z</time>
      </trkpt>
      <trkpt lat="42.47387" lon="2.07798">
        <ele>1586.3</ele>
        <time>2013-08-14T07:20:42Z</time>
      </trkpt>
      <trkpt lat="42.47383" lon="2.07799">
        <ele>1587.7</ele>
        <time>2013-08-14T07:20:56Z</time>
      </trkpt>
      <trkpt lat="42.47379" lon="2.078">
        <ele>1587.9</ele>
        <time>2013-08-14T07:20:59Z</time>
      </trkpt>
      <trkpt lat="42.47375" lon="2.078">
        <ele>1588.4</ele>
        <time>2013-08-14T07:21:03Z</time>
      </trkpt>
      <trkpt lat="42.47371" lon="2.07801">
        <ele>1588.9</ele>
        <time>2013-08-14T07:21:07Z</time>
      </trkpt>
      <trkpt lat="42.47367" lon="2.07802">
        <ele>1589.6</ele>
        <time>2013-08-14T07:21:12Z</time>
      </trkpt>
      <trkpt lat="42.47363" lon="2.07802">
        <ele>1590.8</ele>
        <time>2013-08-14T07:21:16Z</time>
      </trkpt>
      <trkpt lat="42.47359" lon="2.07803">
        <ele>1591.7</ele>
        <time>2013-08-14T07:21:21Z</time>
      </trkpt>
      <trkpt lat="42.47358" lon="2.07802">
        <ele>1592</ele>
        <time>2013-08-14T07:21:22Z</time>
      </trkpt>
      <trkpt lat="42.47357" lon="2.07793">
        <ele>1594.8</ele>
        <time>2013-08-14T07:21:33Z</time>
      </trkpt>
      <trkpt lat="42.47354" lon="2.0779">
        <ele>1595.4</ele>
        <time>2013-08-14T07:21:40Z</time>
      </trkpt>
      <trkpt lat="42.47349" lon="2.07789">
        <ele>1596.6</ele>
        <time>2013-08-14T07:21:48Z</time>
      </trkpt>
      <trkpt lat="42.47349" lon="2.07784">
        <ele>1598</ele>
        <time>2013-08-14T07:21:54Z</time>
      </trkpt>
      <trkpt lat="42.47349" lon="2.07778">
        <ele>1599.3</ele>
        <time>2013-08-14T07:22:00Z</time>
      </trkpt>
      <trkpt lat="42.47348" lon="2.07773">
        <ele>1600.6</ele>
        <time>2013-08-14T07:22:05Z</time>
      </trkpt>
      <trkpt lat="42.47348" lon="2.07767">
        <ele>1601.9</ele>
        <time>2013-08-14T07:22:10Z</time>
      </trkpt>
      <trkpt lat="42.47346" lon="2.07761">
        <ele>1602.7</ele>
        <time>2013-08-14T07:22:15Z</time>
      </trkpt>
      <trkpt lat="42.47345" lon="2.07757">
        <ele>1602.6</ele>
        <time>2013-08-14T07:22:20Z</time>
      </trkpt>
      <trkpt lat="42.47344" lon="2.07752">
        <ele>1603.5</ele>
        <time>2013-08-14T07:22:25Z</time>
      </trkpt>
      <trkpt lat="42.47344" lon="2.07751">
        <ele>1603.5</ele>
        <time>2013-08-14T07:22:26Z</time>
      </trkpt>
      <trkpt lat="42.47341" lon="2.07742">
        <ele>1606.1</ele>
        <time>2013-08-14T07:23:03Z</time>
      </trkpt>
      <trkpt lat="42.47339" lon="2.07737">
        <ele>1606.5</ele>
        <time>2013-08-14T07:23:09Z</time>
      </trkpt>
      <trkpt lat="42.47336" lon="2.07733">
        <ele>1608.3</ele>
        <time>2013-08-14T07:23:16Z</time>
      </trkpt>
      <trkpt lat="42.47334" lon="2.07727">
        <ele>1608.6</ele>
        <time>2013-08-14T07:23:22Z</time>
      </trkpt>
      <trkpt lat="42.47332" lon="2.07722">
        <ele>1609.9</ele>
        <time>2013-08-14T07:23:27Z</time>
      </trkpt>
      <trkpt lat="42.47332" lon="2.07721">
        <ele>1610.1</ele>
        <time>2013-08-14T07:23:28Z</time>
      </trkpt>
      <trkpt lat="42.47331" lon="2.07711">
        <ele>1611.4</ele>
        <time>2013-08-14T07:23:37Z</time>
      </trkpt>
      <trkpt lat="42.4733" lon="2.07706">
        <ele>1611.9</ele>
        <time>2013-08-14T07:23:42Z</time>
      </trkpt>
      <trkpt lat="42.47328" lon="2.07701">
        <ele>1612.6</ele>
        <time>2013-08-14T07:23:47Z</time>
      </trkpt>
      <trkpt lat="42.47329" lon="2.07695">
        <ele>1614.1</ele>
        <time>2013-08-14T07:23:52Z</time>
      </trkpt>
      <trkpt lat="42.47329" lon="2.0769">
        <ele>1614.9</ele>
        <time>2013-08-14T07:23:57Z</time>
      </trkpt>
      <trkpt lat="42.4733" lon="2.07685">
        <ele>1615.6</ele>
        <time>2013-08-14T07:24:01Z</time>
      </trkpt>
      <trkpt lat="42.4733" lon="2.0768">
        <ele>1615.8</ele>
        <time>2013-08-14T07:24:06Z</time>
      </trkpt>
      <trkpt lat="42.47328" lon="2.07675">
        <ele>1616</ele>
        <time>2013-08-14T07:24:10Z</time>
      </trkpt>
      <trkpt lat="42.47327" lon="2.07671">
        <ele>1616.9</ele>
        <time>2013-08-14T07:24:14Z</time>
      </trkpt>
      <trkpt lat="42.47326" lon="2.07665">
        <ele>1617.3</ele>
        <time>2013-08-14T07:24:19Z</time>
      </trkpt>
      <trkpt lat="42.47324" lon="2.0766">
        <ele>1618.6</ele>
        <time>2013-08-14T07:24:24Z</time>
      </trkpt>
      <trkpt lat="42.47321" lon="2.07657">
        <ele>1619.3</ele>
        <time>2013-08-14T07:24:27Z</time>
      </trkpt>
      <trkpt lat="42.47318" lon="2.07654">
        <ele>1620.1</ele>
        <time>2013-08-14T07:24:32Z</time>
      </trkpt>
      <trkpt lat="42.47317" lon="2.07653">
        <ele>1620.4</ele>
        <time>2013-08-14T07:24:33Z</time>
      </trkpt>
      <trkpt lat="42.47313" lon="2.07644">
        <ele>1621.3</ele>
        <time>2013-08-14T07:24:43Z</time>
      </trkpt>
      <trkpt lat="42.47314" lon="2.07639">
        <ele>1622.2</ele>
        <time>2013-08-14T07:24:48Z</time>
      </trkpt>
      <trkpt lat="42.47315" lon="2.07635">
        <ele>1623.4</ele>
        <time>2013-08-14T07:24:54Z</time>
      </trkpt>
      <trkpt lat="42.47316" lon="2.07629">
        <ele>1623.7</ele>
        <time>2013-08-14T07:24:59Z</time>
      </trkpt>
      <trkpt lat="42.47319" lon="2.07625">
        <ele>1623.8</ele>
        <time>2013-08-14T07:25:04Z</time>
      </trkpt>
      <trkpt lat="42.47322" lon="2.07621">
        <ele>1625.5</ele>
        <time>2013-08-14T07:25:09Z</time>
      </trkpt>
      <trkpt lat="42.47323" lon="2.07615">
        <ele>1626.6</ele>
        <time>2013-08-14T07:25:18Z</time>
      </trkpt>
      <trkpt lat="42.47326" lon="2.07612">
        <ele>1628.1</ele>
        <time>2013-08-14T07:25:32Z</time>
      </trkpt>
      <trkpt lat="42.47326" lon="2.07606">
        <ele>1628.1</ele>
        <time>2013-08-14T07:25:35Z</time>
      </trkpt>
      <trkpt lat="42.47326" lon="2.07605">
        <ele>1628.1</ele>
        <time>2013-08-14T07:25:36Z</time>
      </trkpt>
      <trkpt lat="42.47326" lon="2.07594">
        <ele>1628.1</ele>
        <time>2013-08-14T07:25:46Z</time>
      </trkpt>
      <trkpt lat="42.47325" lon="2.0759">
        <ele>1627.4</ele>
        <time>2013-08-14T07:25:56Z</time>
      </trkpt>
      <trkpt lat="42.47324" lon="2.07585">
        <ele>1627.8</ele>
        <time>2013-08-14T07:25:59Z</time>
      </trkpt>
      <trkpt lat="42.47325" lon="2.07581">
        <ele>1627.7</ele>
        <time>2013-08-14T07:26:03Z</time>
      </trkpt>
      <trkpt lat="42.47326" lon="2.07575">
        <ele>1628.2</ele>
        <time>2013-08-14T07:26:07Z</time>
      </trkpt>
      <trkpt lat="42.47326" lon="2.0757">
        <ele>1627.7</ele>
        <time>2013-08-14T07:26:10Z</time>
      </trkpt>
      <trkpt lat="42.47326" lon="2.07565">
        <ele>1627.9</ele>
        <time>2013-08-14T07:26:13Z</time>
      </trkpt>
      <trkpt lat="42.47326" lon="2.0756">
        <ele>1627.9</ele>
        <time>2013-08-14T07:26:16Z</time>
      </trkpt>
      <trkpt lat="42.47324" lon="2.07555">
        <ele>1628.2</ele>
        <time>2013-08-14T07:26:19Z</time>
      </trkpt>
      <trkpt lat="42.47324" lon="2.07549">
        <ele>1628.2</ele>
        <time>2013-08-14T07:26:23Z</time>
      </trkpt>
      <trkpt lat="42.47323" lon="2.07544">
        <ele>1627.9</ele>
        <time>2013-08-14T07:26:26Z</time>
      </trkpt>
      <trkpt lat="42.47322" lon="2.07539">
        <ele>1628.2</ele>
        <time>2013-08-14T07:26:29Z</time>
      </trkpt>
      <trkpt lat="42.47321" lon="2.07534">
        <ele>1628.3</ele>
        <time>2013-08-14T07:26:32Z</time>
      </trkpt>
      <trkpt lat="42.4732" lon="2.07529">
        <ele>1627.7</ele>
        <time>2013-08-14T07:26:35Z</time>
      </trkpt>
      <trkpt lat="42.47319" lon="2.07524">
        <ele>1627.6</ele>
        <time>2013-08-14T07:26:38Z</time>
      </trkpt>
      <trkpt lat="42.47319" lon="2.07522">
        <ele>1627.7</ele>
        <time>2013-08-14T07:26:39Z</time>
      </trkpt>
      <trkpt lat="42.47317" lon="2.07515">
        <ele>1627.3</ele>
        <time>2013-08-14T07:26:44Z</time>
      </trkpt>
      <trkpt lat="42.47315" lon="2.07511">
        <ele>1627.1</ele>
        <time>2013-08-14T07:26:47Z</time>
      </trkpt>
      <trkpt lat="42.47315" lon="2.07506">
        <ele>1627.2</ele>
        <time>2013-08-14T07:26:51Z</time>
      </trkpt>
      <trkpt lat="42.47314" lon="2.075">
        <ele>1627.1</ele>
        <time>2013-08-14T07:26:56Z</time>
      </trkpt>
      <trkpt lat="42.47313" lon="2.07495">
        <ele>1627.9</ele>
        <time>2013-08-14T07:27:00Z</time>
      </trkpt>
      <trkpt lat="42.47312" lon="2.0749">
        <ele>1628.2</ele>
        <time>2013-08-14T07:27:03Z</time>
      </trkpt>
      <trkpt lat="42.47311" lon="2.07484">
        <ele>1627.5</ele>
        <time>2013-08-14T07:27:07Z</time>
      </trkpt>
      <trkpt lat="42.4731" lon="2.07479">
        <ele>1627.1</ele>
        <time>2013-08-14T07:27:10Z</time>
      </trkpt>
      <trkpt lat="42.47309" lon="2.07473">
        <ele>1627.1</ele>
        <time>2013-08-14T07:27:14Z</time>
      </trkpt>
      <trkpt lat="42.47309" lon="2.07469">
        <ele>1627.1</ele>
        <time>2013-08-14T07:27:17Z</time>
      </trkpt>
      <trkpt lat="42.47308" lon="2.07465">
        <ele>1627.1</ele>
        <time>2013-08-14T07:27:19Z</time>
      </trkpt>
      <trkpt lat="42.47306" lon="2.0746">
        <ele>1627</ele>
        <time>2013-08-14T07:27:22Z</time>
      </trkpt>
      <trkpt lat="42.47305" lon="2.07455">
        <ele>1627.2</ele>
        <time>2013-08-14T07:27:25Z</time>
      </trkpt>
      <trkpt lat="42.47303" lon="2.07451">
        <ele>1627.4</ele>
        <time>2013-08-14T07:27:27Z</time>
      </trkpt>
      <trkpt lat="42.47302" lon="2.07445">
        <ele>1627.6</ele>
        <time>2013-08-14T07:27:30Z</time>
      </trkpt>
      <trkpt lat="42.47301" lon="2.07442">
        <ele>1627.6</ele>
        <time>2013-08-14T07:27:32Z</time>
      </trkpt>
      <trkpt lat="42.473" lon="2.07438">
        <ele>1627.6</ele>
        <time>2013-08-14T07:27:34Z</time>
      </trkpt>
      <trkpt lat="42.47298" lon="2.07432">
        <ele>1627.3</ele>
        <time>2013-08-14T07:27:37Z</time>
      </trkpt>
      <trkpt lat="42.47298" lon="2.07427">
        <ele>1627.7</ele>
        <time>2013-08-14T07:27:41Z</time>
      </trkpt>
      <trkpt lat="42.47298" lon="2.07425">
        <ele>1627.6</ele>
        <time>2013-08-14T07:27:42Z</time>
      </trkpt>
      <trkpt lat="42.47292" lon="2.07423">
        <ele>1627</ele>
        <time>2013-08-14T07:28:12Z</time>
      </trkpt>
      <trkpt lat="42.4729" lon="2.07418">
        <ele>1627.3</ele>
        <time>2013-08-14T07:28:16Z</time>
      </trkpt>
      <trkpt lat="42.47288" lon="2.07413">
        <ele>1628</ele>
        <time>2013-08-14T07:28:20Z</time>
      </trkpt>
      <trkpt lat="42.47287" lon="2.07409">
        <ele>1627.6</ele>
        <time>2013-08-14T07:28:23Z</time>
      </trkpt>
      <trkpt lat="42.47286" lon="2.07404">
        <ele>1627.3</ele>
        <time>2013-08-14T07:28:26Z</time>
      </trkpt>
      <trkpt lat="42.47285" lon="2.074">
        <ele>1627.7</ele>
        <time>2013-08-14T07:28:29Z</time>
      </trkpt>
      <trkpt lat="42.47284" lon="2.07395">
        <ele>1627.6</ele>
        <time>2013-08-14T07:28:32Z</time>
      </trkpt>
      <trkpt lat="42.47282" lon="2.0739">
        <ele>1627.6</ele>
        <time>2013-08-14T07:28:36Z</time>
      </trkpt>
      <trkpt lat="42.47282" lon="2.07385">
        <ele>1627.6</ele>
        <time>2013-08-14T07:28:39Z</time>
      </trkpt>
      <trkpt lat="42.4728" lon="2.0738">
        <ele>1627.7</ele>
        <time>2013-08-14T07:28:43Z</time>
      </trkpt>
      <trkpt lat="42.4728" lon="2.07379">
        <ele>1627.9</ele>
        <time>2013-08-14T07:28:44Z</time>
      </trkpt>
      <trkpt lat="42.47276" lon="2.0737">
        <ele>1627.4</ele>
        <time>2013-08-14T07:28:51Z</time>
      </trkpt>
      <trkpt lat="42.47274" lon="2.07365">
        <ele>1627.2</ele>
        <time>2013-08-14T07:28:55Z</time>
      </trkpt>
      <trkpt lat="42.47274" lon="2.07359">
        <ele>1626.1</ele>
        <time>2013-08-14T07:29:08Z</time>
      </trkpt>
      <trkpt lat="42.47278" lon="2.07356">
        <ele>1626.2</ele>
        <time>2013-08-14T07:29:25Z</time>
      </trkpt>
      <trkpt lat="42.47281" lon="2.07355">
        <ele>1626.2</ele>
        <time>2013-08-14T07:29:28Z</time>
      </trkpt>
      <trkpt lat="42.47284" lon="2.07353">
        <ele>1626.1</ele>
        <time>2013-08-14T07:29:31Z</time>
      </trkpt>
      <trkpt lat="42.47287" lon="2.0735">
        <ele>1625.7</ele>
        <time>2013-08-14T07:29:34Z</time>
      </trkpt>
      <trkpt lat="42.47289" lon="2.07347">
        <ele>1625.5</ele>
        <time>2013-08-14T07:29:37Z</time>
      </trkpt>
      <trkpt lat="42.47292" lon="2.07345">
        <ele>1625.7</ele>
        <time>2013-08-14T07:29:40Z</time>
      </trkpt>
      <trkpt lat="42.47295" lon="2.07342">
        <ele>1626.2</ele>
        <time>2013-08-14T07:29:43Z</time>
      </trkpt>
      <trkpt lat="42.47299" lon="2.0734">
        <ele>1626.4</ele>
        <time>2013-08-14T07:29:46Z</time>
      </trkpt>
      <trkpt lat="42.473" lon="2.07339">
        <ele>1626.3</ele>
        <time>2013-08-14T07:29:47Z</time>
      </trkpt>
      <trkpt lat="42.47305" lon="2.07334">
        <ele>1626.2</ele>
        <time>2013-08-14T07:29:53Z</time>
      </trkpt>
      <trkpt lat="42.47306" lon="2.07328">
        <ele>1625.6</ele>
        <time>2013-08-14T07:29:57Z</time>
      </trkpt>
      <trkpt lat="42.47307" lon="2.07323">
        <ele>1625.4</ele>
        <time>2013-08-14T07:30:00Z</time>
      </trkpt>
      <trkpt lat="42.47306" lon="2.07319">
        <ele>1625.1</ele>
        <time>2013-08-14T07:30:03Z</time>
      </trkpt>
      <trkpt lat="42.47305" lon="2.07314">
        <ele>1624.8</ele>
        <time>2013-08-14T07:30:06Z</time>
      </trkpt>
      <trkpt lat="42.47304" lon="2.0731">
        <ele>1625.1</ele>
        <time>2013-08-14T07:30:09Z</time>
      </trkpt>
      <trkpt lat="42.47303" lon="2.07305">
        <ele>1625.8</ele>
        <time>2013-08-14T07:30:12Z</time>
      </trkpt>
      <trkpt lat="42.47302" lon="2.073">
        <ele>1625.7</ele>
        <time>2013-08-14T07:30:16Z</time>
      </trkpt>
      <trkpt lat="42.47301" lon="2.07294">
        <ele>1625.4</ele>
        <time>2013-08-14T07:30:20Z</time>
      </trkpt>
      <trkpt lat="42.47301" lon="2.07289">
        <ele>1625.4</ele>
        <time>2013-08-14T07:30:24Z</time>
      </trkpt>
      <trkpt lat="42.47299" lon="2.07283">
        <ele>1626</ele>
        <time>2013-08-14T07:30:29Z</time>
      </trkpt>
      <trkpt lat="42.47299" lon="2.07278">
        <ele>1625.3</ele>
        <time>2013-08-14T07:30:33Z</time>
      </trkpt>
      <trkpt lat="42.47298" lon="2.07273">
        <ele>1625.1</ele>
        <time>2013-08-14T07:30:40Z</time>
      </trkpt>
      <trkpt lat="42.47297" lon="2.07267">
        <ele>1625.4</ele>
        <time>2013-08-14T07:30:44Z</time>
      </trkpt>
      <trkpt lat="42.47296" lon="2.07262">
        <ele>1625.2</ele>
        <time>2013-08-14T07:30:48Z</time>
      </trkpt>
      <trkpt lat="42.47296" lon="2.07261">
        <ele>1625.2</ele>
        <time>2013-08-14T07:30:49Z</time>
      </trkpt>
      <trkpt lat="42.47294" lon="2.07251">
        <ele>1626.4</ele>
        <time>2013-08-14T07:31:06Z</time>
      </trkpt>
      <trkpt lat="42.47292" lon="2.07245">
        <ele>1626.3</ele>
        <time>2013-08-14T07:31:11Z</time>
      </trkpt>
      <trkpt lat="42.47289" lon="2.07241">
        <ele>1626</ele>
        <time>2013-08-14T07:31:28Z</time>
      </trkpt>
      <trkpt lat="42.47287" lon="2.07237">
        <ele>1625.1</ele>
        <time>2013-08-14T07:31:40Z</time>
      </trkpt>
      <trkpt lat="42.47284" lon="2.07233">
        <ele>1625</ele>
        <time>2013-08-14T07:31:44Z</time>
      </trkpt>
      <trkpt lat="42.47281" lon="2.07229">
        <ele>1624</ele>
        <time>2013-08-14T07:31:48Z</time>
      </trkpt>
      <trkpt lat="42.47278" lon="2.07226">
        <ele>1622.7</ele>
        <time>2013-08-14T07:31:57Z</time>
      </trkpt>
      <trkpt lat="42.47277" lon="2.07225">
        <ele>1622.7</ele>
        <time>2013-08-14T07:31:58Z</time>
      </trkpt>
      <trkpt lat="42.47271" lon="2.07219">
        <ele>1622.6</ele>
        <time>2013-08-14T07:32:04Z</time>
      </trkpt>
      <trkpt lat="42.47269" lon="2.07215">
        <ele>1622</ele>
        <time>2013-08-14T07:32:07Z</time>
      </trkpt>
      <trkpt lat="42.47266" lon="2.07211">
        <ele>1621.4</ele>
        <time>2013-08-14T07:32:10Z</time>
      </trkpt>
      <trkpt lat="42.47267" lon="2.07206">
        <ele>1620.8</ele>
        <time>2013-08-14T07:32:16Z</time>
      </trkpt>
      <trkpt lat="42.4727" lon="2.07204">
        <ele>1620.1</ele>
        <time>2013-08-14T07:32:19Z</time>
      </trkpt>
      <trkpt lat="42.47274" lon="2.07202">
        <ele>1620.2</ele>
        <time>2013-08-14T07:32:23Z</time>
      </trkpt>
      <trkpt lat="42.47278" lon="2.072">
        <ele>1620.4</ele>
        <time>2013-08-14T07:32:27Z</time>
      </trkpt>
      <trkpt lat="42.47282" lon="2.07199">
        <ele>1620.3</ele>
        <time>2013-08-14T07:32:30Z</time>
      </trkpt>
      <trkpt lat="42.47285" lon="2.07197">
        <ele>1620</ele>
        <time>2013-08-14T07:32:33Z</time>
      </trkpt>
      <trkpt lat="42.47289" lon="2.07195">
        <ele>1620</ele>
        <time>2013-08-14T07:32:36Z</time>
      </trkpt>
      <trkpt lat="42.47293" lon="2.07193">
        <ele>1619.4</ele>
        <time>2013-08-14T07:32:39Z</time>
      </trkpt>
      <trkpt lat="42.47296" lon="2.0719">
        <ele>1619.3</ele>
        <time>2013-08-14T07:32:42Z</time>
      </trkpt>
      <trkpt lat="42.473" lon="2.07188">
        <ele>1619.4</ele>
        <time>2013-08-14T07:32:45Z</time>
      </trkpt>
      <trkpt lat="42.47304" lon="2.07186">
        <ele>1619.1</ele>
        <time>2013-08-14T07:32:49Z</time>
      </trkpt>
      <trkpt lat="42.47307" lon="2.07184">
        <ele>1619.3</ele>
        <time>2013-08-14T07:32:52Z</time>
      </trkpt>
      <trkpt lat="42.47311" lon="2.07181">
        <ele>1619.2</ele>
        <time>2013-08-14T07:32:55Z</time>
      </trkpt>
      <trkpt lat="42.47314" lon="2.07178">
        <ele>1619.4</ele>
        <time>2013-08-14T07:32:57Z</time>
      </trkpt>
      <trkpt lat="42.47317" lon="2.07174">
        <ele>1619.4</ele>
        <time>2013-08-14T07:33:00Z</time>
      </trkpt>
      <trkpt lat="42.47318" lon="2.07172">
        <ele>1619.1</ele>
        <time>2013-08-14T07:33:01Z</time>
      </trkpt>
      <trkpt lat="42.47318" lon="2.07164">
        <ele>1618.5</ele>
        <time>2013-08-14T07:33:06Z</time>
      </trkpt>
      <trkpt lat="42.47319" lon="2.07159">
        <ele>1617.2</ele>
        <time>2013-08-14T07:33:09Z</time>
      </trkpt>
      <trkpt lat="42.47319" lon="2.07154">
        <ele>1617</ele>
        <time>2013-08-14T07:33:12Z</time>
      </trkpt>
      <trkpt lat="42.47318" lon="2.07149">
        <ele>1617.3</ele>
        <time>2013-08-14T07:33:15Z</time>
      </trkpt>
      <trkpt lat="42.47318" lon="2.07144">
        <ele>1616.3</ele>
        <time>2013-08-14T07:33:18Z</time>
      </trkpt>
      <trkpt lat="42.47317" lon="2.07139">
        <ele>1615.4</ele>
        <time>2013-08-14T07:33:21Z</time>
      </trkpt>
      <trkpt lat="42.47315" lon="2.07134">
        <ele>1614.8</ele>
        <time>2013-08-14T07:33:24Z</time>
      </trkpt>
      <trkpt lat="42.47314" lon="2.07129">
        <ele>1614.5</ele>
        <time>2013-08-14T07:33:26Z</time>
      </trkpt>
      <trkpt lat="42.47313" lon="2.07125">
        <ele>1614.3</ele>
        <time>2013-08-14T07:33:28Z</time>
      </trkpt>
      <trkpt lat="42.47312" lon="2.07121">
        <ele>1614.6</ele>
        <time>2013-08-14T07:33:30Z</time>
      </trkpt>
      <trkpt lat="42.4731" lon="2.07117">
        <ele>1614.2</ele>
        <time>2013-08-14T07:33:32Z</time>
      </trkpt>
      <trkpt lat="42.47307" lon="2.07114">
        <ele>1613.5</ele>
        <time>2013-08-14T07:33:34Z</time>
      </trkpt>
      <trkpt lat="42.47305" lon="2.0711">
        <ele>1613.7</ele>
        <time>2013-08-14T07:33:37Z</time>
      </trkpt>
      <trkpt lat="42.47303" lon="2.07106">
        <ele>1613.2</ele>
        <time>2013-08-14T07:33:40Z</time>
      </trkpt>
      <trkpt lat="42.47301" lon="2.07101">
        <ele>1612.6</ele>
        <time>2013-08-14T07:33:44Z</time>
      </trkpt>
      <trkpt lat="42.47299" lon="2.07095">
        <ele>1611.3</ele>
        <time>2013-08-14T07:33:48Z</time>
      </trkpt>
      <trkpt lat="42.47298" lon="2.0709">
        <ele>1610.4</ele>
        <time>2013-08-14T07:33:53Z</time>
      </trkpt>
      <trkpt lat="42.47298" lon="2.07084">
        <ele>1610.3</ele>
        <time>2013-08-14T07:33:57Z</time>
      </trkpt>
      <trkpt lat="42.47298" lon="2.07079">
        <ele>1609.8</ele>
        <time>2013-08-14T07:34:01Z</time>
      </trkpt>
      <trkpt lat="42.47299" lon="2.07078">
        <ele>1609.7</ele>
        <time>2013-08-14T07:34:02Z</time>
      </trkpt>
      <trkpt lat="42.47301" lon="2.07069">
        <ele>1608.8</ele>
        <time>2013-08-14T07:34:09Z</time>
      </trkpt>
      <trkpt lat="42.47304" lon="2.07064">
        <ele>1607.8</ele>
        <time>2013-08-14T07:34:13Z</time>
      </trkpt>
      <trkpt lat="42.47307" lon="2.0706">
        <ele>1607.8</ele>
        <time>2013-08-14T07:34:17Z</time>
      </trkpt>
      <trkpt lat="42.47309" lon="2.07056">
        <ele>1607.6</ele>
        <time>2013-08-14T07:34:21Z</time>
      </trkpt>
      <trkpt lat="42.47311" lon="2.07051">
        <ele>1607</ele>
        <time>2013-08-14T07:34:24Z</time>
      </trkpt>
      <trkpt lat="42.47313" lon="2.07047">
        <ele>1606.9</ele>
        <time>2013-08-14T07:34:27Z</time>
      </trkpt>
      <trkpt lat="42.47316" lon="2.07043">
        <ele>1606.7</ele>
        <time>2013-08-14T07:34:30Z</time>
      </trkpt>
      <trkpt lat="42.47317" lon="2.0704">
        <ele>1606.1</ele>
        <time>2013-08-14T07:34:32Z</time>
      </trkpt>
      <trkpt lat="42.47319" lon="2.07036">
        <ele>1605.5</ele>
        <time>2013-08-14T07:34:34Z</time>
      </trkpt>
      <trkpt lat="42.47321" lon="2.07033">
        <ele>1605.2</ele>
        <time>2013-08-14T07:34:36Z</time>
      </trkpt>
      <trkpt lat="42.47323" lon="2.07028">
        <ele>1604.7</ele>
        <time>2013-08-14T07:34:39Z</time>
      </trkpt>
      <trkpt lat="42.47324" lon="2.07022">
        <ele>1604.2</ele>
        <time>2013-08-14T07:34:42Z</time>
      </trkpt>
      <trkpt lat="42.47325" lon="2.07017">
        <ele>1604.2</ele>
        <time>2013-08-14T07:34:45Z</time>
      </trkpt>
      <trkpt lat="42.47326" lon="2.07011">
        <ele>1604.2</ele>
        <time>2013-08-14T07:34:48Z</time>
      </trkpt>
      <trkpt lat="42.47328" lon="2.07006">
        <ele>1603.7</ele>
        <time>2013-08-14T07:34:51Z</time>
      </trkpt>
      <trkpt lat="42.47327" lon="2.07">
        <ele>1604</ele>
        <time>2013-08-14T07:34:54Z</time>
      </trkpt>
      <trkpt lat="42.47328" lon="2.06996">
        <ele>1604</ele>
        <time>2013-08-14T07:34:57Z</time>
      </trkpt>
      <trkpt lat="42.47328" lon="2.06991">
        <ele>1603.5</ele>
        <time>2013-08-14T07:35:00Z</time>
      </trkpt>
      <trkpt lat="42.4733" lon="2.06986">
        <ele>1602.8</ele>
        <time>2013-08-14T07:35:03Z</time>
      </trkpt>
      <trkpt lat="42.47329" lon="2.06985">
        <ele>1602.6</ele>
        <time>2013-08-14T07:35:04Z</time>
      </trkpt>
      <trkpt lat="42.4733" lon="2.06977">
        <ele>1602</ele>
        <time>2013-08-14T07:35:09Z</time>
      </trkpt>
      <trkpt lat="42.47332" lon="2.06971">
        <ele>1601.5</ele>
        <time>2013-08-14T07:35:12Z</time>
      </trkpt>
      <trkpt lat="42.47333" lon="2.06966">
        <ele>1601</ele>
        <time>2013-08-14T07:35:15Z</time>
      </trkpt>
      <trkpt lat="42.47334" lon="2.06962">
        <ele>1600.3</ele>
        <time>2013-08-14T07:35:18Z</time>
      </trkpt>
      <trkpt lat="42.47336" lon="2.06957">
        <ele>1600.1</ele>
        <time>2013-08-14T07:35:21Z</time>
      </trkpt>
      <trkpt lat="42.47337" lon="2.06952">
        <ele>1600.4</ele>
        <time>2013-08-14T07:35:24Z</time>
      </trkpt>
      <trkpt lat="42.47337" lon="2.06946">
        <ele>1600.2</ele>
        <time>2013-08-14T07:35:27Z</time>
      </trkpt>
      <trkpt lat="42.47337" lon="2.0694">
        <ele>1600.3</ele>
        <time>2013-08-14T07:35:30Z</time>
      </trkpt>
      <trkpt lat="42.47338" lon="2.06936">
        <ele>1600.5</ele>
        <time>2013-08-14T07:35:32Z</time>
      </trkpt>
      <trkpt lat="42.47338" lon="2.06931">
        <ele>1600</ele>
        <time>2013-08-14T07:35:35Z</time>
      </trkpt>
      <trkpt lat="42.47338" lon="2.06925">
        <ele>1599.8</ele>
        <time>2013-08-14T07:35:38Z</time>
      </trkpt>
      <trkpt lat="42.47338" lon="2.0692">
        <ele>1599.4</ele>
        <time>2013-08-14T07:35:41Z</time>
      </trkpt>
      <trkpt lat="42.4734" lon="2.06915">
        <ele>1598.2</ele>
        <time>2013-08-14T07:35:44Z</time>
      </trkpt>
      <trkpt lat="42.47342" lon="2.06911">
        <ele>1597.6</ele>
        <time>2013-08-14T07:35:47Z</time>
      </trkpt>
      <trkpt lat="42.47344" lon="2.06907">
        <ele>1597.6</ele>
        <time>2013-08-14T07:35:50Z</time>
      </trkpt>
      <trkpt lat="42.47347" lon="2.06902">
        <ele>1597.2</ele>
        <time>2013-08-14T07:35:54Z</time>
      </trkpt>
      <trkpt lat="42.47349" lon="2.06898">
        <ele>1597.1</ele>
        <time>2013-08-14T07:35:59Z</time>
      </trkpt>
      <trkpt lat="42.47351" lon="2.06893">
        <ele>1597.4</ele>
        <time>2013-08-14T07:36:03Z</time>
      </trkpt>
      <trkpt lat="42.47354" lon="2.06889">
        <ele>1597.3</ele>
        <time>2013-08-14T07:36:06Z</time>
      </trkpt>
      <trkpt lat="42.47355" lon="2.06887">
        <ele>1597.2</ele>
        <time>2013-08-14T07:36:07Z</time>
      </trkpt>
      <trkpt lat="42.47358" lon="2.0688">
        <ele>1596.9</ele>
        <time>2013-08-14T07:36:11Z</time>
      </trkpt>
      <trkpt lat="42.47361" lon="2.06876">
        <ele>1596.7</ele>
        <time>2013-08-14T07:36:14Z</time>
      </trkpt>
      <trkpt lat="42.47363" lon="2.06871">
        <ele>1597.5</ele>
        <time>2013-08-14T07:36:18Z</time>
      </trkpt>
      <trkpt lat="42.47366" lon="2.06868">
        <ele>1597.5</ele>
        <time>2013-08-14T07:36:21Z</time>
      </trkpt>
      <trkpt lat="42.47368" lon="2.06863">
        <ele>1596.5</ele>
        <time>2013-08-14T07:36:25Z</time>
      </trkpt>
      <trkpt lat="42.47371" lon="2.06861">
        <ele>1596.7</ele>
        <time>2013-08-14T07:36:28Z</time>
      </trkpt>
      <trkpt lat="42.47373" lon="2.06857">
        <ele>1596.7</ele>
        <time>2013-08-14T07:36:31Z</time>
      </trkpt>
      <trkpt lat="42.47375" lon="2.06852">
        <ele>1596.6</ele>
        <time>2013-08-14T07:36:35Z</time>
      </trkpt>
      <trkpt lat="42.47378" lon="2.06847">
        <ele>1596.6</ele>
        <time>2013-08-14T07:36:39Z</time>
      </trkpt>
      <trkpt lat="42.4738" lon="2.06843">
        <ele>1596.6</ele>
        <time>2013-08-14T07:36:44Z</time>
      </trkpt>
      <trkpt lat="42.47382" lon="2.06838">
        <ele>1596.3</ele>
        <time>2013-08-14T07:36:57Z</time>
      </trkpt>
      <trkpt lat="42.47385" lon="2.06836">
        <ele>1595.9</ele>
        <time>2013-08-14T07:36:59Z</time>
      </trkpt>
      <trkpt lat="42.47388" lon="2.06833">
        <ele>1596.2</ele>
        <time>2013-08-14T07:37:02Z</time>
      </trkpt>
      <trkpt lat="42.47392" lon="2.06832">
        <ele>1596.6</ele>
        <time>2013-08-14T07:37:06Z</time>
      </trkpt>
      <trkpt lat="42.47396" lon="2.06831">
        <ele>1596.2</ele>
        <time>2013-08-14T07:37:10Z</time>
      </trkpt>
      <trkpt lat="42.47397" lon="2.06831">
        <ele>1596.1</ele>
        <time>2013-08-14T07:37:11Z</time>
      </trkpt>
      <trkpt lat="42.47404" lon="2.06829">
        <ele>1596.1</ele>
        <time>2013-08-14T07:37:17Z</time>
      </trkpt>
      <trkpt lat="42.47408" lon="2.06829">
        <ele>1595.5</ele>
        <time>2013-08-14T07:37:21Z</time>
      </trkpt>
      <trkpt lat="42.47412" lon="2.06827">
        <ele>1594.4</ele>
        <time>2013-08-14T07:37:25Z</time>
      </trkpt>
      <trkpt lat="42.47416" lon="2.06826">
        <ele>1594.3</ele>
        <time>2013-08-14T07:37:28Z</time>
      </trkpt>
      <trkpt lat="42.47421" lon="2.06827">
        <ele>1594.5</ele>
        <time>2013-08-14T07:37:31Z</time>
      </trkpt>
      <trkpt lat="42.47424" lon="2.06827">
        <ele>1594.4</ele>
        <time>2013-08-14T07:37:33Z</time>
      </trkpt>
      <trkpt lat="42.47428" lon="2.06829">
        <ele>1594.6</ele>
        <time>2013-08-14T07:37:36Z</time>
      </trkpt>
      <trkpt lat="42.47433" lon="2.0683">
        <ele>1594.2</ele>
        <time>2013-08-14T07:37:39Z</time>
      </trkpt>
      <trkpt lat="42.47436" lon="2.06832">
        <ele>1594.2</ele>
        <time>2013-08-14T07:37:42Z</time>
      </trkpt>
      <trkpt lat="42.4744" lon="2.06833">
        <ele>1593.5</ele>
        <time>2013-08-14T07:37:45Z</time>
      </trkpt>
      <trkpt lat="42.47438" lon="2.06828">
        <ele>1592.6</ele>
        <time>2013-08-14T07:38:03Z</time>
      </trkpt>
      <trkpt lat="42.47442" lon="2.06828">
        <ele>1592.2</ele>
        <time>2013-08-14T07:38:17Z</time>
      </trkpt>
      <trkpt lat="42.47443" lon="2.06828">
        <ele>1592.1</ele>
        <time>2013-08-14T07:38:18Z</time>
      </trkpt>
      <trkpt lat="42.4745" lon="2.0683">
        <ele>1592.4</ele>
        <time>2013-08-14T07:38:25Z</time>
      </trkpt>
      <trkpt lat="42.47454" lon="2.06832">
        <ele>1592.3</ele>
        <time>2013-08-14T07:38:29Z</time>
      </trkpt>
      <trkpt lat="42.47458" lon="2.06833">
        <ele>1592.5</ele>
        <time>2013-08-14T07:38:32Z</time>
      </trkpt>
      <trkpt lat="42.47462" lon="2.06835">
        <ele>1591.9</ele>
        <time>2013-08-14T07:38:36Z</time>
      </trkpt>
      <trkpt lat="42.47466" lon="2.06837">
        <ele>1591.3</ele>
        <time>2013-08-14T07:38:39Z</time>
      </trkpt>
      <trkpt lat="42.47469" lon="2.06838">
        <ele>1591.4</ele>
        <time>2013-08-14T07:38:42Z</time>
      </trkpt>
      <trkpt lat="42.47473" lon="2.06839">
        <ele>1591.3</ele>
        <time>2013-08-14T07:38:45Z</time>
      </trkpt>
      <trkpt lat="42.47476" lon="2.06841">
        <ele>1590.6</ele>
        <time>2013-08-14T07:38:48Z</time>
      </trkpt>
      <trkpt lat="42.4748" lon="2.06842">
        <ele>1590.2</ele>
        <time>2013-08-14T07:38:51Z</time>
      </trkpt>
      <trkpt lat="42.47483" lon="2.06844">
        <ele>1589.8</ele>
        <time>2013-08-14T07:38:54Z</time>
      </trkpt>
      <trkpt lat="42.47488" lon="2.06845">
        <ele>1589.7</ele>
        <time>2013-08-14T07:38:57Z</time>
      </trkpt>
      <trkpt lat="42.47492" lon="2.06847">
        <ele>1590.2</ele>
        <time>2013-08-14T07:39:00Z</time>
      </trkpt>
      <trkpt lat="42.47495" lon="2.06849">
        <ele>1590</ele>
        <time>2013-08-14T07:39:04Z</time>
      </trkpt>
      <trkpt lat="42.47499" lon="2.06851">
        <ele>1590.1</ele>
        <time>2013-08-14T07:39:07Z</time>
      </trkpt>
      <trkpt lat="42.47503" lon="2.06852">
        <ele>1590.4</ele>
        <time>2013-08-14T07:39:10Z</time>
      </trkpt>
      <trkpt lat="42.47506" lon="2.06854">
        <ele>1589.6</ele>
        <time>2013-08-14T07:39:13Z</time>
      </trkpt>
      <trkpt lat="42.4751" lon="2.06856">
        <ele>1589.9</ele>
        <time>2013-08-14T07:39:16Z</time>
      </trkpt>
      <trkpt lat="42.47513" lon="2.06858">
        <ele>1589.8</ele>
        <time>2013-08-14T07:39:19Z</time>
      </trkpt>
      <trkpt lat="42.47515" lon="2.06858">
        <ele>1589.7</ele>
        <time>2013-08-14T07:39:20Z</time>
      </trkpt>
      <trkpt lat="42.47519" lon="2.06861">
        <ele>1589.5</ele>
        <time>2013-08-14T07:39:23Z</time>
      </trkpt>
      <trkpt lat="42.47523" lon="2.06864">
        <ele>1589.6</ele>
        <time>2013-08-14T07:39:26Z</time>
      </trkpt>
      <trkpt lat="42.47527" lon="2.06866">
        <ele>1589.6</ele>
        <time>2013-08-14T07:39:29Z</time>
      </trkpt>
      <trkpt lat="42.4753" lon="2.06867">
        <ele>1590</ele>
        <time>2013-08-14T07:39:32Z</time>
      </trkpt>
      <trkpt lat="42.47533" lon="2.06869">
        <ele>1588.8</ele>
        <time>2013-08-14T07:39:35Z</time>
      </trkpt>
      <trkpt lat="42.47537" lon="2.06872">
        <ele>1588.1</ele>
        <time>2013-08-14T07:39:39Z</time>
      </trkpt>
      <trkpt lat="42.47542" lon="2.06873">
        <ele>1587.7</ele>
        <time>2013-08-14T07:39:42Z</time>
      </trkpt>
      <trkpt lat="42.47545" lon="2.06874">
        <ele>1588</ele>
        <time>2013-08-14T07:39:44Z</time>
      </trkpt>
      <trkpt lat="42.47549" lon="2.06874">
        <ele>1587.9</ele>
        <time>2013-08-14T07:39:47Z</time>
      </trkpt>
      <trkpt lat="42.47553" lon="2.06876">
        <ele>1587.3</ele>
        <time>2013-08-14T07:39:51Z</time>
      </trkpt>
      <trkpt lat="42.47556" lon="2.06877">
        <ele>1587.2</ele>
        <time>2013-08-14T07:39:54Z</time>
      </trkpt>
      <trkpt lat="42.4756" lon="2.06879">
        <ele>1586.8</ele>
        <time>2013-08-14T07:39:57Z</time>
      </trkpt>
      <trkpt lat="42.47563" lon="2.06881">
        <ele>1586.4</ele>
        <time>2013-08-14T07:40:00Z</time>
      </trkpt>
      <trkpt lat="42.47567" lon="2.06884">
        <ele>1585.4</ele>
        <time>2013-08-14T07:40:03Z</time>
      </trkpt>
      <trkpt lat="42.4757" lon="2.06885">
        <ele>1584.9</ele>
        <time>2013-08-14T07:40:05Z</time>
      </trkpt>
      <trkpt lat="42.47574" lon="2.06887">
        <ele>1584.7</ele>
        <time>2013-08-14T07:40:08Z</time>
      </trkpt>
      <trkpt lat="42.47577" lon="2.06891">
        <ele>1584.5</ele>
        <time>2013-08-14T07:40:11Z</time>
      </trkpt>
      <trkpt lat="42.4758" lon="2.06894">
        <ele>1584.2</ele>
        <time>2013-08-14T07:40:14Z</time>
      </trkpt>
      <trkpt lat="42.47584" lon="2.06896">
        <ele>1583.5</ele>
        <time>2013-08-14T07:40:18Z</time>
      </trkpt>
      <trkpt lat="42.47587" lon="2.06899">
        <ele>1582.9</ele>
        <time>2013-08-14T07:40:21Z</time>
      </trkpt>
      <trkpt lat="42.47588" lon="2.06899">
        <ele>1582.6</ele>
        <time>2013-08-14T07:40:22Z</time>
      </trkpt>
      <trkpt lat="42.47594" lon="2.06902">
        <ele>1582.1</ele>
        <time>2013-08-14T07:40:29Z</time>
      </trkpt>
      <trkpt lat="42.47598" lon="2.06905">
        <ele>1581.9</ele>
        <time>2013-08-14T07:40:33Z</time>
      </trkpt>
      <trkpt lat="42.47601" lon="2.06908">
        <ele>1582</ele>
        <time>2013-08-14T07:40:36Z</time>
      </trkpt>
      <trkpt lat="42.47604" lon="2.0691">
        <ele>1581.5</ele>
        <time>2013-08-14T07:40:39Z</time>
      </trkpt>
      <trkpt lat="42.47607" lon="2.06913">
        <ele>1581.2</ele>
        <time>2013-08-14T07:40:43Z</time>
      </trkpt>
      <trkpt lat="42.47611" lon="2.06915">
        <ele>1580.4</ele>
        <time>2013-08-14T07:40:46Z</time>
      </trkpt>
      <trkpt lat="42.47615" lon="2.06918">
        <ele>1580.6</ele>
        <time>2013-08-14T07:40:50Z</time>
      </trkpt>
      <trkpt lat="42.47618" lon="2.0692">
        <ele>1580.9</ele>
        <time>2013-08-14T07:40:53Z</time>
      </trkpt>
      <trkpt lat="42.47622" lon="2.06923">
        <ele>1580.7</ele>
        <time>2013-08-14T07:40:56Z</time>
      </trkpt>
      <trkpt lat="42.47625" lon="2.06925">
        <ele>1580.2</ele>
        <time>2013-08-14T07:40:59Z</time>
      </trkpt>
      <trkpt lat="42.47629" lon="2.06928">
        <ele>1580.1</ele>
        <time>2013-08-14T07:41:02Z</time>
      </trkpt>
      <trkpt lat="42.47632" lon="2.0693">
        <ele>1580.8</ele>
        <time>2013-08-14T07:41:05Z</time>
      </trkpt>
      <trkpt lat="42.47635" lon="2.06933">
        <ele>1580.1</ele>
        <time>2013-08-14T07:41:08Z</time>
      </trkpt>
      <trkpt lat="42.47639" lon="2.06935">
        <ele>1579.3</ele>
        <time>2013-08-14T07:41:12Z</time>
      </trkpt>
      <trkpt lat="42.47642" lon="2.06938">
        <ele>1579</ele>
        <time>2013-08-14T07:41:15Z</time>
      </trkpt>
      <trkpt lat="42.47646" lon="2.0694">
        <ele>1578.8</ele>
        <time>2013-08-14T07:41:19Z</time>
      </trkpt>
      <trkpt lat="42.47649" lon="2.06942">
        <ele>1578.5</ele>
        <time>2013-08-14T07:41:22Z</time>
      </trkpt>
      <trkpt lat="42.47651" lon="2.06943">
        <ele>1578.3</ele>
        <time>2013-08-14T07:41:23Z</time>
      </trkpt>
      <trkpt lat="42.47657" lon="2.06946">
        <ele>1578.1</ele>
        <time>2013-08-14T07:41:28Z</time>
      </trkpt>
      <trkpt lat="42.47661" lon="2.06948">
        <ele>1577.7</ele>
        <time>2013-08-14T07:41:31Z</time>
      </trkpt>
      <trkpt lat="42.47664" lon="2.0695">
        <ele>1578</ele>
        <time>2013-08-14T07:41:34Z</time>
      </trkpt>
      <trkpt lat="42.47668" lon="2.06951">
        <ele>1578.5</ele>
        <time>2013-08-14T07:41:37Z</time>
      </trkpt>
      <trkpt lat="42.47672" lon="2.06953">
        <ele>1578.2</ele>
        <time>2013-08-14T07:41:40Z</time>
      </trkpt>
      <trkpt lat="42.47675" lon="2.06954">
        <ele>1577.9</ele>
        <time>2013-08-14T07:41:42Z</time>
      </trkpt>
      <trkpt lat="42.47678" lon="2.06956">
        <ele>1577.7</ele>
        <time>2013-08-14T07:41:44Z</time>
      </trkpt>
      <trkpt lat="42.47682" lon="2.06958">
        <ele>1577.6</ele>
        <time>2013-08-14T07:41:47Z</time>
      </trkpt>
      <trkpt lat="42.47685" lon="2.0696">
        <ele>1577.7</ele>
        <time>2013-08-14T07:41:49Z</time>
      </trkpt>
      <trkpt lat="42.47688" lon="2.06963">
        <ele>1577.7</ele>
        <time>2013-08-14T07:41:52Z</time>
      </trkpt>
      <trkpt lat="42.47692" lon="2.06965">
        <ele>1577.7</ele>
        <time>2013-08-14T07:41:55Z</time>
      </trkpt>
      <trkpt lat="42.47696" lon="2.06966">
        <ele>1577.5</ele>
        <time>2013-08-14T07:41:58Z</time>
      </trkpt>
      <trkpt lat="42.47698" lon="2.06968">
        <ele>1577.2</ele>
        <time>2013-08-14T07:42:04Z</time>
      </trkpt>
      <trkpt lat="42.477" lon="2.06972">
        <ele>1577.3</ele>
        <time>2013-08-14T07:42:06Z</time>
      </trkpt>
      <trkpt lat="42.47703" lon="2.06977">
        <ele>1577.3</ele>
        <time>2013-08-14T07:42:09Z</time>
      </trkpt>
      <trkpt lat="42.47706" lon="2.06981">
        <ele>1577.4</ele>
        <time>2013-08-14T07:42:12Z</time>
      </trkpt>
      <trkpt lat="42.47707" lon="2.06984">
        <ele>1577.8</ele>
        <time>2013-08-14T07:42:14Z</time>
      </trkpt>
      <trkpt lat="42.47708" lon="2.0699">
        <ele>1577.9</ele>
        <time>2013-08-14T07:42:17Z</time>
      </trkpt>
      <trkpt lat="42.4771" lon="2.06994">
        <ele>1578.1</ele>
        <time>2013-08-14T07:42:20Z</time>
      </trkpt>
      <trkpt lat="42.47713" lon="2.06998">
        <ele>1578.3</ele>
        <time>2013-08-14T07:42:24Z</time>
      </trkpt>
      <trkpt lat="42.47713" lon="2.06999">
        <ele>1577.9</ele>
        <time>2013-08-14T07:42:25Z</time>
      </trkpt>
      <trkpt lat="42.47715" lon="2.07009">
        <ele>1577.2</ele>
        <time>2013-08-14T07:42:31Z</time>
      </trkpt>
      <trkpt lat="42.47716" lon="2.07014">
        <ele>1576.9</ele>
        <time>2013-08-14T07:42:34Z</time>
      </trkpt>
      <trkpt lat="42.47717" lon="2.07019">
        <ele>1576.9</ele>
        <time>2013-08-14T07:42:37Z</time>
      </trkpt>
      <trkpt lat="42.47718" lon="2.07024">
        <ele>1576.6</ele>
        <time>2013-08-14T07:42:40Z</time>
      </trkpt>
      <trkpt lat="42.4772" lon="2.07029">
        <ele>1576.8</ele>
        <time>2013-08-14T07:42:44Z</time>
      </trkpt>
      <trkpt lat="42.47722" lon="2.07032">
        <ele>1576.1</ele>
        <time>2013-08-14T07:42:48Z</time>
      </trkpt>
      <trkpt lat="42.47725" lon="2.07037">
        <ele>1576</ele>
        <time>2013-08-14T07:42:52Z</time>
      </trkpt>
      <trkpt lat="42.47727" lon="2.07042">
        <ele>1576.3</ele>
        <time>2013-08-14T07:42:56Z</time>
      </trkpt>
      <trkpt lat="42.4773" lon="2.07046">
        <ele>1576.5</ele>
        <time>2013-08-14T07:43:00Z</time>
      </trkpt>
      <trkpt lat="42.47733" lon="2.07051">
        <ele>1576.6</ele>
        <time>2013-08-14T07:43:05Z</time>
      </trkpt>
      <trkpt lat="42.47735" lon="2.07055">
        <ele>1576.3</ele>
        <time>2013-08-14T07:43:08Z</time>
      </trkpt>
      <trkpt lat="42.47737" lon="2.07059">
        <ele>1575.6</ele>
        <time>2013-08-14T07:43:11Z</time>
      </trkpt>
      <trkpt lat="42.47739" lon="2.07064">
        <ele>1576.8</ele>
        <time>2013-08-14T07:43:26Z</time>
      </trkpt>
      <trkpt lat="42.47738" lon="2.07064">
        <ele>1577</ele>
        <time>2013-08-14T07:43:27Z</time>
      </trkpt>
      <trkpt lat="42.47734" lon="2.07073">
        <ele>1576.7</ele>
        <time>2013-08-14T07:43:36Z</time>
      </trkpt>
      <trkpt lat="42.47732" lon="2.07078">
        <ele>1577.6</ele>
        <time>2013-08-14T07:43:41Z</time>
      </trkpt>
      <trkpt lat="42.47728" lon="2.07078">
        <ele>1579.3</ele>
        <time>2013-08-14T07:43:48Z</time>
      </trkpt>
      <trkpt lat="42.47724" lon="2.0708">
        <ele>1579.6</ele>
        <time>2013-08-14T07:43:53Z</time>
      </trkpt>
      <trkpt lat="42.47723" lon="2.07085">
        <ele>1580.5</ele>
        <time>2013-08-14T07:43:57Z</time>
      </trkpt>
      <trkpt lat="42.47723" lon="2.07091">
        <ele>1581</ele>
        <time>2013-08-14T07:44:04Z</time>
      </trkpt>
      <trkpt lat="42.47727" lon="2.07089">
        <ele>1580.9</ele>
        <time>2013-08-14T07:44:37Z</time>
      </trkpt>
      <trkpt lat="42.47727" lon="2.07088">
        <ele>1580.8</ele>
        <time>2013-08-14T07:44:38Z</time>
      </trkpt>
      <trkpt lat="42.47734" lon="2.07083">
        <ele>1579.7</ele>
        <time>2013-08-14T07:44:50Z</time>
      </trkpt>
      <trkpt lat="42.47737" lon="2.07078">
        <ele>1579.3</ele>
        <time>2013-08-14T07:44:55Z</time>
      </trkpt>
      <trkpt lat="42.4774" lon="2.07075">
        <ele>1578.5</ele>
        <time>2013-08-14T07:44:59Z</time>
      </trkpt>
      <trkpt lat="42.47741" lon="2.0707">
        <ele>1578</ele>
        <time>2013-08-14T07:45:03Z</time>
      </trkpt>
      <trkpt lat="42.47744" lon="2.07066">
        <ele>1577</ele>
        <time>2013-08-14T07:45:07Z</time>
      </trkpt>
      <trkpt lat="42.47747" lon="2.07063">
        <ele>1576.5</ele>
        <time>2013-08-14T07:45:11Z</time>
      </trkpt>
      <trkpt lat="42.47751" lon="2.07065">
        <ele>1576</ele>
        <time>2013-08-14T07:45:14Z</time>
      </trkpt>
      <trkpt lat="42.47753" lon="2.07068">
        <ele>1576.1</ele>
        <time>2013-08-14T07:45:17Z</time>
      </trkpt>
      <trkpt lat="42.47757" lon="2.07069">
        <ele>1576.3</ele>
        <time>2013-08-14T07:45:20Z</time>
      </trkpt>
      <trkpt lat="42.4776" lon="2.07073">
        <ele>1575.7</ele>
        <time>2013-08-14T07:45:24Z</time>
      </trkpt>
      <trkpt lat="42.47763" lon="2.07076">
        <ele>1575.4</ele>
        <time>2013-08-14T07:45:29Z</time>
      </trkpt>
      <trkpt lat="42.47765" lon="2.07081">
        <ele>1574.9</ele>
        <time>2013-08-14T07:45:33Z</time>
      </trkpt>
      <trkpt lat="42.47767" lon="2.07085">
        <ele>1573.9</ele>
        <time>2013-08-14T07:45:37Z</time>
      </trkpt>
      <trkpt lat="42.47769" lon="2.0709">
        <ele>1573.4</ele>
        <time>2013-08-14T07:45:41Z</time>
      </trkpt>
      <trkpt lat="42.47769" lon="2.07091">
        <ele>1573.5</ele>
        <time>2013-08-14T07:45:42Z</time>
      </trkpt>
      <trkpt lat="42.47772" lon="2.071">
        <ele>1573.5</ele>
        <time>2013-08-14T07:45:48Z</time>
      </trkpt>
      <trkpt lat="42.47775" lon="2.07103">
        <ele>1573.2</ele>
        <time>2013-08-14T07:45:50Z</time>
      </trkpt>
      <trkpt lat="42.47777" lon="2.07107">
        <ele>1572.9</ele>
        <time>2013-08-14T07:45:53Z</time>
      </trkpt>
      <trkpt lat="42.4778" lon="2.07112">
        <ele>1572.6</ele>
        <time>2013-08-14T07:45:56Z</time>
      </trkpt>
      <trkpt lat="42.47782" lon="2.07117">
        <ele>1572.4</ele>
        <time>2013-08-14T07:45:59Z</time>
      </trkpt>
      <trkpt lat="42.47783" lon="2.07121">
        <ele>1572.2</ele>
        <time>2013-08-14T07:46:01Z</time>
      </trkpt>
      <trkpt lat="42.47784" lon="2.07126">
        <ele>1571.6</ele>
        <time>2013-08-14T07:46:04Z</time>
      </trkpt>
      <trkpt lat="42.47785" lon="2.07132">
        <ele>1570.9</ele>
        <time>2013-08-14T07:46:07Z</time>
      </trkpt>
      <trkpt lat="42.47786" lon="2.07138">
        <ele>1570.3</ele>
        <time>2013-08-14T07:46:10Z</time>
      </trkpt>
      <trkpt lat="42.47788" lon="2.07143">
        <ele>1569.9</ele>
        <time>2013-08-14T07:46:13Z</time>
      </trkpt>
      <trkpt lat="42.4779" lon="2.07147">
        <ele>1570.1</ele>
        <time>2013-08-14T07:46:16Z</time>
      </trkpt>
      <trkpt lat="42.47792" lon="2.07152">
        <ele>1570.5</ele>
        <time>2013-08-14T07:46:20Z</time>
      </trkpt>
      <trkpt lat="42.47791" lon="2.07157">
        <ele>1569.7</ele>
        <time>2013-08-14T07:46:23Z</time>
      </trkpt>
      <trkpt lat="42.47791" lon="2.07162">
        <ele>1569.7</ele>
        <time>2013-08-14T07:46:26Z</time>
      </trkpt>
      <trkpt lat="42.4779" lon="2.07166">
        <ele>1569.7</ele>
        <time>2013-08-14T07:46:28Z</time>
      </trkpt>
      <trkpt lat="42.4779" lon="2.0717">
        <ele>1569.5</ele>
        <time>2013-08-14T07:46:30Z</time>
      </trkpt>
      <trkpt lat="42.47791" lon="2.07176">
        <ele>1569.8</ele>
        <time>2013-08-14T07:46:33Z</time>
      </trkpt>
      <trkpt lat="42.4779" lon="2.07182">
        <ele>1569.6</ele>
        <time>2013-08-14T07:46:37Z</time>
      </trkpt>
      <trkpt lat="42.4779" lon="2.07188">
        <ele>1569.1</ele>
        <time>2013-08-14T07:46:40Z</time>
      </trkpt>
      <trkpt lat="42.4779" lon="2.07194">
        <ele>1568.8</ele>
        <time>2013-08-14T07:46:43Z</time>
      </trkpt>
      <trkpt lat="42.4779" lon="2.07196">
        <ele>1568.8</ele>
        <time>2013-08-14T07:46:44Z</time>
      </trkpt>
      <trkpt lat="42.47793" lon="2.07204">
        <ele>1569.1</ele>
        <time>2013-08-14T07:46:49Z</time>
      </trkpt>
      <trkpt lat="42.47795" lon="2.07208">
        <ele>1569.4</ele>
        <time>2013-08-14T07:46:52Z</time>
      </trkpt>
      <trkpt lat="42.47796" lon="2.07214">
        <ele>1569.4</ele>
        <time>2013-08-14T07:46:55Z</time>
      </trkpt>
      <trkpt lat="42.47799" lon="2.07217">
        <ele>1569.5</ele>
        <time>2013-08-14T07:46:58Z</time>
      </trkpt>
      <trkpt lat="42.47802" lon="2.07219">
        <ele>1569.6</ele>
        <time>2013-08-14T07:47:00Z</time>
      </trkpt>
      <trkpt lat="42.47804" lon="2.07222">
        <ele>1569.8</ele>
        <time>2013-08-14T07:47:02Z</time>
      </trkpt>
      <trkpt lat="42.47806" lon="2.07227">
        <ele>1569.8</ele>
        <time>2013-08-14T07:47:05Z</time>
      </trkpt>
      <trkpt lat="42.47808" lon="2.0723">
        <ele>1569.1</ele>
        <time>2013-08-14T07:47:08Z</time>
      </trkpt>
      <trkpt lat="42.4781" lon="2.07236">
        <ele>1570.1</ele>
        <time>2013-08-14T07:47:11Z</time>
      </trkpt>
      <trkpt lat="42.47811" lon="2.07242">
        <ele>1570.2</ele>
        <time>2013-08-14T07:47:14Z</time>
      </trkpt>
      <trkpt lat="42.47812" lon="2.07247">
        <ele>1570.2</ele>
        <time>2013-08-14T07:47:17Z</time>
      </trkpt>
      <trkpt lat="42.47814" lon="2.07252">
        <ele>1570.6</ele>
        <time>2013-08-14T07:47:20Z</time>
      </trkpt>
      <trkpt lat="42.47816" lon="2.07256">
        <ele>1570.1</ele>
        <time>2013-08-14T07:47:23Z</time>
      </trkpt>
      <trkpt lat="42.47818" lon="2.0726">
        <ele>1570.7</ele>
        <time>2013-08-14T07:47:26Z</time>
      </trkpt>
      <trkpt lat="42.4782" lon="2.07265">
        <ele>1571.5</ele>
        <time>2013-08-14T07:47:29Z</time>
      </trkpt>
      <trkpt lat="42.47823" lon="2.07269">
        <ele>1571.9</ele>
        <time>2013-08-14T07:47:32Z</time>
      </trkpt>
      <trkpt lat="42.47826" lon="2.07272">
        <ele>1571.6</ele>
        <time>2013-08-14T07:47:35Z</time>
      </trkpt>
      <trkpt lat="42.47828" lon="2.07276">
        <ele>1571.4</ele>
        <time>2013-08-14T07:47:37Z</time>
      </trkpt>
      <trkpt lat="42.4783" lon="2.07279">
        <ele>1571.6</ele>
        <time>2013-08-14T07:47:39Z</time>
      </trkpt>
      <trkpt lat="42.47833" lon="2.07283">
        <ele>1572.4</ele>
        <time>2013-08-14T07:47:42Z</time>
      </trkpt>
      <trkpt lat="42.47836" lon="2.07288">
        <ele>1572.9</ele>
        <time>2013-08-14T07:47:45Z</time>
      </trkpt>
      <trkpt lat="42.47837" lon="2.07289">
        <ele>1572.9</ele>
        <time>2013-08-14T07:47:46Z</time>
      </trkpt>
      <trkpt lat="42.47843" lon="2.0729">
        <ele>1573.2</ele>
        <time>2013-08-14T07:47:50Z</time>
      </trkpt>
      <trkpt lat="42.47847" lon="2.0729">
        <ele>1573</ele>
        <time>2013-08-14T07:47:54Z</time>
      </trkpt>
      <trkpt lat="42.47849" lon="2.07285">
        <ele>1573</ele>
        <time>2013-08-14T07:47:59Z</time>
      </trkpt>
      <trkpt lat="42.47851" lon="2.0728">
        <ele>1573.3</ele>
        <time>2013-08-14T07:48:02Z</time>
      </trkpt>
      <trkpt lat="42.47853" lon="2.07275">
        <ele>1572.9</ele>
        <time>2013-08-14T07:48:05Z</time>
      </trkpt>
      <trkpt lat="42.47855" lon="2.0727">
        <ele>1572.3</ele>
        <time>2013-08-14T07:48:08Z</time>
      </trkpt>
      <trkpt lat="42.47856" lon="2.07266">
        <ele>1571.8</ele>
        <time>2013-08-14T07:48:11Z</time>
      </trkpt>
      <trkpt lat="42.47858" lon="2.07261">
        <ele>1571.1</ele>
        <time>2013-08-14T07:48:14Z</time>
      </trkpt>
      <trkpt lat="42.47859" lon="2.07255">
        <ele>1570.9</ele>
        <time>2013-08-14T07:48:18Z</time>
      </trkpt>
      <trkpt lat="42.4786" lon="2.0725">
        <ele>1570.7</ele>
        <time>2013-08-14T07:48:21Z</time>
      </trkpt>
      <trkpt lat="42.47861" lon="2.07245">
        <ele>1569</ele>
        <time>2013-08-14T07:48:25Z</time>
      </trkpt>
      <trkpt lat="42.47863" lon="2.0724">
        <ele>1568.8</ele>
        <time>2013-08-14T07:48:28Z</time>
      </trkpt>
      <trkpt lat="42.47865" lon="2.07235">
        <ele>1568.8</ele>
        <time>2013-08-14T07:48:31Z</time>
      </trkpt>
      <trkpt lat="42.47866" lon="2.0723">
        <ele>1568.8</ele>
        <time>2013-08-14T07:48:34Z</time>
      </trkpt>
      <trkpt lat="42.47868" lon="2.07225">
        <ele>1568.3</ele>
        <time>2013-08-14T07:48:36Z</time>
      </trkpt>
      <trkpt lat="42.47869" lon="2.07221">
        <ele>1567.7</ele>
        <time>2013-08-14T07:48:38Z</time>
      </trkpt>
      <trkpt lat="42.47871" lon="2.07217">
        <ele>1567.1</ele>
        <time>2013-08-14T07:48:40Z</time>
      </trkpt>
      <trkpt lat="42.47873" lon="2.07212">
        <ele>1566.9</ele>
        <time>2013-08-14T07:48:43Z</time>
      </trkpt>
      <trkpt lat="42.47875" lon="2.07208">
        <ele>1566.6</ele>
        <time>2013-08-14T07:48:45Z</time>
      </trkpt>
      <trkpt lat="42.47876" lon="2.07204">
        <ele>1566.2</ele>
        <time>2013-08-14T07:48:47Z</time>
      </trkpt>
      <trkpt lat="42.47877" lon="2.07202">
        <ele>1566.1</ele>
        <time>2013-08-14T07:48:48Z</time>
      </trkpt>
      <trkpt lat="42.4788" lon="2.07195">
        <ele>1565.7</ele>
        <time>2013-08-14T07:48:52Z</time>
      </trkpt>
      <trkpt lat="42.47883" lon="2.07191">
        <ele>1565.6</ele>
        <time>2013-08-14T07:48:54Z</time>
      </trkpt>
      <trkpt lat="42.47885" lon="2.07188">
        <ele>1565.5</ele>
        <time>2013-08-14T07:48:56Z</time>
      </trkpt>
      <trkpt lat="42.47888" lon="2.07186">
        <ele>1565</ele>
        <time>2013-08-14T07:48:58Z</time>
      </trkpt>
      <trkpt lat="42.47892" lon="2.07185">
        <ele>1564.2</ele>
        <time>2013-08-14T07:49:01Z</time>
      </trkpt>
      <trkpt lat="42.47896" lon="2.07184">
        <ele>1563.7</ele>
        <time>2013-08-14T07:49:04Z</time>
      </trkpt>
      <trkpt lat="42.47899" lon="2.07184">
        <ele>1563.5</ele>
        <time>2013-08-14T07:49:07Z</time>
      </trkpt>
      <trkpt lat="42.47903" lon="2.07183">
        <ele>1562.6</ele>
        <time>2013-08-14T07:49:11Z</time>
      </trkpt>
      <trkpt lat="42.47907" lon="2.07183">
        <ele>1563.2</ele>
        <time>2013-08-14T07:49:15Z</time>
      </trkpt>
      <trkpt lat="42.4791" lon="2.07185">
        <ele>1563.2</ele>
        <time>2013-08-14T07:49:19Z</time>
      </trkpt>
      <trkpt lat="42.47914" lon="2.07187">
        <ele>1563.1</ele>
        <time>2013-08-14T07:49:22Z</time>
      </trkpt>
      <trkpt lat="42.47917" lon="2.07188">
        <ele>1562.9</ele>
        <time>2013-08-14T07:49:25Z</time>
      </trkpt>
      <trkpt lat="42.47921" lon="2.07191">
        <ele>1562.5</ele>
        <time>2013-08-14T07:49:29Z</time>
      </trkpt>
      <trkpt lat="42.47924" lon="2.07193">
        <ele>1563.1</ele>
        <time>2013-08-14T07:49:32Z</time>
      </trkpt>
      <trkpt lat="42.47927" lon="2.07196">
        <ele>1564.2</ele>
        <time>2013-08-14T07:49:35Z</time>
      </trkpt>
      <trkpt lat="42.4793" lon="2.07198">
        <ele>1563.8</ele>
        <time>2013-08-14T07:49:38Z</time>
      </trkpt>
      <trkpt lat="42.47933" lon="2.07199">
        <ele>1563.7</ele>
        <time>2013-08-14T07:49:40Z</time>
      </trkpt>
      <trkpt lat="42.47937" lon="2.07201">
        <ele>1563.6</ele>
        <time>2013-08-14T07:49:43Z</time>
      </trkpt>
      <trkpt lat="42.47941" lon="2.07203">
        <ele>1563.4</ele>
        <time>2013-08-14T07:49:47Z</time>
      </trkpt>
      <trkpt lat="42.47945" lon="2.07202">
        <ele>1563.2</ele>
        <time>2013-08-14T07:49:50Z</time>
      </trkpt>
      <trkpt lat="42.47946" lon="2.07202">
        <ele>1563.1</ele>
        <time>2013-08-14T07:49:51Z</time>
      </trkpt>
      <trkpt lat="42.47952" lon="2.07196">
        <ele>1562.4</ele>
        <time>2013-08-14T07:49:57Z</time>
      </trkpt>
      <trkpt lat="42.47953" lon="2.07191">
        <ele>1561.5</ele>
        <time>2013-08-14T07:50:01Z</time>
      </trkpt>
      <trkpt lat="42.47956" lon="2.07186">
        <ele>1560.9</ele>
        <time>2013-08-14T07:50:05Z</time>
      </trkpt>
      <trkpt lat="42.47959" lon="2.07185">
        <ele>1560.8</ele>
        <time>2013-08-14T07:50:09Z</time>
      </trkpt>
      <trkpt lat="42.47963" lon="2.07184">
        <ele>1560.6</ele>
        <time>2013-08-14T07:50:12Z</time>
      </trkpt>
      <trkpt lat="42.47967" lon="2.07182">
        <ele>1560.3</ele>
        <time>2013-08-14T07:50:17Z</time>
      </trkpt>
      <trkpt lat="42.47971" lon="2.07181">
        <ele>1559.3</ele>
        <time>2013-08-14T07:50:22Z</time>
      </trkpt>
      <trkpt lat="42.47974" lon="2.07177">
        <ele>1558.6</ele>
        <time>2013-08-14T07:50:25Z</time>
      </trkpt>
      <trkpt lat="42.47977" lon="2.07175">
        <ele>1558.6</ele>
        <time>2013-08-14T07:50:28Z</time>
      </trkpt>
      <trkpt lat="42.47981" lon="2.07171">
        <ele>1558.4</ele>
        <time>2013-08-14T07:50:31Z</time>
      </trkpt>
      <trkpt lat="42.47985" lon="2.07168">
        <ele>1557.7</ele>
        <time>2013-08-14T07:50:34Z</time>
      </trkpt>
      <trkpt lat="42.47988" lon="2.07166">
        <ele>1556.8</ele>
        <time>2013-08-14T07:50:37Z</time>
      </trkpt>
      <trkpt lat="42.47992" lon="2.07163">
        <ele>1557.2</ele>
        <time>2013-08-14T07:50:42Z</time>
      </trkpt>
      <trkpt lat="42.47995" lon="2.07159">
        <ele>1555.2</ele>
        <time>2013-08-14T07:50:45Z</time>
      </trkpt>
      <trkpt lat="42.47997" lon="2.07154">
        <ele>1554.5</ele>
        <time>2013-08-14T07:50:48Z</time>
      </trkpt>
      <trkpt lat="42.47999" lon="2.0715">
        <ele>1554.5</ele>
        <time>2013-08-14T07:50:51Z</time>
      </trkpt>
      <trkpt lat="42.48" lon="2.07148">
        <ele>1554.5</ele>
        <time>2013-08-14T07:50:52Z</time>
      </trkpt>
      <trkpt lat="42.48004" lon="2.07143">
        <ele>1555</ele>
        <time>2013-08-14T07:50:56Z</time>
      </trkpt>
      <trkpt lat="42.48006" lon="2.07138">
        <ele>1555</ele>
        <time>2013-08-14T07:50:59Z</time>
      </trkpt>
      <trkpt lat="42.48009" lon="2.07134">
        <ele>1554.2</ele>
        <time>2013-08-14T07:51:02Z</time>
      </trkpt>
      <trkpt lat="42.4801" lon="2.07129">
        <ele>1553.8</ele>
        <time>2013-08-14T07:51:05Z</time>
      </trkpt>
      <trkpt lat="42.48013" lon="2.07125">
        <ele>1552.1</ele>
        <time>2013-08-14T07:51:08Z</time>
      </trkpt>
      <trkpt lat="42.48016" lon="2.07121">
        <ele>1552.7</ele>
        <time>2013-08-14T07:51:11Z</time>
      </trkpt>
      <trkpt lat="42.48018" lon="2.07116">
        <ele>1551.9</ele>
        <time>2013-08-14T07:51:14Z</time>
      </trkpt>
      <trkpt lat="42.48021" lon="2.07112">
        <ele>1551.7</ele>
        <time>2013-08-14T07:51:18Z</time>
      </trkpt>
      <trkpt lat="42.48022" lon="2.07107">
        <ele>1551.7</ele>
        <time>2013-08-14T07:51:22Z</time>
      </trkpt>
      <trkpt lat="42.48024" lon="2.07102">
        <ele>1551.5</ele>
        <time>2013-08-14T07:51:26Z</time>
      </trkpt>
      <trkpt lat="42.48027" lon="2.07098">
        <ele>1551</ele>
        <time>2013-08-14T07:51:31Z</time>
      </trkpt>
      <trkpt lat="42.4803" lon="2.07094">
        <ele>1550.8</ele>
        <time>2013-08-14T07:51:35Z</time>
      </trkpt>
      <trkpt lat="42.48033" lon="2.07091">
        <ele>1550.7</ele>
        <time>2013-08-14T07:51:40Z</time>
      </trkpt>
      <trkpt lat="42.48037" lon="2.07089">
        <ele>1549.2</ele>
        <time>2013-08-14T07:51:47Z</time>
      </trkpt>
      <trkpt lat="42.4804" lon="2.07085">
        <ele>1547.5</ele>
        <time>2013-08-14T07:51:53Z</time>
      </trkpt>
      <trkpt lat="42.4804" lon="2.07084">
        <ele>1547.1</ele>
        <time>2013-08-14T07:51:54Z</time>
      </trkpt>
      <trkpt lat="42.48045" lon="2.07078">
        <ele>1546.3</ele>
        <time>2013-08-14T07:51:58Z</time>
      </trkpt>
      <trkpt lat="42.48047" lon="2.07074">
        <ele>1546.5</ele>
        <time>2013-08-14T07:52:01Z</time>
      </trkpt>
      <trkpt lat="42.48049" lon="2.0707">
        <ele>1546.4</ele>
        <time>2013-08-14T07:52:04Z</time>
      </trkpt>
      <trkpt lat="42.48052" lon="2.07065">
        <ele>1546.2</ele>
        <time>2013-08-14T07:52:07Z</time>
      </trkpt>
      <trkpt lat="42.48055" lon="2.07061">
        <ele>1545.7</ele>
        <time>2013-08-14T07:52:10Z</time>
      </trkpt>
      <trkpt lat="42.48057" lon="2.07058">
        <ele>1545.9</ele>
        <time>2013-08-14T07:52:14Z</time>
      </trkpt>
      <trkpt lat="42.4806" lon="2.07054">
        <ele>1545.9</ele>
        <time>2013-08-14T07:52:18Z</time>
      </trkpt>
      <trkpt lat="42.48063" lon="2.07052">
        <ele>1545.1</ele>
        <time>2013-08-14T07:52:21Z</time>
      </trkpt>
      <trkpt lat="42.48065" lon="2.07047">
        <ele>1545.2</ele>
        <time>2013-08-14T07:52:24Z</time>
      </trkpt>
      <trkpt lat="42.48067" lon="2.07042">
        <ele>1544.9</ele>
        <time>2013-08-14T07:52:27Z</time>
      </trkpt>
      <trkpt lat="42.48068" lon="2.07039">
        <ele>1545</ele>
        <time>2013-08-14T07:52:29Z</time>
      </trkpt>
      <trkpt lat="42.48071" lon="2.07035">
        <ele>1545.2</ele>
        <time>2013-08-14T07:52:31Z</time>
      </trkpt>
      <trkpt lat="42.48072" lon="2.0703">
        <ele>1544</ele>
        <time>2013-08-14T07:52:35Z</time>
      </trkpt>
      <trkpt lat="42.48074" lon="2.07026">
        <ele>1543.3</ele>
        <time>2013-08-14T07:52:38Z</time>
      </trkpt>
      <trkpt lat="42.48076" lon="2.07021">
        <ele>1543.1</ele>
        <time>2013-08-14T07:52:41Z</time>
      </trkpt>
      <trkpt lat="42.48077" lon="2.07016">
        <ele>1542.9</ele>
        <time>2013-08-14T07:52:45Z</time>
      </trkpt>
      <trkpt lat="42.48078" lon="2.0701">
        <ele>1543.2</ele>
        <time>2013-08-14T07:52:49Z</time>
      </trkpt>
      <trkpt lat="42.48079" lon="2.07005">
        <ele>1542</ele>
        <time>2013-08-14T07:52:53Z</time>
      </trkpt>
      <trkpt lat="42.48081" lon="2.07">
        <ele>1541</ele>
        <time>2013-08-14T07:52:57Z</time>
      </trkpt>
      <trkpt lat="42.48082" lon="2.06998">
        <ele>1540.8</ele>
        <time>2013-08-14T07:52:58Z</time>
      </trkpt>
      <trkpt lat="42.48085" lon="2.06992">
        <ele>1540.2</ele>
        <time>2013-08-14T07:53:03Z</time>
      </trkpt>
      <trkpt lat="42.48087" lon="2.06988">
        <ele>1540.3</ele>
        <time>2013-08-14T07:53:05Z</time>
      </trkpt>
      <trkpt lat="42.48089" lon="2.06983">
        <ele>1539.7</ele>
        <time>2013-08-14T07:53:09Z</time>
      </trkpt>
      <trkpt lat="42.48091" lon="2.06978">
        <ele>1539.1</ele>
        <time>2013-08-14T07:53:12Z</time>
      </trkpt>
      <trkpt lat="42.48093" lon="2.06974">
        <ele>1538.6</ele>
        <time>2013-08-14T07:53:15Z</time>
      </trkpt>
      <trkpt lat="42.48094" lon="2.06969">
        <ele>1538.2</ele>
        <time>2013-08-14T07:53:19Z</time>
      </trkpt>
      <trkpt lat="42.48096" lon="2.06964">
        <ele>1537.4</ele>
        <time>2013-08-14T07:53:23Z</time>
      </trkpt>
      <trkpt lat="42.48098" lon="2.06959">
        <ele>1536</ele>
        <time>2013-08-14T07:53:28Z</time>
      </trkpt>
      <trkpt lat="42.48099" lon="2.06954">
        <ele>1536.5</ele>
        <time>2013-08-14T07:53:31Z</time>
      </trkpt>
      <trkpt lat="42.48101" lon="2.06949">
        <ele>1535.4</ele>
        <time>2013-08-14T07:53:34Z</time>
      </trkpt>
      <trkpt lat="42.48101" lon="2.06945">
        <ele>1535.1</ele>
        <time>2013-08-14T07:53:38Z</time>
      </trkpt>
      <trkpt lat="42.48103" lon="2.0694">
        <ele>1535</ele>
        <time>2013-08-14T07:53:42Z</time>
      </trkpt>
      <trkpt lat="42.48106" lon="2.06936">
        <ele>1534.9</ele>
        <time>2013-08-14T07:53:46Z</time>
      </trkpt>
      <trkpt lat="42.48109" lon="2.06931">
        <ele>1534.4</ele>
        <time>2013-08-14T07:53:50Z</time>
      </trkpt>
      <trkpt lat="42.48113" lon="2.06933">
        <ele>1533.5</ele>
        <time>2013-08-14T07:53:55Z</time>
      </trkpt>
      <trkpt lat="42.48117" lon="2.06935">
        <ele>1533</ele>
        <time>2013-08-14T07:53:59Z</time>
      </trkpt>
      <trkpt lat="42.48118" lon="2.06936">
        <ele>1533</ele>
        <time>2013-08-14T07:54:00Z</time>
      </trkpt>
      <trkpt lat="42.48124" lon="2.06935">
        <ele>1532.7</ele>
        <time>2013-08-14T07:54:07Z</time>
      </trkpt>
      <trkpt lat="42.48128" lon="2.06938">
        <ele>1528.7</ele>
        <time>2013-08-14T07:54:19Z</time>
      </trkpt>
      <trkpt lat="42.48131" lon="2.06939">
        <ele>1528.3</ele>
        <time>2013-08-14T07:54:25Z</time>
      </trkpt>
      <trkpt lat="42.48135" lon="2.06941">
        <ele>1526.5</ele>
        <time>2013-08-14T07:54:30Z</time>
      </trkpt>
      <trkpt lat="42.48138" lon="2.06944">
        <ele>1525.2</ele>
        <time>2013-08-14T07:54:34Z</time>
      </trkpt>
      <trkpt lat="42.48142" lon="2.06946">
        <ele>1524.2</ele>
        <time>2013-08-14T07:54:38Z</time>
      </trkpt>
      <trkpt lat="42.48146" lon="2.06948">
        <ele>1524.2</ele>
        <time>2013-08-14T07:54:43Z</time>
      </trkpt>
      <trkpt lat="42.4815" lon="2.0695">
        <ele>1522.8</ele>
        <time>2013-08-14T07:54:48Z</time>
      </trkpt>
      <trkpt lat="42.48154" lon="2.06951">
        <ele>1521</ele>
        <time>2013-08-14T07:54:53Z</time>
      </trkpt>
      <trkpt lat="42.48158" lon="2.06953">
        <ele>1519.9</ele>
        <time>2013-08-14T07:54:58Z</time>
      </trkpt>
      <trkpt lat="42.48162" lon="2.06956">
        <ele>1518.4</ele>
        <time>2013-08-14T07:55:03Z</time>
      </trkpt>
      <trkpt lat="42.48163" lon="2.06957">
        <ele>1518.2</ele>
        <time>2013-08-14T07:55:04Z</time>
      </trkpt>
      <trkpt lat="42.48169" lon="2.06961">
        <ele>1516.6</ele>
        <time>2013-08-14T07:55:11Z</time>
      </trkpt>
      <trkpt lat="42.48173" lon="2.06963">
        <ele>1515.5</ele>
        <time>2013-08-14T07:55:16Z</time>
      </trkpt>
      <trkpt lat="42.48176" lon="2.06964">
        <ele>1514.1</ele>
        <time>2013-08-14T07:55:21Z</time>
      </trkpt>
      <trkpt lat="42.4818" lon="2.06966">
        <ele>1512</ele>
        <time>2013-08-14T07:55:28Z</time>
      </trkpt>
      <trkpt lat="42.48184" lon="2.06963">
        <ele>1511.4</ele>
        <time>2013-08-14T07:55:36Z</time>
      </trkpt>
      <trkpt lat="42.48186" lon="2.0696">
        <ele>1511.3</ele>
        <time>2013-08-14T07:55:38Z</time>
      </trkpt>
      <trkpt lat="42.48188" lon="2.06956">
        <ele>1511.5</ele>
        <time>2013-08-14T07:55:40Z</time>
      </trkpt>
      <trkpt lat="42.48189" lon="2.06952">
        <ele>1511.7</ele>
        <time>2013-08-14T07:55:42Z</time>
      </trkpt>
      <trkpt lat="42.48192" lon="2.06947">
        <ele>1511.8</ele>
        <time>2013-08-14T07:55:45Z</time>
      </trkpt>
      <trkpt lat="42.48194" lon="2.06944">
        <ele>1511.6</ele>
        <time>2013-08-14T07:55:47Z</time>
      </trkpt>
      <trkpt lat="42.48197" lon="2.0694">
        <ele>1511.3</ele>
        <time>2013-08-14T07:55:50Z</time>
      </trkpt>
      <trkpt lat="42.48199" lon="2.06935">
        <ele>1511.5</ele>
        <time>2013-08-14T07:55:53Z</time>
      </trkpt>
      <trkpt lat="42.48201" lon="2.06931">
        <ele>1511.7</ele>
        <time>2013-08-14T07:55:56Z</time>
      </trkpt>
      <trkpt lat="42.48203" lon="2.06926">
        <ele>1510.9</ele>
        <time>2013-08-14T07:56:00Z</time>
      </trkpt>
      <trkpt lat="42.48204" lon="2.06922">
        <ele>1510.8</ele>
        <time>2013-08-14T07:56:03Z</time>
      </trkpt>
      <trkpt lat="42.48206" lon="2.06918">
        <ele>1511.2</ele>
        <time>2013-08-14T07:56:05Z</time>
      </trkpt>
      <trkpt lat="42.48208" lon="2.06915">
        <ele>1511.1</ele>
        <time>2013-08-14T07:56:06Z</time>
      </trkpt>
      <trkpt lat="42.4821" lon="2.06908">
        <ele>1510.9</ele>
        <time>2013-08-14T07:56:10Z</time>
      </trkpt>
      <trkpt lat="42.48211" lon="2.06903">
        <ele>1511</ele>
        <time>2013-08-14T07:56:14Z</time>
      </trkpt>
      <trkpt lat="42.48211" lon="2.06897">
        <ele>1511</ele>
        <time>2013-08-14T07:56:17Z</time>
      </trkpt>
      <trkpt lat="42.48212" lon="2.06892">
        <ele>1511</ele>
        <time>2013-08-14T07:56:22Z</time>
      </trkpt>
      <trkpt lat="42.48214" lon="2.06887">
        <ele>1510.9</ele>
        <time>2013-08-14T07:56:25Z</time>
      </trkpt>
      <trkpt lat="42.48216" lon="2.06882">
        <ele>1509.9</ele>
        <time>2013-08-14T07:56:38Z</time>
      </trkpt>
      <trkpt lat="42.48212" lon="2.06885">
        <ele>1510.3</ele>
        <time>2013-08-14T07:56:45Z</time>
      </trkpt>
      <trkpt lat="42.4821" lon="2.06889">
        <ele>1510.3</ele>
        <time>2013-08-14T07:56:49Z</time>
      </trkpt>
      <trkpt lat="42.48208" lon="2.06893">
        <ele>1510.7</ele>
        <time>2013-08-14T07:56:51Z</time>
      </trkpt>
      <trkpt lat="42.48207" lon="2.06897">
        <ele>1510.9</ele>
        <time>2013-08-14T07:56:54Z</time>
      </trkpt>
      <trkpt lat="42.48206" lon="2.06902">
        <ele>1510.7</ele>
        <time>2013-08-14T07:56:57Z</time>
      </trkpt>
      <trkpt lat="42.48204" lon="2.06907">
        <ele>1510.7</ele>
        <time>2013-08-14T07:57:01Z</time>
      </trkpt>
      <trkpt lat="42.48203" lon="2.06912">
        <ele>1510.5</ele>
        <time>2013-08-14T07:57:04Z</time>
      </trkpt>
      <trkpt lat="42.48201" lon="2.06917">
        <ele>1510.7</ele>
        <time>2013-08-14T07:57:07Z</time>
      </trkpt>
      <trkpt lat="42.482" lon="2.06919">
        <ele>1510.7</ele>
        <time>2013-08-14T07:57:08Z</time>
      </trkpt>
      <trkpt lat="42.48197" lon="2.06927">
        <ele>1510.5</ele>
        <time>2013-08-14T07:57:13Z</time>
      </trkpt>
      <trkpt lat="42.48195" lon="2.06931">
        <ele>1511</ele>
        <time>2013-08-14T07:57:16Z</time>
      </trkpt>
      <trkpt lat="42.48193" lon="2.06937">
        <ele>1511.8</ele>
        <time>2013-08-14T07:57:19Z</time>
      </trkpt>
      <trkpt lat="42.48192" lon="2.06941">
        <ele>1512.2</ele>
        <time>2013-08-14T07:57:21Z</time>
      </trkpt>
      <trkpt lat="42.48191" lon="2.06946">
        <ele>1512.4</ele>
        <time>2013-08-14T07:57:24Z</time>
      </trkpt>
      <trkpt lat="42.48189" lon="2.06951">
        <ele>1511.7</ele>
        <time>2013-08-14T07:57:27Z</time>
      </trkpt>
      <trkpt lat="42.48188" lon="2.06956">
        <ele>1511.7</ele>
        <time>2013-08-14T07:57:29Z</time>
      </trkpt>
      <trkpt lat="42.48187" lon="2.06961">
        <ele>1511.4</ele>
        <time>2013-08-14T07:57:32Z</time>
      </trkpt>
      <trkpt lat="42.48186" lon="2.06965">
        <ele>1510.9</ele>
        <time>2013-08-14T07:57:34Z</time>
      </trkpt>
      <trkpt lat="42.48183" lon="2.0697">
        <ele>1510.1</ele>
        <time>2013-08-14T07:57:37Z</time>
      </trkpt>
      <trkpt lat="42.48181" lon="2.06975">
        <ele>1510.3</ele>
        <time>2013-08-14T07:57:41Z</time>
      </trkpt>
      <trkpt lat="42.4818" lon="2.0698">
        <ele>1511</ele>
        <time>2013-08-14T07:57:45Z</time>
      </trkpt>
      <trkpt lat="42.48179" lon="2.06985">
        <ele>1510.6</ele>
        <time>2013-08-14T07:57:59Z</time>
      </trkpt>
      <trkpt lat="42.48177" lon="2.06991">
        <ele>1510</ele>
        <time>2013-08-14T07:58:04Z</time>
      </trkpt>
      <trkpt lat="42.48175" lon="2.06995">
        <ele>1510.4</ele>
        <time>2013-08-14T07:58:07Z</time>
      </trkpt>
      <trkpt lat="42.48178" lon="2.06992">
        <ele>1509.5</ele>
        <time>2013-08-14T07:58:32Z</time>
      </trkpt>
      <trkpt lat="42.48178" lon="2.06992">
        <ele>1509.7</ele>
        <time>2013-08-14T07:58:33Z</time>
      </trkpt>
      <trkpt lat="42.48179" lon="2.07003">
        <ele>1509.3</ele>
        <time>2013-08-14T07:59:05Z</time>
      </trkpt>
      <trkpt lat="42.48179" lon="2.07009">
        <ele>1509.1</ele>
        <time>2013-08-14T07:59:14Z</time>
      </trkpt>
      <trkpt lat="42.48179" lon="2.07015">
        <ele>1509.2</ele>
        <time>2013-08-14T07:59:19Z</time>
      </trkpt>
      <trkpt lat="42.48179" lon="2.07021">
        <ele>1508.2</ele>
        <time>2013-08-14T07:59:24Z</time>
      </trkpt>
      <trkpt lat="42.4818" lon="2.07026">
        <ele>1507.3</ele>
        <time>2013-08-14T07:59:30Z</time>
      </trkpt>
      <trkpt lat="42.48181" lon="2.07032">
        <ele>1506.9</ele>
        <time>2013-08-14T07:59:34Z</time>
      </trkpt>
      <trkpt lat="42.48181" lon="2.07033">
        <ele>1506.6</ele>
        <time>2013-08-14T07:59:35Z</time>
      </trkpt>
      <trkpt lat="42.48182" lon="2.07041">
        <ele>1507.2</ele>
        <time>2013-08-14T07:59:40Z</time>
      </trkpt>
      <trkpt lat="42.48181" lon="2.07045">
        <ele>1507.4</ele>
        <time>2013-08-14T07:59:42Z</time>
      </trkpt>
      <trkpt lat="42.48181" lon="2.0705">
        <ele>1507.9</ele>
        <time>2013-08-14T07:59:44Z</time>
      </trkpt>
      <trkpt lat="42.48181" lon="2.07056">
        <ele>1507.8</ele>
        <time>2013-08-14T07:59:47Z</time>
      </trkpt>
      <trkpt lat="42.48184" lon="2.07061">
        <ele>1507</ele>
        <time>2013-08-14T07:59:51Z</time>
      </trkpt>
      <trkpt lat="42.48186" lon="2.07064">
        <ele>1507.3</ele>
        <time>2013-08-14T07:59:53Z</time>
      </trkpt>
      <trkpt lat="42.4819" lon="2.07066">
        <ele>1507.7</ele>
        <time>2013-08-14T07:59:58Z</time>
      </trkpt>
      <trkpt lat="42.48191" lon="2.07061">
        <ele>1507.2</ele>
        <time>2013-08-14T08:00:40Z</time>
      </trkpt>
      <trkpt lat="42.48191" lon="2.0706">
        <ele>1507.1</ele>
        <time>2013-08-14T08:00:41Z</time>
      </trkpt>
      <trkpt lat="42.48196" lon="2.07069">
        <ele>1507.7</ele>
        <time>2013-08-14T08:01:02Z</time>
      </trkpt>
      <trkpt lat="42.48198" lon="2.07075">
        <ele>1507.5</ele>
        <time>2013-08-14T08:01:06Z</time>
      </trkpt>
      <trkpt lat="42.482" lon="2.07079">
        <ele>1507.9</ele>
        <time>2013-08-14T08:01:10Z</time>
      </trkpt>
      <trkpt lat="42.48204" lon="2.07083">
        <ele>1507.6</ele>
        <time>2013-08-14T08:01:14Z</time>
      </trkpt>
      <trkpt lat="42.48206" lon="2.07086">
        <ele>1507.6</ele>
        <time>2013-08-14T08:01:17Z</time>
      </trkpt>
      <trkpt lat="42.48211" lon="2.07087">
        <ele>1508.3</ele>
        <time>2013-08-14T08:01:20Z</time>
      </trkpt>
      <trkpt lat="42.48214" lon="2.07089">
        <ele>1508.9</ele>
        <time>2013-08-14T08:01:23Z</time>
      </trkpt>
      <trkpt lat="42.48218" lon="2.07091">
        <ele>1508.7</ele>
        <time>2013-08-14T08:01:27Z</time>
      </trkpt>
      <trkpt lat="42.48221" lon="2.07091">
        <ele>1509</ele>
        <time>2013-08-14T08:01:30Z</time>
      </trkpt>
      <trkpt lat="42.48224" lon="2.0709">
        <ele>1509.9</ele>
        <time>2013-08-14T08:01:32Z</time>
      </trkpt>
      <trkpt lat="42.48228" lon="2.07088">
        <ele>1510.1</ele>
        <time>2013-08-14T08:01:34Z</time>
      </trkpt>
      <trkpt lat="42.48231" lon="2.07087">
        <ele>1509.8</ele>
        <time>2013-08-14T08:01:37Z</time>
      </trkpt>
      <trkpt lat="42.48235" lon="2.07085">
        <ele>1510.2</ele>
        <time>2013-08-14T08:01:40Z</time>
      </trkpt>
      <trkpt lat="42.48239" lon="2.07082">
        <ele>1510.4</ele>
        <time>2013-08-14T08:01:45Z</time>
      </trkpt>
      <trkpt lat="42.4824" lon="2.07081">
        <ele>1510.5</ele>
        <time>2013-08-14T08:01:46Z</time>
      </trkpt>
      <trkpt lat="42.48245" lon="2.07075">
        <ele>1510.7</ele>
        <time>2013-08-14T08:01:52Z</time>
      </trkpt>
      <trkpt lat="42.48247" lon="2.0707">
        <ele>1511.2</ele>
        <time>2013-08-14T08:01:57Z</time>
      </trkpt>
      <trkpt lat="42.48251" lon="2.07068">
        <ele>1511.3</ele>
        <time>2013-08-14T08:02:03Z</time>
      </trkpt>
      <trkpt lat="42.48253" lon="2.07065">
        <ele>1511.3</ele>
        <time>2013-08-14T08:02:07Z</time>
      </trkpt>
      <trkpt lat="42.48256" lon="2.07061">
        <ele>1511.2</ele>
        <time>2013-08-14T08:02:09Z</time>
      </trkpt>
      <trkpt lat="42.48258" lon="2.07057">
        <ele>1511.7</ele>
        <time>2013-08-14T08:02:14Z</time>
      </trkpt>
      <trkpt lat="42.48261" lon="2.07053">
        <ele>1512.2</ele>
        <time>2013-08-14T08:02:19Z</time>
      </trkpt>
      <trkpt lat="42.48265" lon="2.07049">
        <ele>1512.8</ele>
        <time>2013-08-14T08:02:23Z</time>
      </trkpt>
      <trkpt lat="42.48266" lon="2.07045">
        <ele>1512.8</ele>
        <time>2013-08-14T08:02:26Z</time>
      </trkpt>
      <trkpt lat="42.48268" lon="2.0704">
        <ele>1512.8</ele>
        <time>2013-08-14T08:02:30Z</time>
      </trkpt>
      <trkpt lat="42.4827" lon="2.07035">
        <ele>1512.9</ele>
        <time>2013-08-14T08:02:34Z</time>
      </trkpt>
      <trkpt lat="42.48273" lon="2.07031">
        <ele>1513.6</ele>
        <time>2013-08-14T08:02:38Z</time>
      </trkpt>
      <trkpt lat="42.48275" lon="2.07027">
        <ele>1513.5</ele>
        <time>2013-08-14T08:02:41Z</time>
      </trkpt>
      <trkpt lat="42.48277" lon="2.07023">
        <ele>1513.7</ele>
        <time>2013-08-14T08:02:44Z</time>
      </trkpt>
      <trkpt lat="42.4828" lon="2.0702">
        <ele>1513.7</ele>
        <time>2013-08-14T08:02:49Z</time>
      </trkpt>
      <trkpt lat="42.48281" lon="2.07019">
        <ele>1513.7</ele>
        <time>2013-08-14T08:02:50Z</time>
      </trkpt>
      <trkpt lat="42.48285" lon="2.07011">
        <ele>1514</ele>
        <time>2013-08-14T08:02:56Z</time>
      </trkpt>
      <trkpt lat="42.48288" lon="2.07008">
        <ele>1514.3</ele>
        <time>2013-08-14T08:02:59Z</time>
      </trkpt>
      <trkpt lat="42.4829" lon="2.07004">
        <ele>1514.6</ele>
        <time>2013-08-14T08:03:02Z</time>
      </trkpt>
      <trkpt lat="42.48293" lon="2.06999">
        <ele>1514.3</ele>
        <time>2013-08-14T08:03:05Z</time>
      </trkpt>
      <trkpt lat="42.48295" lon="2.06995">
        <ele>1515</ele>
        <time>2013-08-14T08:03:08Z</time>
      </trkpt>
      <trkpt lat="42.48297" lon="2.0699">
        <ele>1515.3</ele>
        <time>2013-08-14T08:03:11Z</time>
      </trkpt>
      <trkpt lat="42.483" lon="2.06987">
        <ele>1515.8</ele>
        <time>2013-08-14T08:03:14Z</time>
      </trkpt>
      <trkpt lat="42.48303" lon="2.06983">
        <ele>1515.9</ele>
        <time>2013-08-14T08:03:17Z</time>
      </trkpt>
      <trkpt lat="42.48305" lon="2.06979">
        <ele>1515.9</ele>
        <time>2013-08-14T08:03:20Z</time>
      </trkpt>
      <trkpt lat="42.48308" lon="2.06976">
        <ele>1516.1</ele>
        <time>2013-08-14T08:03:22Z</time>
      </trkpt>
      <trkpt lat="42.4831" lon="2.06972">
        <ele>1515.8</ele>
        <time>2013-08-14T08:03:25Z</time>
      </trkpt>
      <trkpt lat="42.48312" lon="2.06967">
        <ele>1516.1</ele>
        <time>2013-08-14T08:03:28Z</time>
      </trkpt>
      <trkpt lat="42.48314" lon="2.06962">
        <ele>1516.5</ele>
        <time>2013-08-14T08:03:31Z</time>
      </trkpt>
      <trkpt lat="42.48315" lon="2.06957">
        <ele>1516.8</ele>
        <time>2013-08-14T08:03:34Z</time>
      </trkpt>
      <trkpt lat="42.48315" lon="2.06952">
        <ele>1516.9</ele>
        <time>2013-08-14T08:03:37Z</time>
      </trkpt>
      <trkpt lat="42.48317" lon="2.06948">
        <ele>1517.5</ele>
        <time>2013-08-14T08:03:40Z</time>
      </trkpt>
      <trkpt lat="42.48318" lon="2.06944">
        <ele>1517.9</ele>
        <time>2013-08-14T08:03:43Z</time>
      </trkpt>
      <trkpt lat="42.48322" lon="2.0694">
        <ele>1518</ele>
        <time>2013-08-14T08:03:46Z</time>
      </trkpt>
      <trkpt lat="42.48324" lon="2.06935">
        <ele>1518.5</ele>
        <time>2013-08-14T08:03:50Z</time>
      </trkpt>
      <trkpt lat="42.48324" lon="2.06935">
        <ele>1518.6</ele>
        <time>2013-08-14T08:03:51Z</time>
      </trkpt>
      <trkpt lat="42.48328" lon="2.06927">
        <ele>1519.4</ele>
        <time>2013-08-14T08:03:58Z</time>
      </trkpt>
      <trkpt lat="42.4833" lon="2.06923">
        <ele>1519.6</ele>
        <time>2013-08-14T08:04:01Z</time>
      </trkpt>
      <trkpt lat="42.48333" lon="2.06917">
        <ele>1520.1</ele>
        <time>2013-08-14T08:04:06Z</time>
      </trkpt>
      <trkpt lat="42.48335" lon="2.06912">
        <ele>1520.6</ele>
        <time>2013-08-14T08:04:11Z</time>
      </trkpt>
      <trkpt lat="42.48337" lon="2.06908">
        <ele>1520.7</ele>
        <time>2013-08-14T08:04:15Z</time>
      </trkpt>
      <trkpt lat="42.4834" lon="2.06906">
        <ele>1521.2</ele>
        <time>2013-08-14T08:04:19Z</time>
      </trkpt>
      <trkpt lat="42.48342" lon="2.06901">
        <ele>1521.3</ele>
        <time>2013-08-14T08:04:23Z</time>
      </trkpt>
      <trkpt lat="42.48344" lon="2.06897">
        <ele>1521.9</ele>
        <time>2013-08-14T08:04:27Z</time>
      </trkpt>
      <trkpt lat="42.48347" lon="2.06893">
        <ele>1523</ele>
        <time>2013-08-14T08:04:32Z</time>
      </trkpt>
      <trkpt lat="42.4835" lon="2.06889">
        <ele>1523.2</ele>
        <time>2013-08-14T08:04:35Z</time>
      </trkpt>
      <trkpt lat="42.48352" lon="2.06885">
        <ele>1523.1</ele>
        <time>2013-08-14T08:04:37Z</time>
      </trkpt>
      <trkpt lat="42.48353" lon="2.06881">
        <ele>1522.9</ele>
        <time>2013-08-14T08:04:40Z</time>
      </trkpt>
      <trkpt lat="42.48355" lon="2.06877">
        <ele>1523.2</ele>
        <time>2013-08-14T08:04:43Z</time>
      </trkpt>
      <trkpt lat="42.48357" lon="2.06872">
        <ele>1523.6</ele>
        <time>2013-08-14T08:04:46Z</time>
      </trkpt>
      <trkpt lat="42.48358" lon="2.06868">
        <ele>1523.5</ele>
        <time>2013-08-14T08:04:48Z</time>
      </trkpt>
      <trkpt lat="42.4836" lon="2.06865">
        <ele>1524.1</ele>
        <time>2013-08-14T08:04:50Z</time>
      </trkpt>
      <trkpt lat="42.48362" lon="2.06861">
        <ele>1524.6</ele>
        <time>2013-08-14T08:04:52Z</time>
      </trkpt>
      <trkpt lat="42.48363" lon="2.06859">
        <ele>1524.7</ele>
        <time>2013-08-14T08:04:53Z</time>
      </trkpt>
      <trkpt lat="42.48368" lon="2.06853">
        <ele>1525.1</ele>
        <time>2013-08-14T08:04:58Z</time>
      </trkpt>
      <trkpt lat="42.4837" lon="2.06849">
        <ele>1525.4</ele>
        <time>2013-08-14T08:05:01Z</time>
      </trkpt>
      <trkpt lat="42.48373" lon="2.06846">
        <ele>1525.2</ele>
        <time>2013-08-14T08:05:04Z</time>
      </trkpt>
      <trkpt lat="42.48376" lon="2.06842">
        <ele>1526.1</ele>
        <time>2013-08-14T08:05:07Z</time>
      </trkpt>
      <trkpt lat="42.48379" lon="2.06838">
        <ele>1526.1</ele>
        <time>2013-08-14T08:05:10Z</time>
      </trkpt>
      <trkpt lat="42.48381" lon="2.06834">
        <ele>1527</ele>
        <time>2013-08-14T08:05:13Z</time>
      </trkpt>
      <trkpt lat="42.48383" lon="2.0683">
        <ele>1527.5</ele>
        <time>2013-08-14T08:05:15Z</time>
      </trkpt>
      <trkpt lat="42.48385" lon="2.06827">
        <ele>1528.1</ele>
        <time>2013-08-14T08:05:17Z</time>
      </trkpt>
      <trkpt lat="42.48387" lon="2.06822">
        <ele>1527.7</ele>
        <time>2013-08-14T08:05:20Z</time>
      </trkpt>
      <trkpt lat="42.48389" lon="2.06817">
        <ele>1527.9</ele>
        <time>2013-08-14T08:05:23Z</time>
      </trkpt>
      <trkpt lat="42.48391" lon="2.06813">
        <ele>1528.3</ele>
        <time>2013-08-14T08:05:26Z</time>
      </trkpt>
      <trkpt lat="42.48392" lon="2.06809">
        <ele>1527.4</ele>
        <time>2013-08-14T08:05:29Z</time>
      </trkpt>
      <trkpt lat="42.48395" lon="2.06805">
        <ele>1527.5</ele>
        <time>2013-08-14T08:05:31Z</time>
      </trkpt>
      <trkpt lat="42.48397" lon="2.06801">
        <ele>1528.2</ele>
        <time>2013-08-14T08:05:35Z</time>
      </trkpt>
      <trkpt lat="42.48399" lon="2.06797">
        <ele>1529.2</ele>
        <time>2013-08-14T08:05:38Z</time>
      </trkpt>
      <trkpt lat="42.48401" lon="2.06792">
        <ele>1529.8</ele>
        <time>2013-08-14T08:05:41Z</time>
      </trkpt>
      <trkpt lat="42.48403" lon="2.06788">
        <ele>1530.1</ele>
        <time>2013-08-14T08:05:44Z</time>
      </trkpt>
      <trkpt lat="42.48406" lon="2.06785">
        <ele>1530.1</ele>
        <time>2013-08-14T08:05:47Z</time>
      </trkpt>
      <trkpt lat="42.48408" lon="2.0678">
        <ele>1530.1</ele>
        <time>2013-08-14T08:05:50Z</time>
      </trkpt>
      <trkpt lat="42.4841" lon="2.06776">
        <ele>1530.2</ele>
        <time>2013-08-14T08:05:54Z</time>
      </trkpt>
      <trkpt lat="42.48411" lon="2.06774">
        <ele>1530.3</ele>
        <time>2013-08-14T08:05:55Z</time>
      </trkpt>
      <trkpt lat="42.48417" lon="2.06772">
        <ele>1531.4</ele>
        <time>2013-08-14T08:06:02Z</time>
      </trkpt>
      <trkpt lat="42.48421" lon="2.06771">
        <ele>1531.7</ele>
        <time>2013-08-14T08:06:05Z</time>
      </trkpt>
      <trkpt lat="42.48425" lon="2.06771">
        <ele>1531.9</ele>
        <time>2013-08-14T08:06:08Z</time>
      </trkpt>
      <trkpt lat="42.48429" lon="2.06773">
        <ele>1532.3</ele>
        <time>2013-08-14T08:06:11Z</time>
      </trkpt>
      <trkpt lat="42.48432" lon="2.06778">
        <ele>1531.9</ele>
        <time>2013-08-14T08:06:16Z</time>
      </trkpt>
      <trkpt lat="42.48428" lon="2.06775">
        <ele>1532.3</ele>
        <time>2013-08-14T08:06:52Z</time>
      </trkpt>
      <trkpt lat="42.48426" lon="2.0677">
        <ele>1531.4</ele>
        <time>2013-08-14T08:07:21Z</time>
      </trkpt>
      <trkpt lat="42.48426" lon="2.0677">
        <ele>1531.3</ele>
        <time>2013-08-14T08:07:22Z</time>
      </trkpt>
      <trkpt lat="42.4843" lon="2.06774">
        <ele>1532.9</ele>
        <time>2013-08-14T08:08:43Z</time>
      </trkpt>
      <trkpt lat="42.48432" lon="2.06779">
        <ele>1533.5</ele>
        <time>2013-08-14T08:10:50Z</time>
      </trkpt>
      <trkpt lat="42.48436" lon="2.06788">
        <ele>1534.4</ele>
        <time>2013-08-14T08:11:17Z</time>
      </trkpt>
      <trkpt lat="42.48436" lon="2.06793">
        <ele>1534.5</ele>
        <time>2013-08-14T08:11:21Z</time>
      </trkpt>
      <trkpt lat="42.48437" lon="2.06798">
        <ele>1534.9</ele>
        <time>2013-08-14T08:11:25Z</time>
      </trkpt>
      <trkpt lat="42.48437" lon="2.06803">
        <ele>1534.9</ele>
        <time>2013-08-14T08:11:29Z</time>
      </trkpt>
      <trkpt lat="42.48439" lon="2.06809">
        <ele>1535.1</ele>
        <time>2013-08-14T08:11:33Z</time>
      </trkpt>
      <trkpt lat="42.4844" lon="2.06815">
        <ele>1535.6</ele>
        <time>2013-08-14T08:11:36Z</time>
      </trkpt>
      <trkpt lat="42.48442" lon="2.0682">
        <ele>1536</ele>
        <time>2013-08-14T08:11:40Z</time>
      </trkpt>
      <trkpt lat="42.48443" lon="2.06826">
        <ele>1535.4</ele>
        <time>2013-08-14T08:11:44Z</time>
      </trkpt>
      <trkpt lat="42.48444" lon="2.06831">
        <ele>1535.7</ele>
        <time>2013-08-14T08:11:47Z</time>
      </trkpt>
      <trkpt lat="42.48446" lon="2.06836">
        <ele>1537</ele>
        <time>2013-08-14T08:11:51Z</time>
      </trkpt>
      <trkpt lat="42.48446" lon="2.06838">
        <ele>1537.3</ele>
        <time>2013-08-14T08:11:52Z</time>
      </trkpt>
      <trkpt lat="42.4845" lon="2.06846">
        <ele>1537.9</ele>
        <time>2013-08-14T08:11:57Z</time>
      </trkpt>
      <trkpt lat="42.48453" lon="2.06849">
        <ele>1537.8</ele>
        <time>2013-08-14T08:12:00Z</time>
      </trkpt>
      <trkpt lat="42.48455" lon="2.06854">
        <ele>1538.5</ele>
        <time>2013-08-14T08:12:05Z</time>
      </trkpt>
      <trkpt lat="42.48458" lon="2.06857">
        <ele>1538.5</ele>
        <time>2013-08-14T08:12:11Z</time>
      </trkpt>
      <trkpt lat="42.48461" lon="2.0686">
        <ele>1538.3</ele>
        <time>2013-08-14T08:12:14Z</time>
      </trkpt>
      <trkpt lat="42.48464" lon="2.06864">
        <ele>1538.5</ele>
        <time>2013-08-14T08:12:17Z</time>
      </trkpt>
      <trkpt lat="42.48466" lon="2.06868">
        <ele>1539.7</ele>
        <time>2013-08-14T08:12:21Z</time>
      </trkpt>
      <trkpt lat="42.48468" lon="2.06874">
        <ele>1539.8</ele>
        <time>2013-08-14T08:12:25Z</time>
      </trkpt>
      <trkpt lat="42.48472" lon="2.06877">
        <ele>1540.8</ele>
        <time>2013-08-14T08:12:29Z</time>
      </trkpt>
      <trkpt lat="42.48474" lon="2.06881">
        <ele>1540.3</ele>
        <time>2013-08-14T08:12:32Z</time>
      </trkpt>
      <trkpt lat="42.48474" lon="2.06886">
        <ele>1540.5</ele>
        <time>2013-08-14T08:12:36Z</time>
      </trkpt>
      <trkpt lat="42.48474" lon="2.06892">
        <ele>1540.8</ele>
        <time>2013-08-14T08:12:40Z</time>
      </trkpt>
      <trkpt lat="42.48473" lon="2.06897">
        <ele>1541.7</ele>
        <time>2013-08-14T08:12:44Z</time>
      </trkpt>
      <trkpt lat="42.4847" lon="2.06899">
        <ele>1542.7</ele>
        <time>2013-08-14T08:12:48Z</time>
      </trkpt>
      <trkpt lat="42.48466" lon="2.06901">
        <ele>1542.8</ele>
        <time>2013-08-14T08:12:51Z</time>
      </trkpt>
      <trkpt lat="42.48463" lon="2.06903">
        <ele>1543.2</ele>
        <time>2013-08-14T08:12:54Z</time>
      </trkpt>
      <trkpt lat="42.48462" lon="2.06904">
        <ele>1543.3</ele>
        <time>2013-08-14T08:12:55Z</time>
      </trkpt>
      <trkpt lat="42.48455" lon="2.069">
        <ele>1544.3</ele>
        <time>2013-08-14T08:13:02Z</time>
      </trkpt>
      <trkpt lat="42.48452" lon="2.06899">
        <ele>1544.6</ele>
        <time>2013-08-14T08:13:05Z</time>
      </trkpt>
      <trkpt lat="42.48448" lon="2.069">
        <ele>1544.7</ele>
        <time>2013-08-14T08:13:08Z</time>
      </trkpt>
      <trkpt lat="42.48445" lon="2.06903">
        <ele>1545</ele>
        <time>2013-08-14T08:13:11Z</time>
      </trkpt>
      <trkpt lat="42.48442" lon="2.06904">
        <ele>1545.2</ele>
        <time>2013-08-14T08:13:13Z</time>
      </trkpt>
      <trkpt lat="42.48439" lon="2.06908">
        <ele>1545.3</ele>
        <time>2013-08-14T08:13:16Z</time>
      </trkpt>
      <trkpt lat="42.48437" lon="2.06911">
        <ele>1545.5</ele>
        <time>2013-08-14T08:13:18Z</time>
      </trkpt>
      <trkpt lat="42.48435" lon="2.06914">
        <ele>1545.4</ele>
        <time>2013-08-14T08:13:20Z</time>
      </trkpt>
      <trkpt lat="42.48432" lon="2.06919">
        <ele>1545.3</ele>
        <time>2013-08-14T08:13:23Z</time>
      </trkpt>
      <trkpt lat="42.4843" lon="2.06923">
        <ele>1545.5</ele>
        <time>2013-08-14T08:13:26Z</time>
      </trkpt>
      <trkpt lat="42.48427" lon="2.06927">
        <ele>1545.9</ele>
        <time>2013-08-14T08:13:28Z</time>
      </trkpt>
      <trkpt lat="42.48425" lon="2.06933">
        <ele>1545.2</ele>
        <time>2013-08-14T08:13:31Z</time>
      </trkpt>
      <trkpt lat="42.48424" lon="2.06938">
        <ele>1546</ele>
        <time>2013-08-14T08:13:34Z</time>
      </trkpt>
      <trkpt lat="42.48424" lon="2.06943">
        <ele>1546</ele>
        <time>2013-08-14T08:13:37Z</time>
      </trkpt>
      <trkpt lat="42.48422" lon="2.06948">
        <ele>1546.2</ele>
        <time>2013-08-14T08:13:40Z</time>
      </trkpt>
      <trkpt lat="42.48421" lon="2.06953">
        <ele>1546.2</ele>
        <time>2013-08-14T08:13:43Z</time>
      </trkpt>
      <trkpt lat="42.4842" lon="2.06958">
        <ele>1546.3</ele>
        <time>2013-08-14T08:13:46Z</time>
      </trkpt>
      <trkpt lat="42.48419" lon="2.06962">
        <ele>1546.4</ele>
        <time>2013-08-14T08:13:48Z</time>
      </trkpt>
      <trkpt lat="42.48416" lon="2.06967">
        <ele>1546.2</ele>
        <time>2013-08-14T08:13:51Z</time>
      </trkpt>
      <trkpt lat="42.48415" lon="2.06971">
        <ele>1546.5</ele>
        <time>2013-08-14T08:13:53Z</time>
      </trkpt>
      <trkpt lat="42.48413" lon="2.06975">
        <ele>1546.7</ele>
        <time>2013-08-14T08:13:55Z</time>
      </trkpt>
      <trkpt lat="42.48412" lon="2.06977">
        <ele>1546.8</ele>
        <time>2013-08-14T08:13:56Z</time>
      </trkpt>
      <trkpt lat="42.4841" lon="2.06984">
        <ele>1548.5</ele>
        <time>2013-08-14T08:14:00Z</time>
      </trkpt>
      <trkpt lat="42.48409" lon="2.06989">
        <ele>1548.6</ele>
        <time>2013-08-14T08:14:03Z</time>
      </trkpt>
      <trkpt lat="42.48408" lon="2.06994">
        <ele>1548.8</ele>
        <time>2013-08-14T08:14:08Z</time>
      </trkpt>
      <trkpt lat="42.48407" lon="2.06999">
        <ele>1549</ele>
        <time>2013-08-14T08:14:12Z</time>
      </trkpt>
      <trkpt lat="42.48406" lon="2.07004">
        <ele>1549.1</ele>
        <time>2013-08-14T08:14:16Z</time>
      </trkpt>
      <trkpt lat="42.48406" lon="2.07009">
        <ele>1549.1</ele>
        <time>2013-08-14T08:14:19Z</time>
      </trkpt>
      <trkpt lat="42.48403" lon="2.07014">
        <ele>1549.7</ele>
        <time>2013-08-14T08:14:24Z</time>
      </trkpt>
      <trkpt lat="42.48402" lon="2.0702">
        <ele>1550.4</ele>
        <time>2013-08-14T08:14:29Z</time>
      </trkpt>
      <trkpt lat="42.48401" lon="2.07026">
        <ele>1550.5</ele>
        <time>2013-08-14T08:14:36Z</time>
      </trkpt>
      <trkpt lat="42.484" lon="2.07031">
        <ele>1550.4</ele>
        <time>2013-08-14T08:14:40Z</time>
      </trkpt>
      <trkpt lat="42.48398" lon="2.07037">
        <ele>1550.8</ele>
        <time>2013-08-14T08:14:43Z</time>
      </trkpt>
      <trkpt lat="42.48397" lon="2.07042">
        <ele>1551.3</ele>
        <time>2013-08-14T08:14:46Z</time>
      </trkpt>
      <trkpt lat="42.48398" lon="2.07048">
        <ele>1551.9</ele>
        <time>2013-08-14T08:14:50Z</time>
      </trkpt>
      <trkpt lat="42.48396" lon="2.07052">
        <ele>1552.4</ele>
        <time>2013-08-14T08:14:53Z</time>
      </trkpt>
      <trkpt lat="42.48394" lon="2.07057">
        <ele>1552.4</ele>
        <time>2013-08-14T08:14:57Z</time>
      </trkpt>
      <trkpt lat="42.48393" lon="2.07058">
        <ele>1552.4</ele>
        <time>2013-08-14T08:14:58Z</time>
      </trkpt>
      <trkpt lat="42.48391" lon="2.07067">
        <ele>1553.3</ele>
        <time>2013-08-14T08:15:05Z</time>
      </trkpt>
      <trkpt lat="42.48391" lon="2.07073">
        <ele>1553.8</ele>
        <time>2013-08-14T08:15:09Z</time>
      </trkpt>
      <trkpt lat="42.48389" lon="2.07078">
        <ele>1553.8</ele>
        <time>2013-08-14T08:15:13Z</time>
      </trkpt>
      <trkpt lat="42.48388" lon="2.07084">
        <ele>1553.2</ele>
        <time>2013-08-14T08:15:17Z</time>
      </trkpt>
      <trkpt lat="42.48387" lon="2.07089">
        <ele>1554</ele>
        <time>2013-08-14T08:15:21Z</time>
      </trkpt>
      <trkpt lat="42.48387" lon="2.07095">
        <ele>1553.6</ele>
        <time>2013-08-14T08:15:24Z</time>
      </trkpt>
      <trkpt lat="42.48386" lon="2.071">
        <ele>1553.7</ele>
        <time>2013-08-14T08:15:28Z</time>
      </trkpt>
      <trkpt lat="42.48385" lon="2.07105">
        <ele>1554.5</ele>
        <time>2013-08-14T08:15:32Z</time>
      </trkpt>
      <trkpt lat="42.48385" lon="2.0711">
        <ele>1554.7</ele>
        <time>2013-08-14T08:15:36Z</time>
      </trkpt>
      <trkpt lat="42.48384" lon="2.07114">
        <ele>1555.2</ele>
        <time>2013-08-14T08:15:38Z</time>
      </trkpt>
      <trkpt lat="42.48383" lon="2.0712">
        <ele>1555.6</ele>
        <time>2013-08-14T08:15:42Z</time>
      </trkpt>
      <trkpt lat="42.48383" lon="2.07125">
        <ele>1555.7</ele>
        <time>2013-08-14T08:15:45Z</time>
      </trkpt>
      <trkpt lat="42.48381" lon="2.07131">
        <ele>1556</ele>
        <time>2013-08-14T08:15:48Z</time>
      </trkpt>
      <trkpt lat="42.4838" lon="2.07137">
        <ele>1556.4</ele>
        <time>2013-08-14T08:15:51Z</time>
      </trkpt>
      <trkpt lat="42.4838" lon="2.07142">
        <ele>1556.1</ele>
        <time>2013-08-14T08:15:54Z</time>
      </trkpt>
      <trkpt lat="42.4838" lon="2.07148">
        <ele>1556.5</ele>
        <time>2013-08-14T08:15:57Z</time>
      </trkpt>
      <trkpt lat="42.48378" lon="2.07153">
        <ele>1556.4</ele>
        <time>2013-08-14T08:16:00Z</time>
      </trkpt>
      <trkpt lat="42.48378" lon="2.07154">
        <ele>1556.4</ele>
        <time>2013-08-14T08:16:01Z</time>
      </trkpt>
      <trkpt lat="42.48376" lon="2.07164">
        <ele>1556.7</ele>
        <time>2013-08-14T08:16:07Z</time>
      </trkpt>
      <trkpt lat="42.48375" lon="2.07168">
        <ele>1556.9</ele>
        <time>2013-08-14T08:16:09Z</time>
      </trkpt>
      <trkpt lat="42.48374" lon="2.07173">
        <ele>1556.8</ele>
        <time>2013-08-14T08:16:12Z</time>
      </trkpt>
      <trkpt lat="42.48373" lon="2.07178">
        <ele>1557</ele>
        <time>2013-08-14T08:16:15Z</time>
      </trkpt>
      <trkpt lat="42.48373" lon="2.07183">
        <ele>1557.2</ele>
        <time>2013-08-14T08:16:18Z</time>
      </trkpt>
      <trkpt lat="42.48372" lon="2.07188">
        <ele>1557.5</ele>
        <time>2013-08-14T08:16:21Z</time>
      </trkpt>
      <trkpt lat="42.48372" lon="2.07193">
        <ele>1557.2</ele>
        <time>2013-08-14T08:16:24Z</time>
      </trkpt>
      <trkpt lat="42.48372" lon="2.07198">
        <ele>1558.4</ele>
        <time>2013-08-14T08:16:27Z</time>
      </trkpt>
      <trkpt lat="42.48373" lon="2.07204">
        <ele>1559.1</ele>
        <time>2013-08-14T08:16:30Z</time>
      </trkpt>
      <trkpt lat="42.48373" lon="2.07209">
        <ele>1558.8</ele>
        <time>2013-08-14T08:16:33Z</time>
      </trkpt>
      <trkpt lat="42.48374" lon="2.07214">
        <ele>1559.4</ele>
        <time>2013-08-14T08:16:36Z</time>
      </trkpt>
      <trkpt lat="42.48374" lon="2.07218">
        <ele>1559.8</ele>
        <time>2013-08-14T08:16:38Z</time>
      </trkpt>
      <trkpt lat="42.48375" lon="2.07222">
        <ele>1560</ele>
        <time>2013-08-14T08:16:40Z</time>
      </trkpt>
      <trkpt lat="42.48377" lon="2.07228">
        <ele>1559.8</ele>
        <time>2013-08-14T08:16:43Z</time>
      </trkpt>
      <trkpt lat="42.48378" lon="2.07233">
        <ele>1561</ele>
        <time>2013-08-14T08:16:46Z</time>
      </trkpt>
      <trkpt lat="42.48381" lon="2.07236">
        <ele>1561.3</ele>
        <time>2013-08-14T08:16:49Z</time>
      </trkpt>
      <trkpt lat="42.48382" lon="2.0724">
        <ele>1561</ele>
        <time>2013-08-14T08:16:51Z</time>
      </trkpt>
      <trkpt lat="42.48385" lon="2.07246">
        <ele>1560.8</ele>
        <time>2013-08-14T08:16:54Z</time>
      </trkpt>
      <trkpt lat="42.48387" lon="2.07251">
        <ele>1561.4</ele>
        <time>2013-08-14T08:16:57Z</time>
      </trkpt>
      <trkpt lat="42.48388" lon="2.07254">
        <ele>1561.4</ele>
        <time>2013-08-14T08:16:59Z</time>
      </trkpt>
      <trkpt lat="42.4839" lon="2.07258">
        <ele>1562.1</ele>
        <time>2013-08-14T08:17:01Z</time>
      </trkpt>
      <trkpt lat="42.48391" lon="2.0726">
        <ele>1562.3</ele>
        <time>2013-08-14T08:17:02Z</time>
      </trkpt>
      <trkpt lat="42.48394" lon="2.07266">
        <ele>1562.5</ele>
        <time>2013-08-14T08:17:06Z</time>
      </trkpt>
      <trkpt lat="42.48396" lon="2.0727">
        <ele>1562.5</ele>
        <time>2013-08-14T08:17:08Z</time>
      </trkpt>
      <trkpt lat="42.48398" lon="2.07274">
        <ele>1562.6</ele>
        <time>2013-08-14T08:17:11Z</time>
      </trkpt>
      <trkpt lat="42.48401" lon="2.07278">
        <ele>1562.6</ele>
        <time>2013-08-14T08:17:14Z</time>
      </trkpt>
      <trkpt lat="42.48403" lon="2.07282">
        <ele>1562.8</ele>
        <time>2013-08-14T08:17:17Z</time>
      </trkpt>
      <trkpt lat="42.48405" lon="2.07287">
        <ele>1563.1</ele>
        <time>2013-08-14T08:17:20Z</time>
      </trkpt>
      <trkpt lat="42.48406" lon="2.07292">
        <ele>1563.3</ele>
        <time>2013-08-14T08:17:23Z</time>
      </trkpt>
      <trkpt lat="42.48408" lon="2.07297">
        <ele>1563.7</ele>
        <time>2013-08-14T08:17:26Z</time>
      </trkpt>
      <trkpt lat="42.4841" lon="2.07302">
        <ele>1564.1</ele>
        <time>2013-08-14T08:17:29Z</time>
      </trkpt>
      <trkpt lat="42.48412" lon="2.07307">
        <ele>1564.3</ele>
        <time>2013-08-14T08:17:32Z</time>
      </trkpt>
      <trkpt lat="42.48414" lon="2.07311">
        <ele>1564.6</ele>
        <time>2013-08-14T08:17:35Z</time>
      </trkpt>
      <trkpt lat="42.48416" lon="2.07315">
        <ele>1564.8</ele>
        <time>2013-08-14T08:17:38Z</time>
      </trkpt>
      <trkpt lat="42.48417" lon="2.0732">
        <ele>1564.7</ele>
        <time>2013-08-14T08:17:41Z</time>
      </trkpt>
      <trkpt lat="42.48419" lon="2.07324">
        <ele>1564.9</ele>
        <time>2013-08-14T08:17:44Z</time>
      </trkpt>
      <trkpt lat="42.48422" lon="2.07328">
        <ele>1565.6</ele>
        <time>2013-08-14T08:17:47Z</time>
      </trkpt>
      <trkpt lat="42.48424" lon="2.07331">
        <ele>1565.2</ele>
        <time>2013-08-14T08:17:50Z</time>
      </trkpt>
      <trkpt lat="42.48426" lon="2.07336">
        <ele>1565.6</ele>
        <time>2013-08-14T08:17:53Z</time>
      </trkpt>
      <trkpt lat="42.48428" lon="2.0734">
        <ele>1565.4</ele>
        <time>2013-08-14T08:17:55Z</time>
      </trkpt>
      <trkpt lat="42.4843" lon="2.07344">
        <ele>1565.7</ele>
        <time>2013-08-14T08:17:58Z</time>
      </trkpt>
      <trkpt lat="42.48432" lon="2.07348">
        <ele>1565.9</ele>
        <time>2013-08-14T08:18:01Z</time>
      </trkpt>
      <trkpt lat="42.48435" lon="2.07351">
        <ele>1566</ele>
        <time>2013-08-14T08:18:04Z</time>
      </trkpt>
      <trkpt lat="42.48436" lon="2.07353">
        <ele>1566</ele>
        <time>2013-08-14T08:18:05Z</time>
      </trkpt>
      <trkpt lat="42.4844" lon="2.07361">
        <ele>1566.2</ele>
        <time>2013-08-14T08:18:11Z</time>
      </trkpt>
      <trkpt lat="42.48442" lon="2.07366">
        <ele>1567.5</ele>
        <time>2013-08-14T08:18:15Z</time>
      </trkpt>
      <trkpt lat="42.48444" lon="2.07371">
        <ele>1567.8</ele>
        <time>2013-08-14T08:18:18Z</time>
      </trkpt>
      <trkpt lat="42.48445" lon="2.07376">
        <ele>1568.1</ele>
        <time>2013-08-14T08:18:22Z</time>
      </trkpt>
      <trkpt lat="42.48447" lon="2.07382">
        <ele>1568.4</ele>
        <time>2013-08-14T08:18:26Z</time>
      </trkpt>
      <trkpt lat="42.48449" lon="2.07386">
        <ele>1568.7</ele>
        <time>2013-08-14T08:18:29Z</time>
      </trkpt>
      <trkpt lat="42.48451" lon="2.07391">
        <ele>1568.9</ele>
        <time>2013-08-14T08:18:33Z</time>
      </trkpt>
      <trkpt lat="42.48453" lon="2.07396">
        <ele>1569.5</ele>
        <time>2013-08-14T08:18:36Z</time>
      </trkpt>
      <trkpt lat="42.48454" lon="2.074">
        <ele>1570.2</ele>
        <time>2013-08-14T08:18:38Z</time>
      </trkpt>
      <trkpt lat="42.48456" lon="2.07404">
        <ele>1570</ele>
        <time>2013-08-14T08:18:41Z</time>
      </trkpt>
      <trkpt lat="42.48458" lon="2.0741">
        <ele>1570.7</ele>
        <time>2013-08-14T08:18:44Z</time>
      </trkpt>
      <trkpt lat="42.4846" lon="2.07415">
        <ele>1571.2</ele>
        <time>2013-08-14T08:18:47Z</time>
      </trkpt>
      <trkpt lat="42.48463" lon="2.07418">
        <ele>1571.6</ele>
        <time>2013-08-14T08:18:50Z</time>
      </trkpt>
      <trkpt lat="42.48467" lon="2.07422">
        <ele>1571.7</ele>
        <time>2013-08-14T08:18:54Z</time>
      </trkpt>
      <trkpt lat="42.4847" lon="2.07426">
        <ele>1571.1</ele>
        <time>2013-08-14T08:18:58Z</time>
      </trkpt>
      <trkpt lat="42.48472" lon="2.0743">
        <ele>1570.5</ele>
        <time>2013-08-14T08:19:02Z</time>
      </trkpt>
      <trkpt lat="42.48474" lon="2.07436">
        <ele>1570.3</ele>
        <time>2013-08-14T08:19:06Z</time>
      </trkpt>
      <trkpt lat="42.48475" lon="2.07437">
        <ele>1570.3</ele>
        <time>2013-08-14T08:19:07Z</time>
      </trkpt>
      <trkpt lat="42.48478" lon="2.07445">
        <ele>1571.3</ele>
        <time>2013-08-14T08:19:13Z</time>
      </trkpt>
      <trkpt lat="42.4848" lon="2.07449">
        <ele>1570.5</ele>
        <time>2013-08-14T08:19:16Z</time>
      </trkpt>
      <trkpt lat="42.48483" lon="2.07453">
        <ele>1571.4</ele>
        <time>2013-08-14T08:19:19Z</time>
      </trkpt>
      <trkpt lat="42.48484" lon="2.07458">
        <ele>1571.7</ele>
        <time>2013-08-14T08:19:22Z</time>
      </trkpt>
      <trkpt lat="42.48486" lon="2.07462">
        <ele>1571.6</ele>
        <time>2013-08-14T08:19:25Z</time>
      </trkpt>
      <trkpt lat="42.48488" lon="2.07465">
        <ele>1571.8</ele>
        <time>2013-08-14T08:19:27Z</time>
      </trkpt>
      <trkpt lat="42.48489" lon="2.07469">
        <ele>1572.1</ele>
        <time>2013-08-14T08:19:29Z</time>
      </trkpt>
      <trkpt lat="42.4849" lon="2.07473">
        <ele>1572.3</ele>
        <time>2013-08-14T08:19:31Z</time>
      </trkpt>
      <trkpt lat="42.48491" lon="2.07477">
        <ele>1572.2</ele>
        <time>2013-08-14T08:19:33Z</time>
      </trkpt>
      <trkpt lat="42.48493" lon="2.07481">
        <ele>1572.1</ele>
        <time>2013-08-14T08:19:35Z</time>
      </trkpt>
      <trkpt lat="42.48494" lon="2.07485">
        <ele>1572.1</ele>
        <time>2013-08-14T08:19:37Z</time>
      </trkpt>
      <trkpt lat="42.48495" lon="2.0749">
        <ele>1572.3</ele>
        <time>2013-08-14T08:19:39Z</time>
      </trkpt>
      <trkpt lat="42.48497" lon="2.07494">
        <ele>1572.9</ele>
        <time>2013-08-14T08:19:41Z</time>
      </trkpt>
      <trkpt lat="42.48498" lon="2.07498">
        <ele>1573</ele>
        <time>2013-08-14T08:19:43Z</time>
      </trkpt>
      <trkpt lat="42.48499" lon="2.07502">
        <ele>1572.8</ele>
        <time>2013-08-14T08:19:45Z</time>
      </trkpt>
      <trkpt lat="42.485" lon="2.07506">
        <ele>1573.1</ele>
        <time>2013-08-14T08:19:47Z</time>
      </trkpt>
      <trkpt lat="42.48503" lon="2.07511">
        <ele>1573.3</ele>
        <time>2013-08-14T08:19:50Z</time>
      </trkpt>
      <trkpt lat="42.48505" lon="2.07516">
        <ele>1574</ele>
        <time>2013-08-14T08:19:53Z</time>
      </trkpt>
      <trkpt lat="42.48506" lon="2.0752">
        <ele>1574.2</ele>
        <time>2013-08-14T08:19:56Z</time>
      </trkpt>
      <trkpt lat="42.48507" lon="2.07525">
        <ele>1574.1</ele>
        <time>2013-08-14T08:19:59Z</time>
      </trkpt>
      <trkpt lat="42.48508" lon="2.07528">
        <ele>1574.1</ele>
        <time>2013-08-14T08:20:01Z</time>
      </trkpt>
      <trkpt lat="42.4851" lon="2.07532">
        <ele>1574.5</ele>
        <time>2013-08-14T08:20:03Z</time>
      </trkpt>
      <trkpt lat="42.48512" lon="2.07537">
        <ele>1575.3</ele>
        <time>2013-08-14T08:20:06Z</time>
      </trkpt>
      <trkpt lat="42.48514" lon="2.07541">
        <ele>1575.7</ele>
        <time>2013-08-14T08:20:09Z</time>
      </trkpt>
      <trkpt lat="42.48514" lon="2.07543">
        <ele>1575.8</ele>
        <time>2013-08-14T08:20:10Z</time>
      </trkpt>
      <trkpt lat="42.48516" lon="2.07552">
        <ele>1576.3</ele>
        <time>2013-08-14T08:20:16Z</time>
      </trkpt>
      <trkpt lat="42.48518" lon="2.07556">
        <ele>1576.4</ele>
        <time>2013-08-14T08:20:19Z</time>
      </trkpt>
      <trkpt lat="42.4852" lon="2.0756">
        <ele>1576.4</ele>
        <time>2013-08-14T08:20:22Z</time>
      </trkpt>
      <trkpt lat="42.48522" lon="2.07565">
        <ele>1576.6</ele>
        <time>2013-08-14T08:20:26Z</time>
      </trkpt>
      <trkpt lat="42.48523" lon="2.07569">
        <ele>1577.2</ele>
        <time>2013-08-14T08:20:29Z</time>
      </trkpt>
      <trkpt lat="42.48523" lon="2.07575">
        <ele>1577.5</ele>
        <time>2013-08-14T08:20:32Z</time>
      </trkpt>
      <trkpt lat="42.48524" lon="2.0758">
        <ele>1577.5</ele>
        <time>2013-08-14T08:20:35Z</time>
      </trkpt>
      <trkpt lat="42.48525" lon="2.07585">
        <ele>1578</ele>
        <time>2013-08-14T08:20:40Z</time>
      </trkpt>
      <trkpt lat="42.48527" lon="2.07589">
        <ele>1578</ele>
        <time>2013-08-14T08:20:45Z</time>
      </trkpt>
      <trkpt lat="42.48524" lon="2.07586">
        <ele>1580.3</ele>
        <time>2013-08-14T08:23:32Z</time>
      </trkpt>
      <trkpt lat="42.48523" lon="2.07587">
        <ele>1580.1</ele>
        <time>2013-08-14T08:23:33Z</time>
      </trkpt>
      <trkpt lat="42.48518" lon="2.07591">
        <ele>1580.4</ele>
        <time>2013-08-14T08:23:38Z</time>
      </trkpt>
      <trkpt lat="42.48514" lon="2.07594">
        <ele>1580.5</ele>
        <time>2013-08-14T08:23:41Z</time>
      </trkpt>
      <trkpt lat="42.48511" lon="2.07597">
        <ele>1580</ele>
        <time>2013-08-14T08:23:45Z</time>
      </trkpt>
      <trkpt lat="42.48508" lon="2.07599">
        <ele>1579.5</ele>
        <time>2013-08-14T08:23:48Z</time>
      </trkpt>
      <trkpt lat="42.48505" lon="2.07602">
        <ele>1580.7</ele>
        <time>2013-08-14T08:23:51Z</time>
      </trkpt>
      <trkpt lat="42.48501" lon="2.07604">
        <ele>1580.4</ele>
        <time>2013-08-14T08:23:54Z</time>
      </trkpt>
      <trkpt lat="42.48498" lon="2.07606">
        <ele>1580.4</ele>
        <time>2013-08-14T08:23:57Z</time>
      </trkpt>
      <trkpt lat="42.48495" lon="2.07609">
        <ele>1580.9</ele>
        <time>2013-08-14T08:24:00Z</time>
      </trkpt>
      <trkpt lat="42.48492" lon="2.07611">
        <ele>1580.8</ele>
        <time>2013-08-14T08:24:03Z</time>
      </trkpt>
      <trkpt lat="42.48488" lon="2.07613">
        <ele>1580.6</ele>
        <time>2013-08-14T08:24:07Z</time>
      </trkpt>
      <trkpt lat="42.48484" lon="2.07613">
        <ele>1579.9</ele>
        <time>2013-08-14T08:24:12Z</time>
      </trkpt>
      <trkpt lat="42.4848" lon="2.07613">
        <ele>1580.4</ele>
        <time>2013-08-14T08:24:15Z</time>
      </trkpt>
      <trkpt lat="42.48476" lon="2.07613">
        <ele>1580.7</ele>
        <time>2013-08-14T08:24:19Z</time>
      </trkpt>
      <trkpt lat="42.48473" lon="2.07611">
        <ele>1580</ele>
        <time>2013-08-14T08:24:22Z</time>
      </trkpt>
      <trkpt lat="42.48469" lon="2.07609">
        <ele>1579.2</ele>
        <time>2013-08-14T08:24:25Z</time>
      </trkpt>
      <trkpt lat="42.48466" lon="2.07611">
        <ele>1579.4</ele>
        <time>2013-08-14T08:24:28Z</time>
      </trkpt>
      <trkpt lat="42.48463" lon="2.07614">
        <ele>1579.5</ele>
        <time>2013-08-14T08:24:30Z</time>
      </trkpt>
      <trkpt lat="42.4846" lon="2.07617">
        <ele>1579.7</ele>
        <time>2013-08-14T08:24:33Z</time>
      </trkpt>
      <trkpt lat="42.48458" lon="2.07617">
        <ele>1579.8</ele>
        <time>2013-08-14T08:24:34Z</time>
      </trkpt>
      <trkpt lat="42.48453" lon="2.07621">
        <ele>1580.4</ele>
        <time>2013-08-14T08:24:38Z</time>
      </trkpt>
      <trkpt lat="42.4845" lon="2.07623">
        <ele>1580.8</ele>
        <time>2013-08-14T08:24:40Z</time>
      </trkpt>
      <trkpt lat="42.48447" lon="2.07625">
        <ele>1581.1</ele>
        <time>2013-08-14T08:24:43Z</time>
      </trkpt>
      <trkpt lat="42.48443" lon="2.07627">
        <ele>1580.5</ele>
        <time>2013-08-14T08:24:46Z</time>
      </trkpt>
      <trkpt lat="42.48439" lon="2.07628">
        <ele>1579.9</ele>
        <time>2013-08-14T08:24:49Z</time>
      </trkpt>
      <trkpt lat="42.48436" lon="2.0763">
        <ele>1580.3</ele>
        <time>2013-08-14T08:24:52Z</time>
      </trkpt>
      <trkpt lat="42.48433" lon="2.07634">
        <ele>1580.7</ele>
        <time>2013-08-14T08:24:55Z</time>
      </trkpt>
      <trkpt lat="42.48429" lon="2.07637">
        <ele>1580.4</ele>
        <time>2013-08-14T08:24:58Z</time>
      </trkpt>
      <trkpt lat="42.48425" lon="2.07638">
        <ele>1579.8</ele>
        <time>2013-08-14T08:25:03Z</time>
      </trkpt>
      <trkpt lat="42.48421" lon="2.07641">
        <ele>1579.3</ele>
        <time>2013-08-14T08:25:09Z</time>
      </trkpt>
      <trkpt lat="42.48417" lon="2.07643">
        <ele>1579.1</ele>
        <time>2013-08-14T08:25:13Z</time>
      </trkpt>
      <trkpt lat="42.48414" lon="2.07646">
        <ele>1579.4</ele>
        <time>2013-08-14T08:25:16Z</time>
      </trkpt>
      <trkpt lat="42.48411" lon="2.07648">
        <ele>1578.7</ele>
        <time>2013-08-14T08:25:19Z</time>
      </trkpt>
      <trkpt lat="42.48407" lon="2.07651">
        <ele>1578.5</ele>
        <time>2013-08-14T08:25:22Z</time>
      </trkpt>
      <trkpt lat="42.48403" lon="2.07653">
        <ele>1577.8</ele>
        <time>2013-08-14T08:25:26Z</time>
      </trkpt>
      <trkpt lat="42.484" lon="2.07655">
        <ele>1577.8</ele>
        <time>2013-08-14T08:25:30Z</time>
      </trkpt>
      <trkpt lat="42.48397" lon="2.07657">
        <ele>1577.3</ele>
        <time>2013-08-14T08:25:32Z</time>
      </trkpt>
      <trkpt lat="42.48393" lon="2.07659">
        <ele>1576.9</ele>
        <time>2013-08-14T08:25:36Z</time>
      </trkpt>
      <trkpt lat="42.48392" lon="2.07659">
        <ele>1576.9</ele>
        <time>2013-08-14T08:25:37Z</time>
      </trkpt>
      <trkpt lat="42.48388" lon="2.07667">
        <ele>1576.8</ele>
        <time>2013-08-14T08:25:44Z</time>
      </trkpt>
      <trkpt lat="42.48385" lon="2.0767">
        <ele>1576.1</ele>
        <time>2013-08-14T08:25:48Z</time>
      </trkpt>
      <trkpt lat="42.48382" lon="2.07673">
        <ele>1575.6</ele>
        <time>2013-08-14T08:25:51Z</time>
      </trkpt>
      <trkpt lat="42.4838" lon="2.07677">
        <ele>1575.3</ele>
        <time>2013-08-14T08:25:54Z</time>
      </trkpt>
      <trkpt lat="42.48376" lon="2.0768">
        <ele>1575.2</ele>
        <time>2013-08-14T08:25:57Z</time>
      </trkpt>
      <trkpt lat="42.48374" lon="2.07684">
        <ele>1574.8</ele>
        <time>2013-08-14T08:26:00Z</time>
      </trkpt>
      <trkpt lat="42.48371" lon="2.07687">
        <ele>1574.7</ele>
        <time>2013-08-14T08:26:03Z</time>
      </trkpt>
      <trkpt lat="42.48368" lon="2.07691">
        <ele>1574.5</ele>
        <time>2013-08-14T08:26:06Z</time>
      </trkpt>
      <trkpt lat="42.48365" lon="2.07695">
        <ele>1574.3</ele>
        <time>2013-08-14T08:26:09Z</time>
      </trkpt>
      <trkpt lat="42.48362" lon="2.07699">
        <ele>1574.4</ele>
        <time>2013-08-14T08:26:13Z</time>
      </trkpt>
      <trkpt lat="42.48359" lon="2.07703">
        <ele>1573.8</ele>
        <time>2013-08-14T08:26:16Z</time>
      </trkpt>
      <trkpt lat="42.48356" lon="2.07706">
        <ele>1573.4</ele>
        <time>2013-08-14T08:26:19Z</time>
      </trkpt>
      <trkpt lat="42.48353" lon="2.0771">
        <ele>1573.2</ele>
        <time>2013-08-14T08:26:23Z</time>
      </trkpt>
      <trkpt lat="42.4835" lon="2.07713">
        <ele>1572.5</ele>
        <time>2013-08-14T08:26:26Z</time>
      </trkpt>
      <trkpt lat="42.48348" lon="2.07715">
        <ele>1572.4</ele>
        <time>2013-08-14T08:26:28Z</time>
      </trkpt>
      <trkpt lat="42.48345" lon="2.07719">
        <ele>1572.6</ele>
        <time>2013-08-14T08:26:31Z</time>
      </trkpt>
      <trkpt lat="42.48343" lon="2.07722">
        <ele>1572.5</ele>
        <time>2013-08-14T08:26:34Z</time>
      </trkpt>
      <trkpt lat="42.4834" lon="2.07725">
        <ele>1571.9</ele>
        <time>2013-08-14T08:26:37Z</time>
      </trkpt>
      <trkpt lat="42.48339" lon="2.07726">
        <ele>1572.1</ele>
        <time>2013-08-14T08:26:38Z</time>
      </trkpt>
      <trkpt lat="42.48334" lon="2.07732">
        <ele>1571.9</ele>
        <time>2013-08-14T08:26:45Z</time>
      </trkpt>
      <trkpt lat="42.48331" lon="2.07736">
        <ele>1571.3</ele>
        <time>2013-08-14T08:26:48Z</time>
      </trkpt>
      <trkpt lat="42.48329" lon="2.0774">
        <ele>1570.9</ele>
        <time>2013-08-14T08:26:51Z</time>
      </trkpt>
      <trkpt lat="42.48326" lon="2.07744">
        <ele>1570.9</ele>
        <time>2013-08-14T08:26:54Z</time>
      </trkpt>
      <trkpt lat="42.48324" lon="2.07747">
        <ele>1570.7</ele>
        <time>2013-08-14T08:26:56Z</time>
      </trkpt>
      <trkpt lat="42.48321" lon="2.07751">
        <ele>1570.5</ele>
        <time>2013-08-14T08:26:58Z</time>
      </trkpt>
      <trkpt lat="42.48319" lon="2.07755">
        <ele>1570.5</ele>
        <time>2013-08-14T08:27:00Z</time>
      </trkpt>
      <trkpt lat="42.48317" lon="2.07759">
        <ele>1570.5</ele>
        <time>2013-08-14T08:27:03Z</time>
      </trkpt>
      <trkpt lat="42.48316" lon="2.07764">
        <ele>1570.3</ele>
        <time>2013-08-14T08:27:06Z</time>
      </trkpt>
      <trkpt lat="42.48313" lon="2.07767">
        <ele>1570.7</ele>
        <time>2013-08-14T08:27:08Z</time>
      </trkpt>
      <trkpt lat="42.48311" lon="2.07772">
        <ele>1570.8</ele>
        <time>2013-08-14T08:27:10Z</time>
      </trkpt>
      <trkpt lat="42.48309" lon="2.07776">
        <ele>1570.8</ele>
        <time>2013-08-14T08:27:12Z</time>
      </trkpt>
      <trkpt lat="42.48306" lon="2.0778">
        <ele>1570.7</ele>
        <time>2013-08-14T08:27:14Z</time>
      </trkpt>
      <trkpt lat="42.48304" lon="2.07785">
        <ele>1570.4</ele>
        <time>2013-08-14T08:27:16Z</time>
      </trkpt>
      <trkpt lat="42.48302" lon="2.0779">
        <ele>1570.1</ele>
        <time>2013-08-14T08:27:19Z</time>
      </trkpt>
      <trkpt lat="42.48301" lon="2.07795">
        <ele>1570.3</ele>
        <time>2013-08-14T08:27:22Z</time>
      </trkpt>
      <trkpt lat="42.48299" lon="2.078">
        <ele>1570.3</ele>
        <time>2013-08-14T08:27:25Z</time>
      </trkpt>
      <trkpt lat="42.48298" lon="2.07804">
        <ele>1570.2</ele>
        <time>2013-08-14T08:27:27Z</time>
      </trkpt>
      <trkpt lat="42.48296" lon="2.07809">
        <ele>1569.9</ele>
        <time>2013-08-14T08:27:30Z</time>
      </trkpt>
      <trkpt lat="42.48295" lon="2.07813">
        <ele>1570.3</ele>
        <time>2013-08-14T08:27:33Z</time>
      </trkpt>
      <trkpt lat="42.48293" lon="2.07818">
        <ele>1570.7</ele>
        <time>2013-08-14T08:27:37Z</time>
      </trkpt>
      <trkpt lat="42.4829" lon="2.07822">
        <ele>1570.6</ele>
        <time>2013-08-14T08:27:41Z</time>
      </trkpt>
      <trkpt lat="42.4829" lon="2.07823">
        <ele>1570.6</ele>
        <time>2013-08-14T08:27:42Z</time>
      </trkpt>
      <trkpt lat="42.48285" lon="2.0783">
        <ele>1570</ele>
        <time>2013-08-14T08:27:48Z</time>
      </trkpt>
      <trkpt lat="42.48282" lon="2.07833">
        <ele>1569.7</ele>
        <time>2013-08-14T08:27:52Z</time>
      </trkpt>
      <trkpt lat="42.48279" lon="2.07837">
        <ele>1570.2</ele>
        <time>2013-08-14T08:27:55Z</time>
      </trkpt>
      <trkpt lat="42.48277" lon="2.0784">
        <ele>1570</ele>
        <time>2013-08-14T08:27:58Z</time>
      </trkpt>
      <trkpt lat="42.48273" lon="2.07842">
        <ele>1569</ele>
        <time>2013-08-14T08:28:01Z</time>
      </trkpt>
      <trkpt lat="42.4827" lon="2.07844">
        <ele>1569.1</ele>
        <time>2013-08-14T08:28:06Z</time>
      </trkpt>
      <trkpt lat="42.48266" lon="2.07847">
        <ele>1568.7</ele>
        <time>2013-08-14T08:28:10Z</time>
      </trkpt>
      <trkpt lat="42.48262" lon="2.07849">
        <ele>1568.7</ele>
        <time>2013-08-14T08:28:13Z</time>
      </trkpt>
      <trkpt lat="42.48258" lon="2.07851">
        <ele>1567.8</ele>
        <time>2013-08-14T08:28:17Z</time>
      </trkpt>
      <trkpt lat="42.48255" lon="2.07852">
        <ele>1567</ele>
        <time>2013-08-14T08:28:20Z</time>
      </trkpt>
      <trkpt lat="42.48251" lon="2.07853">
        <ele>1567.2</ele>
        <time>2013-08-14T08:28:23Z</time>
      </trkpt>
      <trkpt lat="42.48247" lon="2.07854">
        <ele>1566.7</ele>
        <time>2013-08-14T08:28:26Z</time>
      </trkpt>
      <trkpt lat="42.48244" lon="2.07853">
        <ele>1566.7</ele>
        <time>2013-08-14T08:28:29Z</time>
      </trkpt>
      <trkpt lat="42.4824" lon="2.07855">
        <ele>1567.2</ele>
        <time>2013-08-14T08:28:32Z</time>
      </trkpt>
      <trkpt lat="42.48237" lon="2.07858">
        <ele>1566.5</ele>
        <time>2013-08-14T08:28:35Z</time>
      </trkpt>
      <trkpt lat="42.48234" lon="2.07861">
        <ele>1565.9</ele>
        <time>2013-08-14T08:28:38Z</time>
      </trkpt>
      <trkpt lat="42.48231" lon="2.07864">
        <ele>1566.8</ele>
        <time>2013-08-14T08:28:40Z</time>
      </trkpt>
      <trkpt lat="42.48227" lon="2.07866">
        <ele>1566.7</ele>
        <time>2013-08-14T08:28:43Z</time>
      </trkpt>
      <trkpt lat="42.48226" lon="2.07867">
        <ele>1566.6</ele>
        <time>2013-08-14T08:28:44Z</time>
      </trkpt>
      <trkpt lat="42.4822" lon="2.07872">
        <ele>1566.6</ele>
        <time>2013-08-14T08:28:50Z</time>
      </trkpt>
      <trkpt lat="42.48216" lon="2.07875">
        <ele>1566.4</ele>
        <time>2013-08-14T08:28:53Z</time>
      </trkpt>
      <trkpt lat="42.48213" lon="2.07878">
        <ele>1566</ele>
        <time>2013-08-14T08:28:56Z</time>
      </trkpt>
      <trkpt lat="42.48209" lon="2.07881">
        <ele>1565.2</ele>
        <time>2013-08-14T08:29:00Z</time>
      </trkpt>
      <trkpt lat="42.48206" lon="2.07883">
        <ele>1566</ele>
        <time>2013-08-14T08:29:03Z</time>
      </trkpt>
      <trkpt lat="42.48202" lon="2.07886">
        <ele>1565.8</ele>
        <time>2013-08-14T08:29:05Z</time>
      </trkpt>
      <trkpt lat="42.482" lon="2.07889">
        <ele>1565.4</ele>
        <time>2013-08-14T08:29:07Z</time>
      </trkpt>
      <trkpt lat="42.48197" lon="2.07893">
        <ele>1565.4</ele>
        <time>2013-08-14T08:29:10Z</time>
      </trkpt>
      <trkpt lat="42.48195" lon="2.07896">
        <ele>1565.9</ele>
        <time>2013-08-14T08:29:12Z</time>
      </trkpt>
      <trkpt lat="42.48193" lon="2.079">
        <ele>1565.9</ele>
        <time>2013-08-14T08:29:14Z</time>
      </trkpt>
      <trkpt lat="42.48191" lon="2.07905">
        <ele>1565.5</ele>
        <time>2013-08-14T08:29:17Z</time>
      </trkpt>
      <trkpt lat="42.48189" lon="2.07908">
        <ele>1565.3</ele>
        <time>2013-08-14T08:29:19Z</time>
      </trkpt>
      <trkpt lat="42.48187" lon="2.07912">
        <ele>1565</ele>
        <time>2013-08-14T08:29:21Z</time>
      </trkpt>
      <trkpt lat="42.48185" lon="2.07916">
        <ele>1564.6</ele>
        <time>2013-08-14T08:29:23Z</time>
      </trkpt>
      <trkpt lat="42.48182" lon="2.07919">
        <ele>1564.2</ele>
        <time>2013-08-14T08:29:26Z</time>
      </trkpt>
      <trkpt lat="42.48179" lon="2.07922">
        <ele>1564.1</ele>
        <time>2013-08-14T08:29:29Z</time>
      </trkpt>
      <trkpt lat="42.48175" lon="2.07923">
        <ele>1563.8</ele>
        <time>2013-08-14T08:29:32Z</time>
      </trkpt>
      <trkpt lat="42.48171" lon="2.07922">
        <ele>1564.2</ele>
        <time>2013-08-14T08:29:35Z</time>
      </trkpt>
      <trkpt lat="42.48167" lon="2.07921">
        <ele>1563.9</ele>
        <time>2013-08-14T08:29:38Z</time>
      </trkpt>
      <trkpt lat="42.48163" lon="2.07922">
        <ele>1563.9</ele>
        <time>2013-08-14T08:29:43Z</time>
      </trkpt>
      <trkpt lat="42.48158" lon="2.07922">
        <ele>1563.9</ele>
        <time>2013-08-14T08:29:48Z</time>
      </trkpt>
      <trkpt lat="42.48157" lon="2.07922">
        <ele>1564.2</ele>
        <time>2013-08-14T08:29:49Z</time>
      </trkpt>
      <trkpt lat="42.48151" lon="2.07918">
        <ele>1564.8</ele>
        <time>2013-08-14T08:29:56Z</time>
      </trkpt>
      <trkpt lat="42.48147" lon="2.07916">
        <ele>1565.5</ele>
        <time>2013-08-14T08:30:00Z</time>
      </trkpt>
      <trkpt lat="42.48143" lon="2.07915">
        <ele>1566.7</ele>
        <time>2013-08-14T08:30:05Z</time>
      </trkpt>
      <trkpt lat="42.4814" lon="2.07913">
        <ele>1567.1</ele>
        <time>2013-08-14T08:30:09Z</time>
      </trkpt>
      <trkpt lat="42.48135" lon="2.07912">
        <ele>1567.7</ele>
        <time>2013-08-14T08:30:12Z</time>
      </trkpt>
      <trkpt lat="42.48131" lon="2.07912">
        <ele>1568.4</ele>
        <time>2013-08-14T08:30:16Z</time>
      </trkpt>
      <trkpt lat="42.48128" lon="2.07911">
        <ele>1568.8</ele>
        <time>2013-08-14T08:30:19Z</time>
      </trkpt>
      <trkpt lat="42.48124" lon="2.0791">
        <ele>1569.4</ele>
        <time>2013-08-14T08:30:23Z</time>
      </trkpt>
      <trkpt lat="42.4812" lon="2.07908">
        <ele>1570</ele>
        <time>2013-08-14T08:30:26Z</time>
      </trkpt>
      <trkpt lat="42.48117" lon="2.07907">
        <ele>1570</ele>
        <time>2013-08-14T08:30:29Z</time>
      </trkpt>
      <trkpt lat="42.48112" lon="2.07905">
        <ele>1569.7</ele>
        <time>2013-08-14T08:30:33Z</time>
      </trkpt>
      <trkpt lat="42.48109" lon="2.07903">
        <ele>1569.8</ele>
        <time>2013-08-14T08:30:36Z</time>
      </trkpt>
      <trkpt lat="42.48106" lon="2.07901">
        <ele>1570.4</ele>
        <time>2013-08-14T08:30:39Z</time>
      </trkpt>
      <trkpt lat="42.48101" lon="2.07899">
        <ele>1570.8</ele>
        <time>2013-08-14T08:30:47Z</time>
      </trkpt>
      <trkpt lat="42.48102" lon="2.07905">
        <ele>1570.7</ele>
        <time>2013-08-14T08:30:53Z</time>
      </trkpt>
      <trkpt lat="42.48103" lon="2.07907">
        <ele>1570.6</ele>
        <time>2013-08-14T08:30:54Z</time>
      </trkpt>
      <trkpt lat="42.48106" lon="2.07914">
        <ele>1570.5</ele>
        <time>2013-08-14T08:30:58Z</time>
      </trkpt>
      <trkpt lat="42.48108" lon="2.07919">
        <ele>1571.6</ele>
        <time>2013-08-14T08:31:01Z</time>
      </trkpt>
      <trkpt lat="42.48109" lon="2.07923">
        <ele>1572.1</ele>
        <time>2013-08-14T08:31:03Z</time>
      </trkpt>
      <trkpt lat="42.48109" lon="2.07928">
        <ele>1572.3</ele>
        <time>2013-08-14T08:31:06Z</time>
      </trkpt>
      <trkpt lat="42.4811" lon="2.07933">
        <ele>1571.9</ele>
        <time>2013-08-14T08:31:09Z</time>
      </trkpt>
      <trkpt lat="42.4811" lon="2.07939">
        <ele>1571.5</ele>
        <time>2013-08-14T08:31:12Z</time>
      </trkpt>
      <trkpt lat="42.48111" lon="2.07945">
        <ele>1572</ele>
        <time>2013-08-14T08:31:16Z</time>
      </trkpt>
      <trkpt lat="42.48107" lon="2.07948">
        <ele>1573.7</ele>
        <time>2013-08-14T08:31:57Z</time>
      </trkpt>
      <trkpt lat="42.48107" lon="2.07949">
        <ele>1573.7</ele>
        <time>2013-08-14T08:31:58Z</time>
      </trkpt>
      <trkpt lat="42.48109" lon="2.07948">
        <ele>1574.5</ele>
        <time>2013-08-14T08:32:32Z</time>
      </trkpt>
      <trkpt lat="42.48108" lon="2.07944">
        <ele>1573.7</ele>
        <time>2013-08-14T08:32:35Z</time>
      </trkpt>
      <trkpt lat="42.48107" lon="2.07939">
        <ele>1572.9</ele>
        <time>2013-08-14T08:32:38Z</time>
      </trkpt>
      <trkpt lat="42.48106" lon="2.07933">
        <ele>1573.1</ele>
        <time>2013-08-14T08:32:42Z</time>
      </trkpt>
      <trkpt lat="42.48105" lon="2.07928">
        <ele>1573.1</ele>
        <time>2013-08-14T08:32:45Z</time>
      </trkpt>
      <trkpt lat="42.48104" lon="2.07924">
        <ele>1572.8</ele>
        <time>2013-08-14T08:32:47Z</time>
      </trkpt>
      <trkpt lat="42.48102" lon="2.07919">
        <ele>1572.4</ele>
        <time>2013-08-14T08:32:49Z</time>
      </trkpt>
      <trkpt lat="42.48101" lon="2.07916">
        <ele>1572</ele>
        <time>2013-08-14T08:32:51Z</time>
      </trkpt>
      <trkpt lat="42.481" lon="2.07911">
        <ele>1571.6</ele>
        <time>2013-08-14T08:32:53Z</time>
      </trkpt>
      <trkpt lat="42.48099" lon="2.07906">
        <ele>1571.6</ele>
        <time>2013-08-14T08:32:56Z</time>
      </trkpt>
      <trkpt lat="42.48096" lon="2.07903">
        <ele>1571.1</ele>
        <time>2013-08-14T08:33:00Z</time>
      </trkpt>
      <trkpt lat="42.48095" lon="2.07902">
        <ele>1571.1</ele>
        <time>2013-08-14T08:33:01Z</time>
      </trkpt>
      <trkpt lat="42.48089" lon="2.07899">
        <ele>1571.6</ele>
        <time>2013-08-14T08:33:05Z</time>
      </trkpt>
      <trkpt lat="42.48086" lon="2.07896">
        <ele>1571.6</ele>
        <time>2013-08-14T08:33:07Z</time>
      </trkpt>
      <trkpt lat="42.48083" lon="2.07893">
        <ele>1571.7</ele>
        <time>2013-08-14T08:33:10Z</time>
      </trkpt>
      <trkpt lat="42.48079" lon="2.07889">
        <ele>1572.2</ele>
        <time>2013-08-14T08:33:13Z</time>
      </trkpt>
      <trkpt lat="42.48075" lon="2.07887">
        <ele>1571.9</ele>
        <time>2013-08-14T08:33:16Z</time>
      </trkpt>
      <trkpt lat="42.48071" lon="2.07886">
        <ele>1572</ele>
        <time>2013-08-14T08:33:19Z</time>
      </trkpt>
      <trkpt lat="42.48068" lon="2.07883">
        <ele>1572.1</ele>
        <time>2013-08-14T08:33:22Z</time>
      </trkpt>
      <trkpt lat="42.48065" lon="2.07881">
        <ele>1572.3</ele>
        <time>2013-08-14T08:33:25Z</time>
      </trkpt>
      <trkpt lat="42.48061" lon="2.07878">
        <ele>1572</ele>
        <time>2013-08-14T08:33:28Z</time>
      </trkpt>
      <trkpt lat="42.48058" lon="2.07877">
        <ele>1572.3</ele>
        <time>2013-08-14T08:33:30Z</time>
      </trkpt>
      <trkpt lat="42.48054" lon="2.07874">
        <ele>1572.5</ele>
        <time>2013-08-14T08:33:33Z</time>
      </trkpt>
      <trkpt lat="42.48052" lon="2.07871">
        <ele>1572.6</ele>
        <time>2013-08-14T08:33:35Z</time>
      </trkpt>
      <trkpt lat="42.48049" lon="2.07867">
        <ele>1572.8</ele>
        <time>2013-08-14T08:33:38Z</time>
      </trkpt>
      <trkpt lat="42.48046" lon="2.07863">
        <ele>1572.7</ele>
        <time>2013-08-14T08:33:41Z</time>
      </trkpt>
      <trkpt lat="42.48043" lon="2.07859">
        <ele>1571.9</ele>
        <time>2013-08-14T08:33:44Z</time>
      </trkpt>
      <trkpt lat="42.48041" lon="2.07856">
        <ele>1572.4</ele>
        <time>2013-08-14T08:33:46Z</time>
      </trkpt>
      <trkpt lat="42.48039" lon="2.07852">
        <ele>1572.7</ele>
        <time>2013-08-14T08:33:48Z</time>
      </trkpt>
      <trkpt lat="42.48037" lon="2.07847">
        <ele>1572.2</ele>
        <time>2013-08-14T08:33:51Z</time>
      </trkpt>
      <trkpt lat="42.48036" lon="2.07844">
        <ele>1573.3</ele>
        <time>2013-08-14T08:33:53Z</time>
      </trkpt>
      <trkpt lat="42.48032" lon="2.0784">
        <ele>1573.5</ele>
        <time>2013-08-14T08:33:56Z</time>
      </trkpt>
      <trkpt lat="42.4803" lon="2.07836">
        <ele>1573.4</ele>
        <time>2013-08-14T08:33:59Z</time>
      </trkpt>
      <trkpt lat="42.48028" lon="2.07833">
        <ele>1573.1</ele>
        <time>2013-08-14T08:34:01Z</time>
      </trkpt>
      <trkpt lat="42.48026" lon="2.07831">
        <ele>1572.9</ele>
        <time>2013-08-14T08:34:02Z</time>
      </trkpt>
      <trkpt lat="42.48023" lon="2.07825">
        <ele>1572.9</ele>
        <time>2013-08-14T08:34:06Z</time>
      </trkpt>
      <trkpt lat="42.48021" lon="2.07821">
        <ele>1572.6</ele>
        <time>2013-08-14T08:34:09Z</time>
      </trkpt>
      <trkpt lat="42.48019" lon="2.07816">
        <ele>1572.3</ele>
        <time>2013-08-14T08:34:13Z</time>
      </trkpt>
      <trkpt lat="42.48015" lon="2.07813">
        <ele>1572.9</ele>
        <time>2013-08-14T08:34:18Z</time>
      </trkpt>
      <trkpt lat="42.48013" lon="2.07809">
        <ele>1572.7</ele>
        <time>2013-08-14T08:34:21Z</time>
      </trkpt>
      <trkpt lat="42.48009" lon="2.07807">
        <ele>1572</ele>
        <time>2013-08-14T08:34:24Z</time>
      </trkpt>
      <trkpt lat="42.48006" lon="2.07804">
        <ele>1571.7</ele>
        <time>2013-08-14T08:34:27Z</time>
      </trkpt>
      <trkpt lat="42.48003" lon="2.078">
        <ele>1571.4</ele>
        <time>2013-08-14T08:34:30Z</time>
      </trkpt>
      <trkpt lat="42.48002" lon="2.07796">
        <ele>1571.2</ele>
        <time>2013-08-14T08:34:33Z</time>
      </trkpt>
      <trkpt lat="42.47999" lon="2.07792">
        <ele>1571.2</ele>
        <time>2013-08-14T08:34:37Z</time>
      </trkpt>
      <trkpt lat="42.47997" lon="2.07788">
        <ele>1570.8</ele>
        <time>2013-08-14T08:34:40Z</time>
      </trkpt>
      <trkpt lat="42.47995" lon="2.07783">
        <ele>1570.2</ele>
        <time>2013-08-14T08:34:43Z</time>
      </trkpt>
      <trkpt lat="42.47993" lon="2.0778">
        <ele>1569.9</ele>
        <time>2013-08-14T08:34:45Z</time>
      </trkpt>
      <trkpt lat="42.47991" lon="2.07777">
        <ele>1569.7</ele>
        <time>2013-08-14T08:34:48Z</time>
      </trkpt>
      <trkpt lat="42.47989" lon="2.07772">
        <ele>1570.1</ele>
        <time>2013-08-14T08:34:51Z</time>
      </trkpt>
      <trkpt lat="42.47985" lon="2.07769">
        <ele>1569.1</ele>
        <time>2013-08-14T08:34:54Z</time>
      </trkpt>
      <trkpt lat="42.47981" lon="2.07769">
        <ele>1568.6</ele>
        <time>2013-08-14T08:34:56Z</time>
      </trkpt>
      <trkpt lat="42.47977" lon="2.07771">
        <ele>1568.1</ele>
        <time>2013-08-14T08:34:58Z</time>
      </trkpt>
      <trkpt lat="42.47974" lon="2.07772">
        <ele>1568.4</ele>
        <time>2013-08-14T08:35:00Z</time>
      </trkpt>
      <trkpt lat="42.47971" lon="2.07774">
        <ele>1569</ele>
        <time>2013-08-14T08:35:03Z</time>
      </trkpt>
      <trkpt lat="42.4797" lon="2.07774">
        <ele>1569.2</ele>
        <time>2013-08-14T08:35:04Z</time>
      </trkpt>
      <trkpt lat="42.47964" lon="2.07774">
        <ele>1568.8</ele>
        <time>2013-08-14T08:35:09Z</time>
      </trkpt>
      <trkpt lat="42.47959" lon="2.07774">
        <ele>1568.5</ele>
        <time>2013-08-14T08:35:12Z</time>
      </trkpt>
      <trkpt lat="42.47955" lon="2.07774">
        <ele>1568.4</ele>
        <time>2013-08-14T08:35:15Z</time>
      </trkpt>
      <trkpt lat="42.47952" lon="2.07775">
        <ele>1568.2</ele>
        <time>2013-08-14T08:35:18Z</time>
      </trkpt>
      <trkpt lat="42.47947" lon="2.07776">
        <ele>1568.2</ele>
        <time>2013-08-14T08:35:21Z</time>
      </trkpt>
      <trkpt lat="42.47944" lon="2.07777">
        <ele>1567.9</ele>
        <time>2013-08-14T08:35:24Z</time>
      </trkpt>
      <trkpt lat="42.47939" lon="2.07777">
        <ele>1567.2</ele>
        <time>2013-08-14T08:35:27Z</time>
      </trkpt>
      <trkpt lat="42.47936" lon="2.07779">
        <ele>1567.6</ele>
        <time>2013-08-14T08:35:31Z</time>
      </trkpt>
      <trkpt lat="42.47932" lon="2.07781">
        <ele>1567.8</ele>
        <time>2013-08-14T08:35:34Z</time>
      </trkpt>
      <trkpt lat="42.47928" lon="2.07783">
        <ele>1568.1</ele>
        <time>2013-08-14T08:35:36Z</time>
      </trkpt>
      <trkpt lat="42.47925" lon="2.07784">
        <ele>1568.3</ele>
        <time>2013-08-14T08:35:38Z</time>
      </trkpt>
      <trkpt lat="42.47922" lon="2.07786">
        <ele>1568.3</ele>
        <time>2013-08-14T08:35:40Z</time>
      </trkpt>
      <trkpt lat="42.47919" lon="2.07789">
        <ele>1568.2</ele>
        <time>2013-08-14T08:35:43Z</time>
      </trkpt>
      <trkpt lat="42.47915" lon="2.07791">
        <ele>1568.6</ele>
        <time>2013-08-14T08:35:46Z</time>
      </trkpt>
      <trkpt lat="42.47911" lon="2.07794">
        <ele>1569</ele>
        <time>2013-08-14T08:35:49Z</time>
      </trkpt>
      <trkpt lat="42.47909" lon="2.07796">
        <ele>1569.4</ele>
        <time>2013-08-14T08:35:51Z</time>
      </trkpt>
      <trkpt lat="42.47905" lon="2.07797">
        <ele>1569.9</ele>
        <time>2013-08-14T08:35:54Z</time>
      </trkpt>
      <trkpt lat="42.47901" lon="2.07799">
        <ele>1570.3</ele>
        <time>2013-08-14T08:35:57Z</time>
      </trkpt>
      <trkpt lat="42.47898" lon="2.078">
        <ele>1570.4</ele>
        <time>2013-08-14T08:36:00Z</time>
      </trkpt>
      <trkpt lat="42.47894" lon="2.07799">
        <ele>1570.1</ele>
        <time>2013-08-14T08:36:04Z</time>
      </trkpt>
      <trkpt lat="42.47893" lon="2.078">
        <ele>1570.1</ele>
        <time>2013-08-14T08:36:05Z</time>
      </trkpt>
      <trkpt lat="42.47887" lon="2.07803">
        <ele>1570.6</ele>
        <time>2013-08-14T08:36:10Z</time>
      </trkpt>
      <trkpt lat="42.47883" lon="2.07804">
        <ele>1571.3</ele>
        <time>2013-08-14T08:36:13Z</time>
      </trkpt>
      <trkpt lat="42.4788" lon="2.07806">
        <ele>1571.1</ele>
        <time>2013-08-14T08:36:16Z</time>
      </trkpt>
      <trkpt lat="42.47877" lon="2.07809">
        <ele>1570.9</ele>
        <time>2013-08-14T08:36:18Z</time>
      </trkpt>
      <trkpt lat="42.47874" lon="2.07811">
        <ele>1570.1</ele>
        <time>2013-08-14T08:36:20Z</time>
      </trkpt>
      <trkpt lat="42.47871" lon="2.07813">
        <ele>1570.4</ele>
        <time>2013-08-14T08:36:22Z</time>
      </trkpt>
      <trkpt lat="42.47868" lon="2.07815">
        <ele>1570.9</ele>
        <time>2013-08-14T08:36:24Z</time>
      </trkpt>
      <trkpt lat="42.47865" lon="2.07817">
        <ele>1571.5</ele>
        <time>2013-08-14T08:36:26Z</time>
      </trkpt>
      <trkpt lat="42.47862" lon="2.07818">
        <ele>1571.2</ele>
        <time>2013-08-14T08:36:28Z</time>
      </trkpt>
      <trkpt lat="42.47859" lon="2.0782">
        <ele>1570.7</ele>
        <time>2013-08-14T08:36:30Z</time>
      </trkpt>
      <trkpt lat="42.47857" lon="2.07822">
        <ele>1570.3</ele>
        <time>2013-08-14T08:36:32Z</time>
      </trkpt>
      <trkpt lat="42.47854" lon="2.07824">
        <ele>1570.1</ele>
        <time>2013-08-14T08:36:34Z</time>
      </trkpt>
      <trkpt lat="42.4785" lon="2.07827">
        <ele>1571</ele>
        <time>2013-08-14T08:36:37Z</time>
      </trkpt>
      <trkpt lat="42.47847" lon="2.07829">
        <ele>1570.8</ele>
        <time>2013-08-14T08:36:40Z</time>
      </trkpt>
      <trkpt lat="42.47843" lon="2.07831">
        <ele>1571.1</ele>
        <time>2013-08-14T08:36:43Z</time>
      </trkpt>
      <trkpt lat="42.47839" lon="2.07832">
        <ele>1571.7</ele>
        <time>2013-08-14T08:36:47Z</time>
      </trkpt>
      <trkpt lat="42.47835" lon="2.07834">
        <ele>1571.7</ele>
        <time>2013-08-14T08:36:53Z</time>
      </trkpt>
      <trkpt lat="42.47833" lon="2.07837">
        <ele>1570.7</ele>
        <time>2013-08-14T08:36:57Z</time>
      </trkpt>
      <trkpt lat="42.47832" lon="2.07842">
        <ele>1570.5</ele>
        <time>2013-08-14T08:36:59Z</time>
      </trkpt>
      <trkpt lat="42.47833" lon="2.07846">
        <ele>1570.3</ele>
        <time>2013-08-14T08:37:02Z</time>
      </trkpt>
      <trkpt lat="42.47832" lon="2.07851">
        <ele>1570</ele>
        <time>2013-08-14T08:37:05Z</time>
      </trkpt>
      <trkpt lat="42.47832" lon="2.07852">
        <ele>1570.1</ele>
        <time>2013-08-14T08:37:06Z</time>
      </trkpt>
      <trkpt lat="42.4783" lon="2.07861">
        <ele>1570.5</ele>
        <time>2013-08-14T08:37:11Z</time>
      </trkpt>
      <trkpt lat="42.47831" lon="2.07866">
        <ele>1570.1</ele>
        <time>2013-08-14T08:37:13Z</time>
      </trkpt>
      <trkpt lat="42.47831" lon="2.07871">
        <ele>1569.4</ele>
        <time>2013-08-14T08:37:15Z</time>
      </trkpt>
      <trkpt lat="42.47832" lon="2.07876">
        <ele>1569.5</ele>
        <time>2013-08-14T08:37:17Z</time>
      </trkpt>
      <trkpt lat="42.47831" lon="2.07881">
        <ele>1569.4</ele>
        <time>2013-08-14T08:37:20Z</time>
      </trkpt>
      <trkpt lat="42.4783" lon="2.07885">
        <ele>1569</ele>
        <time>2013-08-14T08:37:22Z</time>
      </trkpt>
      <trkpt lat="42.47829" lon="2.07889">
        <ele>1568.5</ele>
        <time>2013-08-14T08:37:25Z</time>
      </trkpt>
      <trkpt lat="42.47828" lon="2.07895">
        <ele>1568.9</ele>
        <time>2013-08-14T08:37:28Z</time>
      </trkpt>
      <trkpt lat="42.47828" lon="2.079">
        <ele>1569</ele>
        <time>2013-08-14T08:37:31Z</time>
      </trkpt>
      <trkpt lat="42.47827" lon="2.07904">
        <ele>1569.2</ele>
        <time>2013-08-14T08:37:33Z</time>
      </trkpt>
      <trkpt lat="42.47825" lon="2.07909">
        <ele>1568.6</ele>
        <time>2013-08-14T08:37:36Z</time>
      </trkpt>
      <trkpt lat="42.47824" lon="2.07915">
        <ele>1568.4</ele>
        <time>2013-08-14T08:37:39Z</time>
      </trkpt>
      <trkpt lat="42.47823" lon="2.07919">
        <ele>1568.2</ele>
        <time>2013-08-14T08:37:42Z</time>
      </trkpt>
      <trkpt lat="42.47823" lon="2.07925">
        <ele>1568</ele>
        <time>2013-08-14T08:37:46Z</time>
      </trkpt>
      <trkpt lat="42.47822" lon="2.0793">
        <ele>1568.6</ele>
        <time>2013-08-14T08:37:50Z</time>
      </trkpt>
      <trkpt lat="42.47822" lon="2.07936">
        <ele>1567.7</ele>
        <time>2013-08-14T08:37:56Z</time>
      </trkpt>
      <trkpt lat="42.47822" lon="2.07942">
        <ele>1567.9</ele>
        <time>2013-08-14T08:37:59Z</time>
      </trkpt>
      <trkpt lat="42.47818" lon="2.07944">
        <ele>1567.3</ele>
        <time>2013-08-14T08:38:04Z</time>
      </trkpt>
      <trkpt lat="42.47815" lon="2.07945">
        <ele>1567.1</ele>
        <time>2013-08-14T08:38:08Z</time>
      </trkpt>
      <trkpt lat="42.47814" lon="2.07945">
        <ele>1567.2</ele>
        <time>2013-08-14T08:38:09Z</time>
      </trkpt>
      <trkpt lat="42.47807" lon="2.07941">
        <ele>1566.7</ele>
        <time>2013-08-14T08:39:11Z</time>
      </trkpt>
      <trkpt lat="42.47807" lon="2.07941">
        <ele>1566.7</ele>
        <time>2013-08-14T08:39:12Z</time>
      </trkpt>
      <trkpt lat="42.47804" lon="2.07931">
        <ele>1567</ele>
        <time>2013-08-14T08:39:32Z</time>
      </trkpt>
      <trkpt lat="42.47802" lon="2.07927">
        <ele>1566.9</ele>
        <time>2013-08-14T08:39:36Z</time>
      </trkpt>
      <trkpt lat="42.47801" lon="2.07923">
        <ele>1567.6</ele>
        <time>2013-08-14T08:39:39Z</time>
      </trkpt>
      <trkpt lat="42.478" lon="2.07918">
        <ele>1566.6</ele>
        <time>2013-08-14T08:39:43Z</time>
      </trkpt>
      <trkpt lat="42.47798" lon="2.07913">
        <ele>1566.1</ele>
        <time>2013-08-14T08:39:47Z</time>
      </trkpt>
      <trkpt lat="42.47796" lon="2.0791">
        <ele>1566.2</ele>
        <time>2013-08-14T08:39:50Z</time>
      </trkpt>
      <trkpt lat="42.47794" lon="2.07906">
        <ele>1566.2</ele>
        <time>2013-08-14T08:39:53Z</time>
      </trkpt>
      <trkpt lat="42.47792" lon="2.079">
        <ele>1566.4</ele>
        <time>2013-08-14T08:39:57Z</time>
      </trkpt>
      <trkpt lat="42.47791" lon="2.07897">
        <ele>1566.4</ele>
        <time>2013-08-14T08:39:59Z</time>
      </trkpt>
      <trkpt lat="42.47789" lon="2.07893">
        <ele>1566.2</ele>
        <time>2013-08-14T08:40:01Z</time>
      </trkpt>
      <trkpt lat="42.47785" lon="2.0789">
        <ele>1567</ele>
        <time>2013-08-14T08:40:04Z</time>
      </trkpt>
      <trkpt lat="42.47782" lon="2.07887">
        <ele>1566</ele>
        <time>2013-08-14T08:40:07Z</time>
      </trkpt>
      <trkpt lat="42.47779" lon="2.07884">
        <ele>1565.8</ele>
        <time>2013-08-14T08:40:10Z</time>
      </trkpt>
      <trkpt lat="42.47776" lon="2.0788">
        <ele>1565.8</ele>
        <time>2013-08-14T08:40:13Z</time>
      </trkpt>
      <trkpt lat="42.47776" lon="2.07879">
        <ele>1565.8</ele>
        <time>2013-08-14T08:40:14Z</time>
      </trkpt>
      <trkpt lat="42.47771" lon="2.07873">
        <ele>1565.6</ele>
        <time>2013-08-14T08:40:18Z</time>
      </trkpt>
      <trkpt lat="42.47767" lon="2.07871">
        <ele>1565.6</ele>
        <time>2013-08-14T08:40:20Z</time>
      </trkpt>
      <trkpt lat="42.47764" lon="2.07871">
        <ele>1565.7</ele>
        <time>2013-08-14T08:40:22Z</time>
      </trkpt>
      <trkpt lat="42.4776" lon="2.0787">
        <ele>1566.1</ele>
        <time>2013-08-14T08:40:25Z</time>
      </trkpt>
      <trkpt lat="42.47756" lon="2.07871">
        <ele>1566.1</ele>
        <time>2013-08-14T08:40:28Z</time>
      </trkpt>
      <trkpt lat="42.47752" lon="2.07873">
        <ele>1565.9</ele>
        <time>2013-08-14T08:40:31Z</time>
      </trkpt>
      <trkpt lat="42.47749" lon="2.07875">
        <ele>1566.3</ele>
        <time>2013-08-14T08:40:34Z</time>
      </trkpt>
      <trkpt lat="42.47746" lon="2.07877">
        <ele>1566.5</ele>
        <time>2013-08-14T08:40:37Z</time>
      </trkpt>
      <trkpt lat="42.47742" lon="2.07878">
        <ele>1566.4</ele>
        <time>2013-08-14T08:40:39Z</time>
      </trkpt>
      <trkpt lat="42.4774" lon="2.0788">
        <ele>1566.4</ele>
        <time>2013-08-14T08:40:41Z</time>
      </trkpt>
      <trkpt lat="42.47737" lon="2.07882">
        <ele>1566.4</ele>
        <time>2013-08-14T08:40:43Z</time>
      </trkpt>
      <trkpt lat="42.47734" lon="2.07884">
        <ele>1566.8</ele>
        <time>2013-08-14T08:40:45Z</time>
      </trkpt>
      <trkpt lat="42.4773" lon="2.07885">
        <ele>1566.6</ele>
        <time>2013-08-14T08:40:48Z</time>
      </trkpt>
      <trkpt lat="42.47727" lon="2.07886">
        <ele>1566.8</ele>
        <time>2013-08-14T08:40:50Z</time>
      </trkpt>
      <trkpt lat="42.47723" lon="2.07888">
        <ele>1567.1</ele>
        <time>2013-08-14T08:40:53Z</time>
      </trkpt>
      <trkpt lat="42.4772" lon="2.07891">
        <ele>1567.1</ele>
        <time>2013-08-14T08:40:55Z</time>
      </trkpt>
      <trkpt lat="42.47717" lon="2.07892">
        <ele>1566.9</ele>
        <time>2013-08-14T08:40:57Z</time>
      </trkpt>
      <trkpt lat="42.47713" lon="2.07894">
        <ele>1566.9</ele>
        <time>2013-08-14T08:41:00Z</time>
      </trkpt>
      <trkpt lat="42.47709" lon="2.07895">
        <ele>1566.7</ele>
        <time>2013-08-14T08:41:03Z</time>
      </trkpt>
      <trkpt lat="42.47705" lon="2.07896">
        <ele>1566.3</ele>
        <time>2013-08-14T08:41:05Z</time>
      </trkpt>
      <trkpt lat="42.47702" lon="2.07897">
        <ele>1566.3</ele>
        <time>2013-08-14T08:41:07Z</time>
      </trkpt>
      <trkpt lat="42.47699" lon="2.07898">
        <ele>1566.4</ele>
        <time>2013-08-14T08:41:09Z</time>
      </trkpt>
      <trkpt lat="42.47695" lon="2.07899">
        <ele>1566.6</ele>
        <time>2013-08-14T08:41:11Z</time>
      </trkpt>
      <trkpt lat="42.47692" lon="2.079">
        <ele>1567.2</ele>
        <time>2013-08-14T08:41:13Z</time>
      </trkpt>
      <trkpt lat="42.47688" lon="2.079">
        <ele>1567.6</ele>
        <time>2013-08-14T08:41:15Z</time>
      </trkpt>
      <trkpt lat="42.47687" lon="2.07901">
        <ele>1567.6</ele>
        <time>2013-08-14T08:41:16Z</time>
      </trkpt>
      <trkpt lat="42.4768" lon="2.07902">
        <ele>1568.6</ele>
        <time>2013-08-14T08:41:21Z</time>
      </trkpt>
      <trkpt lat="42.47676" lon="2.07903">
        <ele>1568</ele>
        <time>2013-08-14T08:41:25Z</time>
      </trkpt>
      <trkpt lat="42.47673" lon="2.07905">
        <ele>1568.6</ele>
        <time>2013-08-14T08:41:29Z</time>
      </trkpt>
      <trkpt lat="42.4767" lon="2.07906">
        <ele>1568.9</ele>
        <time>2013-08-14T08:41:31Z</time>
      </trkpt>
      <trkpt lat="42.47666" lon="2.07907">
        <ele>1569</ele>
        <time>2013-08-14T08:41:34Z</time>
      </trkpt>
      <trkpt lat="42.47663" lon="2.07908">
        <ele>1569.3</ele>
        <time>2013-08-14T08:41:37Z</time>
      </trkpt>
      <trkpt lat="42.47658" lon="2.07908">
        <ele>1569.3</ele>
        <time>2013-08-14T08:41:40Z</time>
      </trkpt>
      <trkpt lat="42.47654" lon="2.07908">
        <ele>1569.9</ele>
        <time>2013-08-14T08:41:43Z</time>
      </trkpt>
      <trkpt lat="42.47651" lon="2.07909">
        <ele>1570.4</ele>
        <time>2013-08-14T08:41:46Z</time>
      </trkpt>
      <trkpt lat="42.47647" lon="2.0791">
        <ele>1569.9</ele>
        <time>2013-08-14T08:41:49Z</time>
      </trkpt>
      <trkpt lat="42.47644" lon="2.07913">
        <ele>1569.9</ele>
        <time>2013-08-14T08:41:52Z</time>
      </trkpt>
      <trkpt lat="42.47641" lon="2.07915">
        <ele>1569.9</ele>
        <time>2013-08-14T08:41:54Z</time>
      </trkpt>
      <trkpt lat="42.47637" lon="2.07917">
        <ele>1570</ele>
        <time>2013-08-14T08:41:56Z</time>
      </trkpt>
      <trkpt lat="42.47635" lon="2.07918">
        <ele>1570.2</ele>
        <time>2013-08-14T08:41:58Z</time>
      </trkpt>
      <trkpt lat="42.47631" lon="2.0792">
        <ele>1570</ele>
        <time>2013-08-14T08:42:00Z</time>
      </trkpt>
      <trkpt lat="42.47628" lon="2.07921">
        <ele>1569.7</ele>
        <time>2013-08-14T08:42:02Z</time>
      </trkpt>
      <trkpt lat="42.47625" lon="2.07923">
        <ele>1570</ele>
        <time>2013-08-14T08:42:04Z</time>
      </trkpt>
      <trkpt lat="42.47621" lon="2.07925">
        <ele>1570.1</ele>
        <time>2013-08-14T08:42:07Z</time>
      </trkpt>
      <trkpt lat="42.47617" lon="2.07928">
        <ele>1569.9</ele>
        <time>2013-08-14T08:42:10Z</time>
      </trkpt>
      <trkpt lat="42.47615" lon="2.0793">
        <ele>1569.7</ele>
        <time>2013-08-14T08:42:12Z</time>
      </trkpt>
      <trkpt lat="42.47612" lon="2.07933">
        <ele>1569.8</ele>
        <time>2013-08-14T08:42:14Z</time>
      </trkpt>
      <trkpt lat="42.4761" lon="2.07936">
        <ele>1569.7</ele>
        <time>2013-08-14T08:42:16Z</time>
      </trkpt>
      <trkpt lat="42.47608" lon="2.07937">
        <ele>1569.7</ele>
        <time>2013-08-14T08:42:17Z</time>
      </trkpt>
      <trkpt lat="42.47604" lon="2.07941">
        <ele>1569.8</ele>
        <time>2013-08-14T08:42:20Z</time>
      </trkpt>
      <trkpt lat="42.47601" lon="2.07945">
        <ele>1569.8</ele>
        <time>2013-08-14T08:42:23Z</time>
      </trkpt>
      <trkpt lat="42.47598" lon="2.07947">
        <ele>1569.7</ele>
        <time>2013-08-14T08:42:25Z</time>
      </trkpt>
      <trkpt lat="42.47594" lon="2.07949">
        <ele>1569.9</ele>
        <time>2013-08-14T08:42:27Z</time>
      </trkpt>
      <trkpt lat="42.4759" lon="2.07951">
        <ele>1569.4</ele>
        <time>2013-08-14T08:42:32Z</time>
      </trkpt>
      <trkpt lat="42.47588" lon="2.07956">
        <ele>1569.2</ele>
        <time>2013-08-14T08:42:36Z</time>
      </trkpt>
      <trkpt lat="42.47586" lon="2.07961">
        <ele>1569.3</ele>
        <time>2013-08-14T08:42:39Z</time>
      </trkpt>
      <trkpt lat="42.47585" lon="2.07965">
        <ele>1569.2</ele>
        <time>2013-08-14T08:42:44Z</time>
      </trkpt>
      <trkpt lat="42.47583" lon="2.0797">
        <ele>1569.3</ele>
        <time>2013-08-14T08:42:48Z</time>
      </trkpt>
      <trkpt lat="42.47581" lon="2.07975">
        <ele>1569.3</ele>
        <time>2013-08-14T08:42:54Z</time>
      </trkpt>
      <trkpt lat="42.47578" lon="2.07977">
        <ele>1569.4</ele>
        <time>2013-08-14T08:42:56Z</time>
      </trkpt>
      <trkpt lat="42.47574" lon="2.07979">
        <ele>1568.9</ele>
        <time>2013-08-14T08:42:59Z</time>
      </trkpt>
      <trkpt lat="42.47571" lon="2.07982">
        <ele>1568.8</ele>
        <time>2013-08-14T08:43:02Z</time>
      </trkpt>
      <trkpt lat="42.47567" lon="2.07984">
        <ele>1569.4</ele>
        <time>2013-08-14T08:43:05Z</time>
      </trkpt>
      <trkpt lat="42.47564" lon="2.07985">
        <ele>1569.8</ele>
        <time>2013-08-14T08:43:07Z</time>
      </trkpt>
      <trkpt lat="42.4756" lon="2.07987">
        <ele>1569.9</ele>
        <time>2013-08-14T08:43:09Z</time>
      </trkpt>
      <trkpt lat="42.47557" lon="2.07988">
        <ele>1570.3</ele>
        <time>2013-08-14T08:43:11Z</time>
      </trkpt>
      <trkpt lat="42.47554" lon="2.0799">
        <ele>1570.5</ele>
        <time>2013-08-14T08:43:13Z</time>
      </trkpt>
      <trkpt lat="42.47551" lon="2.07991">
        <ele>1571</ele>
        <time>2013-08-14T08:43:15Z</time>
      </trkpt>
      <trkpt lat="42.47548" lon="2.07992">
        <ele>1571</ele>
        <time>2013-08-14T08:43:17Z</time>
      </trkpt>
      <trkpt lat="42.47546" lon="2.07993">
        <ele>1570.8</ele>
        <time>2013-08-14T08:43:18Z</time>
      </trkpt>
      <trkpt lat="42.4754" lon="2.07996">
        <ele>1570.6</ele>
        <time>2013-08-14T08:43:23Z</time>
      </trkpt>
      <trkpt lat="42.47537" lon="2.07998">
        <ele>1571.2</ele>
        <time>2013-08-14T08:43:25Z</time>
      </trkpt>
      <trkpt lat="42.47534" lon="2.07999">
        <ele>1571.8</ele>
        <time>2013-08-14T08:43:27Z</time>
      </trkpt>
      <trkpt lat="42.4753" lon="2.08001">
        <ele>1572</ele>
        <time>2013-08-14T08:43:30Z</time>
      </trkpt>
      <trkpt lat="42.47526" lon="2.08003">
        <ele>1571.8</ele>
        <time>2013-08-14T08:43:32Z</time>
      </trkpt>
      <trkpt lat="42.47523" lon="2.08006">
        <ele>1571.8</ele>
        <time>2013-08-14T08:43:35Z</time>
      </trkpt>
      <trkpt lat="42.4752" lon="2.0801">
        <ele>1571.5</ele>
        <time>2013-08-14T08:43:38Z</time>
      </trkpt>
      <trkpt lat="42.47516" lon="2.08014">
        <ele>1570.8</ele>
        <time>2013-08-14T08:43:41Z</time>
      </trkpt>
      <trkpt lat="42.47513" lon="2.08016">
        <ele>1571.2</ele>
        <time>2013-08-14T08:43:43Z</time>
      </trkpt>
      <trkpt lat="42.4751" lon="2.08019">
        <ele>1571.4</ele>
        <time>2013-08-14T08:43:45Z</time>
      </trkpt>
      <trkpt lat="42.47507" lon="2.0802">
        <ele>1571.4</ele>
        <time>2013-08-14T08:43:47Z</time>
      </trkpt>
      <trkpt lat="42.47503" lon="2.08022">
        <ele>1571.8</ele>
        <time>2013-08-14T08:43:50Z</time>
      </trkpt>
      <trkpt lat="42.47499" lon="2.08022">
        <ele>1571.1</ele>
        <time>2013-08-14T08:43:56Z</time>
      </trkpt>
      <trkpt lat="42.47495" lon="2.08023">
        <ele>1570.5</ele>
        <time>2013-08-14T08:43:59Z</time>
      </trkpt>
      <trkpt lat="42.47492" lon="2.08022">
        <ele>1570.3</ele>
        <time>2013-08-14T08:44:02Z</time>
      </trkpt>
      <trkpt lat="42.47488" lon="2.08023">
        <ele>1570.2</ele>
        <time>2013-08-14T08:44:06Z</time>
      </trkpt>
      <trkpt lat="42.47484" lon="2.08022">
        <ele>1570.3</ele>
        <time>2013-08-14T08:44:09Z</time>
      </trkpt>
      <trkpt lat="42.4748" lon="2.08022">
        <ele>1570.6</ele>
        <time>2013-08-14T08:44:13Z</time>
      </trkpt>
      <trkpt lat="42.47477" lon="2.08022">
        <ele>1570.5</ele>
        <time>2013-08-14T08:44:16Z</time>
      </trkpt>
      <trkpt lat="42.47473" lon="2.08024">
        <ele>1571</ele>
        <time>2013-08-14T08:44:20Z</time>
      </trkpt>
      <trkpt lat="42.47472" lon="2.08024">
        <ele>1570.6</ele>
        <time>2013-08-14T08:44:21Z</time>
      </trkpt>
      <trkpt lat="42.47465" lon="2.08028">
        <ele>1571</ele>
        <time>2013-08-14T08:44:27Z</time>
      </trkpt>
      <trkpt lat="42.47462" lon="2.08028">
        <ele>1570.6</ele>
        <time>2013-08-14T08:44:30Z</time>
      </trkpt>
      <trkpt lat="42.47458" lon="2.0803">
        <ele>1570.7</ele>
        <time>2013-08-14T08:44:33Z</time>
      </trkpt>
      <trkpt lat="42.47454" lon="2.0803">
        <ele>1571.1</ele>
        <time>2013-08-14T08:44:36Z</time>
      </trkpt>
      <trkpt lat="42.4745" lon="2.08031">
        <ele>1571.2</ele>
        <time>2013-08-14T08:44:38Z</time>
      </trkpt>
      <trkpt lat="42.47446" lon="2.08031">
        <ele>1571.3</ele>
        <time>2013-08-14T08:44:43Z</time>
      </trkpt>
      <trkpt lat="42.47443" lon="2.08032">
        <ele>1571.3</ele>
        <time>2013-08-14T08:44:46Z</time>
      </trkpt>
      <trkpt lat="42.4744" lon="2.08032">
        <ele>1571.3</ele>
        <time>2013-08-14T08:44:48Z</time>
      </trkpt>
      <trkpt lat="42.47436" lon="2.08032">
        <ele>1570.9</ele>
        <time>2013-08-14T08:44:50Z</time>
      </trkpt>
      <trkpt lat="42.47433" lon="2.08034">
        <ele>1570.6</ele>
        <time>2013-08-14T08:44:52Z</time>
      </trkpt>
      <trkpt lat="42.47429" lon="2.08036">
        <ele>1570.2</ele>
        <time>2013-08-14T08:44:55Z</time>
      </trkpt>
      <trkpt lat="42.47425" lon="2.08036">
        <ele>1571.8</ele>
        <time>2013-08-14T08:44:58Z</time>
      </trkpt>
      <trkpt lat="42.47421" lon="2.08038">
        <ele>1571.5</ele>
        <time>2013-08-14T08:45:01Z</time>
      </trkpt>
      <trkpt lat="42.47417" lon="2.08042">
        <ele>1572</ele>
        <time>2013-08-14T08:45:08Z</time>
      </trkpt>
      <trkpt lat="42.47413" lon="2.08043">
        <ele>1572.2</ele>
        <time>2013-08-14T08:45:20Z</time>
      </trkpt>
      <trkpt lat="42.4741" lon="2.0804">
        <ele>1571.8</ele>
        <time>2013-08-14T08:45:28Z</time>
      </trkpt>
      <trkpt lat="42.47409" lon="2.0804">
        <ele>1571.9</ele>
        <time>2013-08-14T08:45:29Z</time>
      </trkpt>
      <trkpt lat="42.47402" lon="2.08036">
        <ele>1572.2</ele>
        <time>2013-08-14T08:45:38Z</time>
      </trkpt>
      <trkpt lat="42.47398" lon="2.08035">
        <ele>1572.1</ele>
        <time>2013-08-14T08:45:42Z</time>
      </trkpt>
      <trkpt lat="42.47395" lon="2.08032">
        <ele>1571.2</ele>
        <time>2013-08-14T08:45:49Z</time>
      </trkpt>
      <trkpt lat="42.47391" lon="2.08028">
        <ele>1571.9</ele>
        <time>2013-08-14T08:46:11Z</time>
      </trkpt>
      <trkpt lat="42.47387" lon="2.08025">
        <ele>1572.7</ele>
        <time>2013-08-14T08:46:18Z</time>
      </trkpt>
      <trkpt lat="42.47384" lon="2.08028">
        <ele>1572.3</ele>
        <time>2013-08-14T08:46:30Z</time>
      </trkpt>
      <trkpt lat="42.47384" lon="2.08029">
        <ele>1572.4</ele>
        <time>2013-08-14T08:46:31Z</time>
      </trkpt>
      <trkpt lat="42.47378" lon="2.08037">
        <ele>1572.8</ele>
        <time>2013-08-14T08:46:38Z</time>
      </trkpt>
      <trkpt lat="42.47375" lon="2.0804">
        <ele>1572.9</ele>
        <time>2013-08-14T08:46:41Z</time>
      </trkpt>
      <trkpt lat="42.47372" lon="2.08043">
        <ele>1573.3</ele>
        <time>2013-08-14T08:46:44Z</time>
      </trkpt>
      <trkpt lat="42.47369" lon="2.08046">
        <ele>1573.7</ele>
        <time>2013-08-14T08:46:47Z</time>
      </trkpt>
      <trkpt lat="42.47366" lon="2.08051">
        <ele>1573.7</ele>
        <time>2013-08-14T08:46:51Z</time>
      </trkpt>
      <trkpt lat="42.47363" lon="2.08054">
        <ele>1574.3</ele>
        <time>2013-08-14T08:46:54Z</time>
      </trkpt>
      <trkpt lat="42.4736" lon="2.08057">
        <ele>1574.9</ele>
        <time>2013-08-14T08:46:57Z</time>
      </trkpt>
      <trkpt lat="42.47358" lon="2.08061">
        <ele>1575.5</ele>
        <time>2013-08-14T08:47:00Z</time>
      </trkpt>
      <trkpt lat="42.47355" lon="2.08064">
        <ele>1575.8</ele>
        <time>2013-08-14T08:47:03Z</time>
      </trkpt>
      <trkpt lat="42.47352" lon="2.08068">
        <ele>1576.3</ele>
        <time>2013-08-14T08:47:07Z</time>
      </trkpt>
      <trkpt lat="42.4735" lon="2.08072">
        <ele>1576.8</ele>
        <time>2013-08-14T08:47:10Z</time>
      </trkpt>
      <trkpt lat="42.47347" lon="2.08076">
        <ele>1577</ele>
        <time>2013-08-14T08:47:13Z</time>
      </trkpt>
      <trkpt lat="42.47343" lon="2.08078">
        <ele>1577.3</ele>
        <time>2013-08-14T08:47:16Z</time>
      </trkpt>
      <trkpt lat="42.47341" lon="2.08081">
        <ele>1577.6</ele>
        <time>2013-08-14T08:47:19Z</time>
      </trkpt>
      <trkpt lat="42.47337" lon="2.08084">
        <ele>1577.5</ele>
        <time>2013-08-14T08:47:22Z</time>
      </trkpt>
      <trkpt lat="42.47334" lon="2.08087">
        <ele>1577.1</ele>
        <time>2013-08-14T08:47:25Z</time>
      </trkpt>
      <trkpt lat="42.47329" lon="2.08088">
        <ele>1577.6</ele>
        <time>2013-08-14T08:47:28Z</time>
      </trkpt>
      <trkpt lat="42.47326" lon="2.08091">
        <ele>1578.2</ele>
        <time>2013-08-14T08:47:31Z</time>
      </trkpt>
      <trkpt lat="42.47325" lon="2.08092">
        <ele>1578.3</ele>
        <time>2013-08-14T08:47:32Z</time>
      </trkpt>
      <trkpt lat="42.47321" lon="2.08097">
        <ele>1578.4</ele>
        <time>2013-08-14T08:47:36Z</time>
      </trkpt>
      <trkpt lat="42.47317" lon="2.08101">
        <ele>1578.8</ele>
        <time>2013-08-14T08:47:39Z</time>
      </trkpt>
      <trkpt lat="42.47315" lon="2.08105">
        <ele>1579.3</ele>
        <time>2013-08-14T08:47:42Z</time>
      </trkpt>
      <trkpt lat="42.47312" lon="2.08109">
        <ele>1579.3</ele>
        <time>2013-08-14T08:47:45Z</time>
      </trkpt>
      <trkpt lat="42.4731" lon="2.08113">
        <ele>1579.8</ele>
        <time>2013-08-14T08:47:48Z</time>
      </trkpt>
      <trkpt lat="42.47307" lon="2.08117">
        <ele>1580.4</ele>
        <time>2013-08-14T08:47:51Z</time>
      </trkpt>
      <trkpt lat="42.47304" lon="2.08121">
        <ele>1580.4</ele>
        <time>2013-08-14T08:47:54Z</time>
      </trkpt>
      <trkpt lat="42.47301" lon="2.08124">
        <ele>1580.3</ele>
        <time>2013-08-14T08:47:56Z</time>
      </trkpt>
      <trkpt lat="42.47299" lon="2.08128">
        <ele>1580.2</ele>
        <time>2013-08-14T08:47:58Z</time>
      </trkpt>
      <trkpt lat="42.47295" lon="2.0813">
        <ele>1580.4</ele>
        <time>2013-08-14T08:48:01Z</time>
      </trkpt>
      <trkpt lat="42.47293" lon="2.08132">
        <ele>1580.8</ele>
        <time>2013-08-14T08:48:03Z</time>
      </trkpt>
      <trkpt lat="42.4729" lon="2.08134">
        <ele>1581</ele>
        <time>2013-08-14T08:48:05Z</time>
      </trkpt>
      <trkpt lat="42.47287" lon="2.08138">
        <ele>1581.4</ele>
        <time>2013-08-14T08:48:08Z</time>
      </trkpt>
      <trkpt lat="42.47285" lon="2.0814">
        <ele>1581.6</ele>
        <time>2013-08-14T08:48:10Z</time>
      </trkpt>
      <trkpt lat="42.47282" lon="2.08143">
        <ele>1581.6</ele>
        <time>2013-08-14T08:48:12Z</time>
      </trkpt>
      <trkpt lat="42.4728" lon="2.08148">
        <ele>1581.6</ele>
        <time>2013-08-14T08:48:15Z</time>
      </trkpt>
      <trkpt lat="42.47278" lon="2.08151">
        <ele>1582.1</ele>
        <time>2013-08-14T08:48:17Z</time>
      </trkpt>
      <trkpt lat="42.47276" lon="2.08156">
        <ele>1582.9</ele>
        <time>2013-08-14T08:48:20Z</time>
      </trkpt>
      <trkpt lat="42.47274" lon="2.0816">
        <ele>1583.3</ele>
        <time>2013-08-14T08:48:22Z</time>
      </trkpt>
      <trkpt lat="42.47272" lon="2.08164">
        <ele>1583.2</ele>
        <time>2013-08-14T08:48:25Z</time>
      </trkpt>
      <trkpt lat="42.47269" lon="2.08168">
        <ele>1583.4</ele>
        <time>2013-08-14T08:48:28Z</time>
      </trkpt>
      <trkpt lat="42.47267" lon="2.08171">
        <ele>1583.7</ele>
        <time>2013-08-14T08:48:30Z</time>
      </trkpt>
      <trkpt lat="42.47263" lon="2.08173">
        <ele>1583.9</ele>
        <time>2013-08-14T08:48:32Z</time>
      </trkpt>
      <trkpt lat="42.47262" lon="2.08174">
        <ele>1584.2</ele>
        <time>2013-08-14T08:48:33Z</time>
      </trkpt>
      <trkpt lat="42.47256" lon="2.0818">
        <ele>1584.9</ele>
        <time>2013-08-14T08:48:38Z</time>
      </trkpt>
      <trkpt lat="42.47254" lon="2.08185">
        <ele>1585.5</ele>
        <time>2013-08-14T08:48:42Z</time>
      </trkpt>
      <trkpt lat="42.47251" lon="2.0819">
        <ele>1586.1</ele>
        <time>2013-08-14T08:48:46Z</time>
      </trkpt>
      <trkpt lat="42.4725" lon="2.08194">
        <ele>1585.9</ele>
        <time>2013-08-14T08:48:49Z</time>
      </trkpt>
      <trkpt lat="42.47248" lon="2.08199">
        <ele>1585.7</ele>
        <time>2013-08-14T08:48:52Z</time>
      </trkpt>
      <trkpt lat="42.47247" lon="2.08204">
        <ele>1586.4</ele>
        <time>2013-08-14T08:48:56Z</time>
      </trkpt>
      <trkpt lat="42.47246" lon="2.08208">
        <ele>1586.7</ele>
        <time>2013-08-14T08:49:00Z</time>
      </trkpt>
      <trkpt lat="42.47244" lon="2.08213">
        <ele>1587</ele>
        <time>2013-08-14T08:49:03Z</time>
      </trkpt>
      <trkpt lat="42.47241" lon="2.08217">
        <ele>1587.4</ele>
        <time>2013-08-14T08:49:07Z</time>
      </trkpt>
      <trkpt lat="42.47239" lon="2.08222">
        <ele>1587.8</ele>
        <time>2013-08-14T08:49:11Z</time>
      </trkpt>
      <trkpt lat="42.47237" lon="2.08225">
        <ele>1587.9</ele>
        <time>2013-08-14T08:49:14Z</time>
      </trkpt>
      <trkpt lat="42.47234" lon="2.08228">
        <ele>1588</ele>
        <time>2013-08-14T08:49:17Z</time>
      </trkpt>
      <trkpt lat="42.47231" lon="2.08232">
        <ele>1588.3</ele>
        <time>2013-08-14T08:49:20Z</time>
      </trkpt>
      <trkpt lat="42.47227" lon="2.08236">
        <ele>1588.8</ele>
        <time>2013-08-14T08:49:24Z</time>
      </trkpt>
      <trkpt lat="42.47224" lon="2.08239">
        <ele>1588.8</ele>
        <time>2013-08-14T08:49:27Z</time>
      </trkpt>
      <trkpt lat="42.47222" lon="2.08243">
        <ele>1589.3</ele>
        <time>2013-08-14T08:49:30Z</time>
      </trkpt>
      <trkpt lat="42.47219" lon="2.08247">
        <ele>1589.2</ele>
        <time>2013-08-14T08:49:33Z</time>
      </trkpt>
      <trkpt lat="42.47218" lon="2.08247">
        <ele>1589.1</ele>
        <time>2013-08-14T08:49:34Z</time>
      </trkpt>
      <trkpt lat="42.47214" lon="2.08252">
        <ele>1590.1</ele>
        <time>2013-08-14T08:49:38Z</time>
      </trkpt>
      <trkpt lat="42.47211" lon="2.08254">
        <ele>1590.5</ele>
        <time>2013-08-14T08:49:40Z</time>
      </trkpt>
      <trkpt lat="42.47208" lon="2.08256">
        <ele>1590.4</ele>
        <time>2013-08-14T08:49:42Z</time>
      </trkpt>
      <trkpt lat="42.47205" lon="2.08259">
        <ele>1590.4</ele>
        <time>2013-08-14T08:49:45Z</time>
      </trkpt>
      <trkpt lat="42.47202" lon="2.08261">
        <ele>1591.2</ele>
        <time>2013-08-14T08:49:48Z</time>
      </trkpt>
      <trkpt lat="42.47199" lon="2.08264">
        <ele>1591.8</ele>
        <time>2013-08-14T08:49:51Z</time>
      </trkpt>
      <trkpt lat="42.47195" lon="2.08267">
        <ele>1592.3</ele>
        <time>2013-08-14T08:49:54Z</time>
      </trkpt>
      <trkpt lat="42.47192" lon="2.08271">
        <ele>1592.5</ele>
        <time>2013-08-14T08:49:57Z</time>
      </trkpt>
      <trkpt lat="42.47189" lon="2.08275">
        <ele>1592.2</ele>
        <time>2013-08-14T08:50:00Z</time>
      </trkpt>
      <trkpt lat="42.47185" lon="2.08278">
        <ele>1592.2</ele>
        <time>2013-08-14T08:50:03Z</time>
      </trkpt>
      <trkpt lat="42.47183" lon="2.08281">
        <ele>1592.5</ele>
        <time>2013-08-14T08:50:06Z</time>
      </trkpt>
      <trkpt lat="42.47179" lon="2.08284">
        <ele>1592.7</ele>
        <time>2013-08-14T08:50:09Z</time>
      </trkpt>
      <trkpt lat="42.47176" lon="2.08288">
        <ele>1593.2</ele>
        <time>2013-08-14T08:50:12Z</time>
      </trkpt>
      <trkpt lat="42.47177" lon="2.08293">
        <ele>1593.6</ele>
        <time>2013-08-14T08:50:18Z</time>
      </trkpt>
      <trkpt lat="42.4718" lon="2.08297">
        <ele>1593.4</ele>
        <time>2013-08-14T08:50:21Z</time>
      </trkpt>
      <trkpt lat="42.47183" lon="2.08299">
        <ele>1594.1</ele>
        <time>2013-08-14T08:50:25Z</time>
      </trkpt>
      <trkpt lat="42.47186" lon="2.08301">
        <ele>1594.3</ele>
        <time>2013-08-14T08:50:27Z</time>
      </trkpt>
      <trkpt lat="42.47189" lon="2.08302">
        <ele>1594.4</ele>
        <time>2013-08-14T08:50:29Z</time>
      </trkpt>
      <trkpt lat="42.47193" lon="2.08305">
        <ele>1594.6</ele>
        <time>2013-08-14T08:50:32Z</time>
      </trkpt>
      <trkpt lat="42.47197" lon="2.08306">
        <ele>1594.5</ele>
        <time>2013-08-14T08:50:35Z</time>
      </trkpt>
      <trkpt lat="42.47199" lon="2.08307">
        <ele>1594.5</ele>
        <time>2013-08-14T08:50:36Z</time>
      </trkpt>
      <trkpt lat="42.47203" lon="2.08308">
        <ele>1595.1</ele>
        <time>2013-08-14T08:50:40Z</time>
      </trkpt>
      <trkpt lat="42.47207" lon="2.08308">
        <ele>1595.5</ele>
        <time>2013-08-14T08:50:42Z</time>
      </trkpt>
      <trkpt lat="42.47211" lon="2.08307">
        <ele>1595.9</ele>
        <time>2013-08-14T08:50:44Z</time>
      </trkpt>
      <trkpt lat="42.47214" lon="2.08308">
        <ele>1596.1</ele>
        <time>2013-08-14T08:50:45Z</time>
      </trkpt>
      <trkpt lat="42.47218" lon="2.08308">
        <ele>1596.4</ele>
        <time>2013-08-14T08:50:47Z</time>
      </trkpt>
      <trkpt lat="42.47222" lon="2.08308">
        <ele>1596.7</ele>
        <time>2013-08-14T08:50:49Z</time>
      </trkpt>
      <trkpt lat="42.47226" lon="2.08308">
        <ele>1597.1</ele>
        <time>2013-08-14T08:50:51Z</time>
      </trkpt>
      <trkpt lat="42.47229" lon="2.08307">
        <ele>1597.3</ele>
        <time>2013-08-14T08:50:53Z</time>
      </trkpt>
      <trkpt lat="42.47233" lon="2.08305">
        <ele>1597.7</ele>
        <time>2013-08-14T08:50:56Z</time>
      </trkpt>
      <trkpt lat="42.47237" lon="2.08303">
        <ele>1598.1</ele>
        <time>2013-08-14T08:50:59Z</time>
      </trkpt>
      <trkpt lat="42.47241" lon="2.08302">
        <ele>1597.9</ele>
        <time>2013-08-14T08:51:02Z</time>
      </trkpt>
      <trkpt lat="42.47245" lon="2.08301">
        <ele>1598.5</ele>
        <time>2013-08-14T08:51:06Z</time>
      </trkpt>
      <trkpt lat="42.47249" lon="2.08299">
        <ele>1599.4</ele>
        <time>2013-08-14T08:51:09Z</time>
      </trkpt>
      <trkpt lat="42.47253" lon="2.08298">
        <ele>1600.5</ele>
        <time>2013-08-14T08:51:12Z</time>
      </trkpt>
      <trkpt lat="42.47257" lon="2.08296">
        <ele>1601.2</ele>
        <time>2013-08-14T08:51:16Z</time>
      </trkpt>
      <trkpt lat="42.4726" lon="2.08295">
        <ele>1601.7</ele>
        <time>2013-08-14T08:51:18Z</time>
      </trkpt>
      <trkpt lat="42.47263" lon="2.08295">
        <ele>1601.4</ele>
        <time>2013-08-14T08:51:20Z</time>
      </trkpt>
      <trkpt lat="42.47266" lon="2.08295">
        <ele>1601.9</ele>
        <time>2013-08-14T08:51:22Z</time>
      </trkpt>
      <trkpt lat="42.4727" lon="2.08295">
        <ele>1602.6</ele>
        <time>2013-08-14T08:51:25Z</time>
      </trkpt>
      <trkpt lat="42.47274" lon="2.08296">
        <ele>1602.9</ele>
        <time>2013-08-14T08:51:28Z</time>
      </trkpt>
      <trkpt lat="42.47278" lon="2.08295">
        <ele>1603.8</ele>
        <time>2013-08-14T08:51:32Z</time>
      </trkpt>
      <trkpt lat="42.47282" lon="2.08294">
        <ele>1604.6</ele>
        <time>2013-08-14T08:51:37Z</time>
      </trkpt>
      <trkpt lat="42.47283" lon="2.08294">
        <ele>1604.6</ele>
        <time>2013-08-14T08:51:38Z</time>
      </trkpt>
      <trkpt lat="42.4729" lon="2.0829">
        <ele>1607.3</ele>
        <time>2013-08-14T08:51:46Z</time>
      </trkpt>
      <trkpt lat="42.47294" lon="2.0829">
        <ele>1606.1</ele>
        <time>2013-08-14T08:51:50Z</time>
      </trkpt>
      <trkpt lat="42.47298" lon="2.08292">
        <ele>1607.9</ele>
        <time>2013-08-14T08:51:59Z</time>
      </trkpt>
      <trkpt lat="42.47301" lon="2.08294">
        <ele>1608.1</ele>
        <time>2013-08-14T08:52:08Z</time>
      </trkpt>
      <trkpt lat="42.47305" lon="2.08294">
        <ele>1609.1</ele>
        <time>2013-08-14T08:52:13Z</time>
      </trkpt>
      <trkpt lat="42.4731" lon="2.08293">
        <ele>1610.3</ele>
        <time>2013-08-14T08:52:29Z</time>
      </trkpt>
      <trkpt lat="42.47307" lon="2.08297">
        <ele>1611</ele>
        <time>2013-08-14T08:52:40Z</time>
      </trkpt>
      <trkpt lat="42.47306" lon="2.08297">
        <ele>1611</ele>
        <time>2013-08-14T08:52:41Z</time>
      </trkpt>
      <trkpt lat="42.47299" lon="2.08298">
        <ele>1611.3</ele>
        <time>2013-08-14T08:52:47Z</time>
      </trkpt>
      <trkpt lat="42.47295" lon="2.083">
        <ele>1611.2</ele>
        <time>2013-08-14T08:52:50Z</time>
      </trkpt>
      <trkpt lat="42.47291" lon="2.08303">
        <ele>1611</ele>
        <time>2013-08-14T08:52:54Z</time>
      </trkpt>
      <trkpt lat="42.47288" lon="2.08305">
        <ele>1612.1</ele>
        <time>2013-08-14T08:53:00Z</time>
      </trkpt>
      <trkpt lat="42.47285" lon="2.08309">
        <ele>1612.4</ele>
        <time>2013-08-14T08:53:04Z</time>
      </trkpt>
      <trkpt lat="42.47283" lon="2.08313">
        <ele>1612.3</ele>
        <time>2013-08-14T08:53:07Z</time>
      </trkpt>
      <trkpt lat="42.47281" lon="2.08317">
        <ele>1612.9</ele>
        <time>2013-08-14T08:53:10Z</time>
      </trkpt>
      <trkpt lat="42.47278" lon="2.08322">
        <ele>1613.1</ele>
        <time>2013-08-14T08:53:14Z</time>
      </trkpt>
      <trkpt lat="42.47275" lon="2.08324">
        <ele>1613.8</ele>
        <time>2013-08-14T08:53:18Z</time>
      </trkpt>
      <trkpt lat="42.47272" lon="2.08328">
        <ele>1613.9</ele>
        <time>2013-08-14T08:53:22Z</time>
      </trkpt>
      <trkpt lat="42.4727" lon="2.08332">
        <ele>1614.1</ele>
        <time>2013-08-14T08:53:25Z</time>
      </trkpt>
      <trkpt lat="42.47267" lon="2.08335">
        <ele>1613.7</ele>
        <time>2013-08-14T08:53:27Z</time>
      </trkpt>
      <trkpt lat="42.47264" lon="2.08338">
        <ele>1613.7</ele>
        <time>2013-08-14T08:53:31Z</time>
      </trkpt>
      <trkpt lat="42.4726" lon="2.08341">
        <ele>1615.4</ele>
        <time>2013-08-14T08:53:35Z</time>
      </trkpt>
      <trkpt lat="42.47257" lon="2.08343">
        <ele>1615.5</ele>
        <time>2013-08-14T08:53:38Z</time>
      </trkpt>
      <trkpt lat="42.47253" lon="2.08345">
        <ele>1615.7</ele>
        <time>2013-08-14T08:53:41Z</time>
      </trkpt>
      <trkpt lat="42.47252" lon="2.08346">
        <ele>1615.9</ele>
        <time>2013-08-14T08:53:42Z</time>
      </trkpt>
      <trkpt lat="42.47246" lon="2.08351">
        <ele>1617</ele>
        <time>2013-08-14T08:53:50Z</time>
      </trkpt>
      <trkpt lat="42.47243" lon="2.08354">
        <ele>1617.9</ele>
        <time>2013-08-14T08:53:53Z</time>
      </trkpt>
      <trkpt lat="42.47239" lon="2.08357">
        <ele>1618.6</ele>
        <time>2013-08-14T08:53:57Z</time>
      </trkpt>
      <trkpt lat="42.47237" lon="2.0836">
        <ele>1618.3</ele>
        <time>2013-08-14T08:54:00Z</time>
      </trkpt>
      <trkpt lat="42.47234" lon="2.08363">
        <ele>1617.9</ele>
        <time>2013-08-14T08:54:03Z</time>
      </trkpt>
      <trkpt lat="42.47231" lon="2.08366">
        <ele>1618.3</ele>
        <time>2013-08-14T08:54:06Z</time>
      </trkpt>
      <trkpt lat="42.47228" lon="2.08368">
        <ele>1618</ele>
        <time>2013-08-14T08:54:09Z</time>
      </trkpt>
      <trkpt lat="42.47224" lon="2.08369">
        <ele>1618.9</ele>
        <time>2013-08-14T08:54:12Z</time>
      </trkpt>
      <trkpt lat="42.47221" lon="2.08373">
        <ele>1619.4</ele>
        <time>2013-08-14T08:54:15Z</time>
      </trkpt>
      <trkpt lat="42.47219" lon="2.08378">
        <ele>1619.3</ele>
        <time>2013-08-14T08:54:18Z</time>
      </trkpt>
      <trkpt lat="42.47218" lon="2.08383">
        <ele>1619.5</ele>
        <time>2013-08-14T08:54:21Z</time>
      </trkpt>
      <trkpt lat="42.47215" lon="2.08387">
        <ele>1620.1</ele>
        <time>2013-08-14T08:54:24Z</time>
      </trkpt>
      <trkpt lat="42.47213" lon="2.08393">
        <ele>1620.4</ele>
        <time>2013-08-14T08:54:27Z</time>
      </trkpt>
      <trkpt lat="42.47211" lon="2.08397">
        <ele>1620.3</ele>
        <time>2013-08-14T08:54:30Z</time>
      </trkpt>
      <trkpt lat="42.47209" lon="2.08401">
        <ele>1620.3</ele>
        <time>2013-08-14T08:54:33Z</time>
      </trkpt>
      <trkpt lat="42.47207" lon="2.08406">
        <ele>1620.8</ele>
        <time>2013-08-14T08:54:36Z</time>
      </trkpt>
      <trkpt lat="42.47205" lon="2.08409">
        <ele>1620.1</ele>
        <time>2013-08-14T08:54:39Z</time>
      </trkpt>
      <trkpt lat="42.47204" lon="2.08415">
        <ele>1620.2</ele>
        <time>2013-08-14T08:54:42Z</time>
      </trkpt>
      <trkpt lat="42.47204" lon="2.08416">
        <ele>1620.7</ele>
        <time>2013-08-14T08:54:43Z</time>
      </trkpt>
      <trkpt lat="42.47202" lon="2.08425">
        <ele>1622</ele>
        <time>2013-08-14T08:54:48Z</time>
      </trkpt>
      <trkpt lat="42.47201" lon="2.0843">
        <ele>1622.2</ele>
        <time>2013-08-14T08:54:51Z</time>
      </trkpt>
      <trkpt lat="42.47199" lon="2.08435">
        <ele>1621.6</ele>
        <time>2013-08-14T08:54:54Z</time>
      </trkpt>
      <trkpt lat="42.47198" lon="2.08441">
        <ele>1621.9</ele>
        <time>2013-08-14T08:54:58Z</time>
      </trkpt>
      <trkpt lat="42.47196" lon="2.08446">
        <ele>1622.7</ele>
        <time>2013-08-14T08:55:02Z</time>
      </trkpt>
      <trkpt lat="42.47192" lon="2.0845">
        <ele>1622.9</ele>
        <time>2013-08-14T08:55:06Z</time>
      </trkpt>
      <trkpt lat="42.4719" lon="2.08454">
        <ele>1622.7</ele>
        <time>2013-08-14T08:55:09Z</time>
      </trkpt>
      <trkpt lat="42.47187" lon="2.08458">
        <ele>1623.2</ele>
        <time>2013-08-14T08:55:13Z</time>
      </trkpt>
      <trkpt lat="42.47183" lon="2.0846">
        <ele>1623.6</ele>
        <time>2013-08-14T08:55:16Z</time>
      </trkpt>
      <trkpt lat="42.47181" lon="2.08463">
        <ele>1623.7</ele>
        <time>2013-08-14T08:55:18Z</time>
      </trkpt>
      <trkpt lat="42.47179" lon="2.08466">
        <ele>1623.8</ele>
        <time>2013-08-14T08:55:20Z</time>
      </trkpt>
      <trkpt lat="42.47176" lon="2.08469">
        <ele>1624.2</ele>
        <time>2013-08-14T08:55:22Z</time>
      </trkpt>
      <trkpt lat="42.47174" lon="2.08474">
        <ele>1624.7</ele>
        <time>2013-08-14T08:55:25Z</time>
      </trkpt>
      <trkpt lat="42.47172" lon="2.08478">
        <ele>1624.9</ele>
        <time>2013-08-14T08:55:28Z</time>
      </trkpt>
      <trkpt lat="42.47169" lon="2.08481">
        <ele>1624.5</ele>
        <time>2013-08-14T08:55:31Z</time>
      </trkpt>
      <trkpt lat="42.47166" lon="2.08483">
        <ele>1624.5</ele>
        <time>2013-08-14T08:55:33Z</time>
      </trkpt>
      <trkpt lat="42.47164" lon="2.08486">
        <ele>1624.9</ele>
        <time>2013-08-14T08:55:35Z</time>
      </trkpt>
      <trkpt lat="42.47161" lon="2.08489">
        <ele>1625</ele>
        <time>2013-08-14T08:55:38Z</time>
      </trkpt>
      <trkpt lat="42.47157" lon="2.08493">
        <ele>1625.5</ele>
        <time>2013-08-14T08:55:42Z</time>
      </trkpt>
      <trkpt lat="42.47154" lon="2.08497">
        <ele>1625.4</ele>
        <time>2013-08-14T08:55:45Z</time>
      </trkpt>
      <trkpt lat="42.47155" lon="2.08499">
        <ele>1625.3</ele>
        <time>2013-08-14T08:55:46Z</time>
      </trkpt>
      <trkpt lat="42.47153" lon="2.08506">
        <ele>1627</ele>
        <time>2013-08-14T08:55:51Z</time>
      </trkpt>
      <trkpt lat="42.47152" lon="2.0851">
        <ele>1627.1</ele>
        <time>2013-08-14T08:55:53Z</time>
      </trkpt>
      <trkpt lat="42.47151" lon="2.08515">
        <ele>1626.8</ele>
        <time>2013-08-14T08:55:56Z</time>
      </trkpt>
      <trkpt lat="42.47151" lon="2.0852">
        <ele>1627</ele>
        <time>2013-08-14T08:55:59Z</time>
      </trkpt>
      <trkpt lat="42.4715" lon="2.08526">
        <ele>1627.8</ele>
        <time>2013-08-14T08:56:02Z</time>
      </trkpt>
      <trkpt lat="42.47151" lon="2.08531">
        <ele>1628.2</ele>
        <time>2013-08-14T08:56:05Z</time>
      </trkpt>
      <trkpt lat="42.4715" lon="2.08535">
        <ele>1628.2</ele>
        <time>2013-08-14T08:56:08Z</time>
      </trkpt>
      <trkpt lat="42.47147" lon="2.08539">
        <ele>1628.3</ele>
        <time>2013-08-14T08:56:11Z</time>
      </trkpt>
      <trkpt lat="42.47145" lon="2.08544">
        <ele>1629.2</ele>
        <time>2013-08-14T08:56:14Z</time>
      </trkpt>
      <trkpt lat="42.47144" lon="2.0855">
        <ele>1629.3</ele>
        <time>2013-08-14T08:56:18Z</time>
      </trkpt>
      <trkpt lat="42.47143" lon="2.08554">
        <ele>1629.9</ele>
        <time>2013-08-14T08:56:20Z</time>
      </trkpt>
      <trkpt lat="42.47142" lon="2.08559">
        <ele>1631.1</ele>
        <time>2013-08-14T08:56:24Z</time>
      </trkpt>
      <trkpt lat="42.47141" lon="2.08564">
        <ele>1630.4</ele>
        <time>2013-08-14T08:56:28Z</time>
      </trkpt>
      <trkpt lat="42.47138" lon="2.08568">
        <ele>1630.6</ele>
        <time>2013-08-14T08:56:32Z</time>
      </trkpt>
      <trkpt lat="42.47137" lon="2.08573">
        <ele>1631.2</ele>
        <time>2013-08-14T08:56:34Z</time>
      </trkpt>
      <trkpt lat="42.47135" lon="2.08576">
        <ele>1631.3</ele>
        <time>2013-08-14T08:56:37Z</time>
      </trkpt>
      <trkpt lat="42.47132" lon="2.08581">
        <ele>1631.7</ele>
        <time>2013-08-14T08:56:40Z</time>
      </trkpt>
      <trkpt lat="42.4713" lon="2.08585">
        <ele>1630.9</ele>
        <time>2013-08-14T08:56:44Z</time>
      </trkpt>
      <trkpt lat="42.47127" lon="2.08588">
        <ele>1631.5</ele>
        <time>2013-08-14T08:56:47Z</time>
      </trkpt>
      <trkpt lat="42.47127" lon="2.0859">
        <ele>1631.4</ele>
        <time>2013-08-14T08:56:48Z</time>
      </trkpt>
      <trkpt lat="42.47123" lon="2.08596">
        <ele>1631.7</ele>
        <time>2013-08-14T08:56:53Z</time>
      </trkpt>
      <trkpt lat="42.47119" lon="2.08599">
        <ele>1632.5</ele>
        <time>2013-08-14T08:56:56Z</time>
      </trkpt>
      <trkpt lat="42.47116" lon="2.08603">
        <ele>1632.7</ele>
        <time>2013-08-14T08:56:59Z</time>
      </trkpt>
      <trkpt lat="42.47113" lon="2.08605">
        <ele>1632.3</ele>
        <time>2013-08-14T08:57:02Z</time>
      </trkpt>
      <trkpt lat="42.4711" lon="2.08608">
        <ele>1632.4</ele>
        <time>2013-08-14T08:57:04Z</time>
      </trkpt>
      <trkpt lat="42.47107" lon="2.08611">
        <ele>1633.3</ele>
        <time>2013-08-14T08:57:07Z</time>
      </trkpt>
      <trkpt lat="42.47103" lon="2.08614">
        <ele>1634.4</ele>
        <time>2013-08-14T08:57:10Z</time>
      </trkpt>
      <trkpt lat="42.471" lon="2.08616">
        <ele>1633.8</ele>
        <time>2013-08-14T08:57:14Z</time>
      </trkpt>
      <trkpt lat="42.47097" lon="2.08618">
        <ele>1633.5</ele>
        <time>2013-08-14T08:57:16Z</time>
      </trkpt>
      <trkpt lat="42.47094" lon="2.08621">
        <ele>1633.7</ele>
        <time>2013-08-14T08:57:19Z</time>
      </trkpt>
      <trkpt lat="42.47092" lon="2.08626">
        <ele>1634.1</ele>
        <time>2013-08-14T08:57:23Z</time>
      </trkpt>
      <trkpt lat="42.47089" lon="2.0863">
        <ele>1634.4</ele>
        <time>2013-08-14T08:57:26Z</time>
      </trkpt>
      <trkpt lat="42.47086" lon="2.08634">
        <ele>1634.4</ele>
        <time>2013-08-14T08:57:29Z</time>
      </trkpt>
      <trkpt lat="42.47084" lon="2.08638">
        <ele>1634.7</ele>
        <time>2013-08-14T08:57:33Z</time>
      </trkpt>
      <trkpt lat="42.47083" lon="2.08642">
        <ele>1635.1</ele>
        <time>2013-08-14T08:57:36Z</time>
      </trkpt>
      <trkpt lat="42.4708" lon="2.08646">
        <ele>1635.1</ele>
        <time>2013-08-14T08:57:39Z</time>
      </trkpt>
      <trkpt lat="42.47078" lon="2.0865">
        <ele>1635.7</ele>
        <time>2013-08-14T08:57:43Z</time>
      </trkpt>
      <trkpt lat="42.47076" lon="2.08655">
        <ele>1636</ele>
        <time>2013-08-14T08:57:47Z</time>
      </trkpt>
      <trkpt lat="42.47073" lon="2.08658">
        <ele>1636.6</ele>
        <time>2013-08-14T08:57:50Z</time>
      </trkpt>
      <trkpt lat="42.47072" lon="2.08659">
        <ele>1636.6</ele>
        <time>2013-08-14T08:57:51Z</time>
      </trkpt>
      <trkpt lat="42.47067" lon="2.08665">
        <ele>1637.2</ele>
        <time>2013-08-14T08:57:57Z</time>
      </trkpt>
      <trkpt lat="42.47065" lon="2.0867">
        <ele>1637.7</ele>
        <time>2013-08-14T08:58:00Z</time>
      </trkpt>
      <trkpt lat="42.47064" lon="2.08674">
        <ele>1637.6</ele>
        <time>2013-08-14T08:58:03Z</time>
      </trkpt>
      <trkpt lat="42.47061" lon="2.08679">
        <ele>1639</ele>
        <time>2013-08-14T08:58:06Z</time>
      </trkpt>
      <trkpt lat="42.47059" lon="2.08682">
        <ele>1639.3</ele>
        <time>2013-08-14T08:58:08Z</time>
      </trkpt>
      <trkpt lat="42.47056" lon="2.08686">
        <ele>1639.2</ele>
        <time>2013-08-14T08:58:11Z</time>
      </trkpt>
      <trkpt lat="42.47055" lon="2.08692">
        <ele>1638.8</ele>
        <time>2013-08-14T08:58:15Z</time>
      </trkpt>
      <trkpt lat="42.47053" lon="2.08697">
        <ele>1639.2</ele>
        <time>2013-08-14T08:58:18Z</time>
      </trkpt>
      <trkpt lat="42.47052" lon="2.08701">
        <ele>1639.9</ele>
        <time>2013-08-14T08:58:21Z</time>
      </trkpt>
      <trkpt lat="42.4705" lon="2.08705">
        <ele>1640.2</ele>
        <time>2013-08-14T08:58:23Z</time>
      </trkpt>
      <trkpt lat="42.47049" lon="2.08711">
        <ele>1640.8</ele>
        <time>2013-08-14T08:58:26Z</time>
      </trkpt>
      <trkpt lat="42.47047" lon="2.08715">
        <ele>1641.4</ele>
        <time>2013-08-14T08:58:29Z</time>
      </trkpt>
      <trkpt lat="42.47047" lon="2.0872">
        <ele>1640.9</ele>
        <time>2013-08-14T08:58:31Z</time>
      </trkpt>
      <trkpt lat="42.47046" lon="2.08725">
        <ele>1641.2</ele>
        <time>2013-08-14T08:58:33Z</time>
      </trkpt>
      <trkpt lat="42.47046" lon="2.0873">
        <ele>1641.8</ele>
        <time>2013-08-14T08:58:36Z</time>
      </trkpt>
      <trkpt lat="42.47045" lon="2.08736">
        <ele>1641.5</ele>
        <time>2013-08-14T08:58:40Z</time>
      </trkpt>
      <trkpt lat="42.47044" lon="2.08741">
        <ele>1642.2</ele>
        <time>2013-08-14T08:58:43Z</time>
      </trkpt>
      <trkpt lat="42.47044" lon="2.08746">
        <ele>1642.6</ele>
        <time>2013-08-14T08:58:45Z</time>
      </trkpt>
      <trkpt lat="42.47045" lon="2.0875">
        <ele>1642.7</ele>
        <time>2013-08-14T08:58:47Z</time>
      </trkpt>
      <trkpt lat="42.47045" lon="2.08755">
        <ele>1642.8</ele>
        <time>2013-08-14T08:58:50Z</time>
      </trkpt>
      <trkpt lat="42.47046" lon="2.08761">
        <ele>1643.3</ele>
        <time>2013-08-14T08:58:53Z</time>
      </trkpt>
      <trkpt lat="42.47046" lon="2.08762">
        <ele>1643.5</ele>
        <time>2013-08-14T08:58:54Z</time>
      </trkpt>
      <trkpt lat="42.47049" lon="2.08771">
        <ele>1644.1</ele>
        <time>2013-08-14T08:59:00Z</time>
      </trkpt>
      <trkpt lat="42.47051" lon="2.08775">
        <ele>1644.4</ele>
        <time>2013-08-14T08:59:03Z</time>
      </trkpt>
      <trkpt lat="42.47053" lon="2.0878">
        <ele>1645.2</ele>
        <time>2013-08-14T08:59:07Z</time>
      </trkpt>
      <trkpt lat="42.47056" lon="2.08783">
        <ele>1646.6</ele>
        <time>2013-08-14T08:59:12Z</time>
      </trkpt>
      <trkpt lat="42.4706" lon="2.08786">
        <ele>1646.5</ele>
        <time>2013-08-14T08:59:16Z</time>
      </trkpt>
      <trkpt lat="42.47063" lon="2.0879">
        <ele>1647.2</ele>
        <time>2013-08-14T08:59:21Z</time>
      </trkpt>
      <trkpt lat="42.47066" lon="2.08791">
        <ele>1648.9</ele>
        <time>2013-08-14T08:59:27Z</time>
      </trkpt>
      <trkpt lat="42.47069" lon="2.08793">
        <ele>1649</ele>
        <time>2013-08-14T08:59:32Z</time>
      </trkpt>
      <trkpt lat="42.47074" lon="2.08794">
        <ele>1649.7</ele>
        <time>2013-08-14T08:59:35Z</time>
      </trkpt>
      <trkpt lat="42.47078" lon="2.08796">
        <ele>1651.6</ele>
        <time>2013-08-14T08:59:42Z</time>
      </trkpt>
      <trkpt lat="42.47081" lon="2.088">
        <ele>1652.3</ele>
        <time>2013-08-14T08:59:47Z</time>
      </trkpt>
      <trkpt lat="42.47084" lon="2.08803">
        <ele>1653.3</ele>
        <time>2013-08-14T08:59:53Z</time>
      </trkpt>
      <trkpt lat="42.47086" lon="2.08807">
        <ele>1653.7</ele>
        <time>2013-08-14T08:59:56Z</time>
      </trkpt>
      <trkpt lat="42.47087" lon="2.08808">
        <ele>1654</ele>
        <time>2013-08-14T08:59:57Z</time>
      </trkpt>
      <trkpt lat="42.47093" lon="2.08814">
        <ele>1655.5</ele>
        <time>2013-08-14T09:00:04Z</time>
      </trkpt>
      <trkpt lat="42.47097" lon="2.08817">
        <ele>1656.3</ele>
        <time>2013-08-14T09:00:09Z</time>
      </trkpt>
      <trkpt lat="42.47101" lon="2.08819">
        <ele>1656.6</ele>
        <time>2013-08-14T09:00:15Z</time>
      </trkpt>
      <trkpt lat="42.47104" lon="2.0882">
        <ele>1657.4</ele>
        <time>2013-08-14T09:00:18Z</time>
      </trkpt>
      <trkpt lat="42.47108" lon="2.08823">
        <ele>1658</ele>
        <time>2013-08-14T09:00:21Z</time>
      </trkpt>
      <trkpt lat="42.47111" lon="2.08827">
        <ele>1658.7</ele>
        <time>2013-08-14T09:00:25Z</time>
      </trkpt>
      <trkpt lat="42.47115" lon="2.0883">
        <ele>1659.9</ele>
        <time>2013-08-14T09:00:29Z</time>
      </trkpt>
      <trkpt lat="42.47118" lon="2.08834">
        <ele>1660.4</ele>
        <time>2013-08-14T09:00:33Z</time>
      </trkpt>
      <trkpt lat="42.47122" lon="2.08837">
        <ele>1660.7</ele>
        <time>2013-08-14T09:00:37Z</time>
      </trkpt>
      <trkpt lat="42.47126" lon="2.08836">
        <ele>1662.5</ele>
        <time>2013-08-14T09:01:42Z</time>
      </trkpt>
      <trkpt lat="42.47126" lon="2.08837">
        <ele>1662.6</ele>
        <time>2013-08-14T09:01:43Z</time>
      </trkpt>
      <trkpt lat="42.47132" lon="2.08843">
        <ele>1662.8</ele>
        <time>2013-08-14T09:01:51Z</time>
      </trkpt>
      <trkpt lat="42.47134" lon="2.08847">
        <ele>1663</ele>
        <time>2013-08-14T09:01:54Z</time>
      </trkpt>
      <trkpt lat="42.47137" lon="2.08852">
        <ele>1663.7</ele>
        <time>2013-08-14T09:01:59Z</time>
      </trkpt>
      <trkpt lat="42.47139" lon="2.08857">
        <ele>1664.1</ele>
        <time>2013-08-14T09:02:03Z</time>
      </trkpt>
      <trkpt lat="42.47142" lon="2.0886">
        <ele>1665.2</ele>
        <time>2013-08-14T09:02:07Z</time>
      </trkpt>
      <trkpt lat="42.47144" lon="2.08865">
        <ele>1665.8</ele>
        <time>2013-08-14T09:02:11Z</time>
      </trkpt>
      <trkpt lat="42.47148" lon="2.08868">
        <ele>1666.3</ele>
        <time>2013-08-14T09:02:15Z</time>
      </trkpt>
      <trkpt lat="42.47151" lon="2.08871">
        <ele>1666.4</ele>
        <time>2013-08-14T09:02:19Z</time>
      </trkpt>
      <trkpt lat="42.47154" lon="2.08876">
        <ele>1667.2</ele>
        <time>2013-08-14T09:02:24Z</time>
      </trkpt>
      <trkpt lat="42.47157" lon="2.08878">
        <ele>1667.9</ele>
        <time>2013-08-14T09:02:28Z</time>
      </trkpt>
      <trkpt lat="42.4716" lon="2.08881">
        <ele>1668.6</ele>
        <time>2013-08-14T09:02:32Z</time>
      </trkpt>
      <trkpt lat="42.47163" lon="2.08884">
        <ele>1669</ele>
        <time>2013-08-14T09:02:36Z</time>
      </trkpt>
      <trkpt lat="42.47166" lon="2.08887">
        <ele>1668.9</ele>
        <time>2013-08-14T09:02:41Z</time>
      </trkpt>
      <trkpt lat="42.47169" lon="2.08891">
        <ele>1670.3</ele>
        <time>2013-08-14T09:02:45Z</time>
      </trkpt>
      <trkpt lat="42.4717" lon="2.08892">
        <ele>1670.5</ele>
        <time>2013-08-14T09:02:46Z</time>
      </trkpt>
      <trkpt lat="42.47175" lon="2.08898">
        <ele>1671.9</ele>
        <time>2013-08-14T09:02:53Z</time>
      </trkpt>
      <trkpt lat="42.47178" lon="2.08901">
        <ele>1672.3</ele>
        <time>2013-08-14T09:02:57Z</time>
      </trkpt>
      <trkpt lat="42.47181" lon="2.08904">
        <ele>1673.4</ele>
        <time>2013-08-14T09:03:05Z</time>
      </trkpt>
      <trkpt lat="42.47185" lon="2.08906">
        <ele>1674.2</ele>
        <time>2013-08-14T09:03:08Z</time>
      </trkpt>
      <trkpt lat="42.47189" lon="2.0891">
        <ele>1674.2</ele>
        <time>2013-08-14T09:03:12Z</time>
      </trkpt>
      <trkpt lat="42.47191" lon="2.08914">
        <ele>1674.6</ele>
        <time>2013-08-14T09:03:16Z</time>
      </trkpt>
      <trkpt lat="42.47193" lon="2.08918">
        <ele>1675.6</ele>
        <time>2013-08-14T09:03:20Z</time>
      </trkpt>
      <trkpt lat="42.47194" lon="2.08923">
        <ele>1675.7</ele>
        <time>2013-08-14T09:03:23Z</time>
      </trkpt>
      <trkpt lat="42.47194" lon="2.08929">
        <ele>1676.2</ele>
        <time>2013-08-14T09:03:27Z</time>
      </trkpt>
      <trkpt lat="42.47194" lon="2.08933">
        <ele>1676.3</ele>
        <time>2013-08-14T09:03:31Z</time>
      </trkpt>
      <trkpt lat="42.47194" lon="2.08939">
        <ele>1676.2</ele>
        <time>2013-08-14T09:03:35Z</time>
      </trkpt>
      <trkpt lat="42.47195" lon="2.08945">
        <ele>1677.3</ele>
        <time>2013-08-14T09:03:40Z</time>
      </trkpt>
      <trkpt lat="42.47194" lon="2.0895">
        <ele>1678.7</ele>
        <time>2013-08-14T09:03:45Z</time>
      </trkpt>
      <trkpt lat="42.47194" lon="2.08956">
        <ele>1677.8</ele>
        <time>2013-08-14T09:03:51Z</time>
      </trkpt>
      <trkpt lat="42.47194" lon="2.08957">
        <ele>1678.1</ele>
        <time>2013-08-14T09:03:52Z</time>
      </trkpt>
      <trkpt lat="42.47192" lon="2.08967">
        <ele>1680.1</ele>
        <time>2013-08-14T09:04:00Z</time>
      </trkpt>
      <trkpt lat="42.47191" lon="2.08973">
        <ele>1680.1</ele>
        <time>2013-08-14T09:04:03Z</time>
      </trkpt>
      <trkpt lat="42.47191" lon="2.08978">
        <ele>1679.9</ele>
        <time>2013-08-14T09:04:08Z</time>
      </trkpt>
      <trkpt lat="42.4719" lon="2.08983">
        <ele>1680.1</ele>
        <time>2013-08-14T09:04:12Z</time>
      </trkpt>
      <trkpt lat="42.47189" lon="2.08989">
        <ele>1681.1</ele>
        <time>2013-08-14T09:04:17Z</time>
      </trkpt>
      <trkpt lat="42.4719" lon="2.08994">
        <ele>1682.2</ele>
        <time>2013-08-14T09:04:26Z</time>
      </trkpt>
      <trkpt lat="42.4719" lon="2.08999">
        <ele>1682.2</ele>
        <time>2013-08-14T09:04:30Z</time>
      </trkpt>
      <trkpt lat="42.4719" lon="2.09004">
        <ele>1682.1</ele>
        <time>2013-08-14T09:04:33Z</time>
      </trkpt>
      <trkpt lat="42.4719" lon="2.0901">
        <ele>1683</ele>
        <time>2013-08-14T09:04:37Z</time>
      </trkpt>
      <trkpt lat="42.47189" lon="2.09014">
        <ele>1683.3</ele>
        <time>2013-08-14T09:04:40Z</time>
      </trkpt>
      <trkpt lat="42.47188" lon="2.09019">
        <ele>1683.8</ele>
        <time>2013-08-14T09:04:43Z</time>
      </trkpt>
      <trkpt lat="42.47188" lon="2.09023">
        <ele>1684.3</ele>
        <time>2013-08-14T09:04:46Z</time>
      </trkpt>
      <trkpt lat="42.47186" lon="2.09029">
        <ele>1684.1</ele>
        <time>2013-08-14T09:04:50Z</time>
      </trkpt>
      <trkpt lat="42.47186" lon="2.09034">
        <ele>1684</ele>
        <time>2013-08-14T09:04:54Z</time>
      </trkpt>
      <trkpt lat="42.47186" lon="2.09036">
        <ele>1684</ele>
        <time>2013-08-14T09:04:55Z</time>
      </trkpt>
      <trkpt lat="42.47188" lon="2.09045">
        <ele>1685.1</ele>
        <time>2013-08-14T09:05:02Z</time>
      </trkpt>
      <trkpt lat="42.47188" lon="2.0905">
        <ele>1686.5</ele>
        <time>2013-08-14T09:05:06Z</time>
      </trkpt>
      <trkpt lat="42.47191" lon="2.09055">
        <ele>1687.2</ele>
        <time>2013-08-14T09:05:10Z</time>
      </trkpt>
      <trkpt lat="42.47192" lon="2.0906">
        <ele>1687.7</ele>
        <time>2013-08-14T09:05:14Z</time>
      </trkpt>
      <trkpt lat="42.47194" lon="2.09064">
        <ele>1687.5</ele>
        <time>2013-08-14T09:05:17Z</time>
      </trkpt>
      <trkpt lat="42.47193" lon="2.09069">
        <ele>1687.6</ele>
        <time>2013-08-14T09:05:22Z</time>
      </trkpt>
      <trkpt lat="42.47191" lon="2.09075">
        <ele>1688.6</ele>
        <time>2013-08-14T09:05:26Z</time>
      </trkpt>
      <trkpt lat="42.47194" lon="2.09078">
        <ele>1689.6</ele>
        <time>2013-08-14T09:05:30Z</time>
      </trkpt>
      <trkpt lat="42.47195" lon="2.09083">
        <ele>1689.6</ele>
        <time>2013-08-14T09:05:34Z</time>
      </trkpt>
      <trkpt lat="42.47195" lon="2.09089">
        <ele>1690.3</ele>
        <time>2013-08-14T09:05:39Z</time>
      </trkpt>
      <trkpt lat="42.47194" lon="2.09094">
        <ele>1691.1</ele>
        <time>2013-08-14T09:05:44Z</time>
      </trkpt>
      <trkpt lat="42.47192" lon="2.091">
        <ele>1692.2</ele>
        <time>2013-08-14T09:05:49Z</time>
      </trkpt>
      <trkpt lat="42.47192" lon="2.09105">
        <ele>1692.2</ele>
        <time>2013-08-14T09:05:53Z</time>
      </trkpt>
      <trkpt lat="42.47192" lon="2.0911">
        <ele>1692.8</ele>
        <time>2013-08-14T09:05:57Z</time>
      </trkpt>
      <trkpt lat="42.47192" lon="2.09111">
        <ele>1692.9</ele>
        <time>2013-08-14T09:05:58Z</time>
      </trkpt>
      <trkpt lat="42.47191" lon="2.0912">
        <ele>1694.9</ele>
        <time>2013-08-14T09:06:10Z</time>
      </trkpt>
      <trkpt lat="42.4719" lon="2.09125">
        <ele>1696.2</ele>
        <time>2013-08-14T09:06:16Z</time>
      </trkpt>
      <trkpt lat="42.47189" lon="2.09131">
        <ele>1697.3</ele>
        <time>2013-08-14T09:06:22Z</time>
      </trkpt>
      <trkpt lat="42.47188" lon="2.09136">
        <ele>1697.8</ele>
        <time>2013-08-14T09:06:26Z</time>
      </trkpt>
      <trkpt lat="42.47189" lon="2.09142">
        <ele>1699.3</ele>
        <time>2013-08-14T09:06:32Z</time>
      </trkpt>
      <trkpt lat="42.47187" lon="2.09146">
        <ele>1699.7</ele>
        <time>2013-08-14T09:06:36Z</time>
      </trkpt>
      <trkpt lat="42.47185" lon="2.0915">
        <ele>1699.5</ele>
        <time>2013-08-14T09:06:40Z</time>
      </trkpt>
      <trkpt lat="42.47183" lon="2.09154">
        <ele>1700.4</ele>
        <time>2013-08-14T09:06:44Z</time>
      </trkpt>
      <trkpt lat="42.47181" lon="2.0916">
        <ele>1700.7</ele>
        <time>2013-08-14T09:06:49Z</time>
      </trkpt>
      <trkpt lat="42.47179" lon="2.09164">
        <ele>1701.3</ele>
        <time>2013-08-14T09:06:53Z</time>
      </trkpt>
      <trkpt lat="42.47177" lon="2.09169">
        <ele>1702.4</ele>
        <time>2013-08-14T09:06:58Z</time>
      </trkpt>
      <trkpt lat="42.47177" lon="2.0917">
        <ele>1702.4</ele>
        <time>2013-08-14T09:06:59Z</time>
      </trkpt>
      <trkpt lat="42.47177" lon="2.09179">
        <ele>1703.4</ele>
        <time>2013-08-14T09:07:07Z</time>
      </trkpt>
      <trkpt lat="42.47178" lon="2.09184">
        <ele>1704.4</ele>
        <time>2013-08-14T09:07:11Z</time>
      </trkpt>
      <trkpt lat="42.47179" lon="2.09189">
        <ele>1705.2</ele>
        <time>2013-08-14T09:07:15Z</time>
      </trkpt>
      <trkpt lat="42.47177" lon="2.09195">
        <ele>1705.4</ele>
        <time>2013-08-14T09:07:19Z</time>
      </trkpt>
      <trkpt lat="42.47176" lon="2.09201">
        <ele>1705.9</ele>
        <time>2013-08-14T09:07:23Z</time>
      </trkpt>
      <trkpt lat="42.47174" lon="2.09205">
        <ele>1706.4</ele>
        <time>2013-08-14T09:07:27Z</time>
      </trkpt>
      <trkpt lat="42.47172" lon="2.09211">
        <ele>1707</ele>
        <time>2013-08-14T09:07:31Z</time>
      </trkpt>
      <trkpt lat="42.47172" lon="2.09216">
        <ele>1707</ele>
        <time>2013-08-14T09:07:34Z</time>
      </trkpt>
      <trkpt lat="42.47171" lon="2.09221">
        <ele>1707.6</ele>
        <time>2013-08-14T09:07:39Z</time>
      </trkpt>
      <trkpt lat="42.4717" lon="2.09226">
        <ele>1708.9</ele>
        <time>2013-08-14T09:07:44Z</time>
      </trkpt>
      <trkpt lat="42.47169" lon="2.09231">
        <ele>1709.2</ele>
        <time>2013-08-14T09:07:48Z</time>
      </trkpt>
      <trkpt lat="42.47167" lon="2.09234">
        <ele>1709.5</ele>
        <time>2013-08-14T09:07:51Z</time>
      </trkpt>
      <trkpt lat="42.47165" lon="2.09239">
        <ele>1709.7</ele>
        <time>2013-08-14T09:07:55Z</time>
      </trkpt>
      <trkpt lat="42.47164" lon="2.09244">
        <ele>1710</ele>
        <time>2013-08-14T09:07:58Z</time>
      </trkpt>
      <trkpt lat="42.47163" lon="2.09249">
        <ele>1710.5</ele>
        <time>2013-08-14T09:08:02Z</time>
      </trkpt>
      <trkpt lat="42.47163" lon="2.09251">
        <ele>1710.5</ele>
        <time>2013-08-14T09:08:03Z</time>
      </trkpt>
      <trkpt lat="42.47161" lon="2.0926">
        <ele>1710.7</ele>
        <time>2013-08-14T09:08:10Z</time>
      </trkpt>
      <trkpt lat="42.47161" lon="2.09265">
        <ele>1711.4</ele>
        <time>2013-08-14T09:08:14Z</time>
      </trkpt>
      <trkpt lat="42.47161" lon="2.09271">
        <ele>1711.5</ele>
        <time>2013-08-14T09:08:18Z</time>
      </trkpt>
      <trkpt lat="42.4716" lon="2.09275">
        <ele>1712</ele>
        <time>2013-08-14T09:08:22Z</time>
      </trkpt>
      <trkpt lat="42.47159" lon="2.0928">
        <ele>1712.7</ele>
        <time>2013-08-14T09:08:25Z</time>
      </trkpt>
      <trkpt lat="42.47157" lon="2.09285">
        <ele>1712.5</ele>
        <time>2013-08-14T09:08:29Z</time>
      </trkpt>
      <trkpt lat="42.47156" lon="2.09289">
        <ele>1713.4</ele>
        <time>2013-08-14T09:08:32Z</time>
      </trkpt>
      <trkpt lat="42.47155" lon="2.09294">
        <ele>1714</ele>
        <time>2013-08-14T09:08:36Z</time>
      </trkpt>
      <trkpt lat="42.47154" lon="2.09299">
        <ele>1714</ele>
        <time>2013-08-14T09:08:40Z</time>
      </trkpt>
      <trkpt lat="42.47153" lon="2.09303">
        <ele>1714.2</ele>
        <time>2013-08-14T09:08:43Z</time>
      </trkpt>
      <trkpt lat="42.47152" lon="2.09309">
        <ele>1715.4</ele>
        <time>2013-08-14T09:08:48Z</time>
      </trkpt>
      <trkpt lat="42.47152" lon="2.09314">
        <ele>1716.2</ele>
        <time>2013-08-14T09:08:52Z</time>
      </trkpt>
      <trkpt lat="42.47152" lon="2.09319">
        <ele>1716.4</ele>
        <time>2013-08-14T09:08:56Z</time>
      </trkpt>
      <trkpt lat="42.47151" lon="2.09324">
        <ele>1716.5</ele>
        <time>2013-08-14T09:08:59Z</time>
      </trkpt>
      <trkpt lat="42.4715" lon="2.09328">
        <ele>1716.7</ele>
        <time>2013-08-14T09:09:03Z</time>
      </trkpt>
      <trkpt lat="42.4715" lon="2.0933">
        <ele>1716.7</ele>
        <time>2013-08-14T09:09:04Z</time>
      </trkpt>
      <trkpt lat="42.47151" lon="2.09339">
        <ele>1717.9</ele>
        <time>2013-08-14T09:09:10Z</time>
      </trkpt>
      <trkpt lat="42.47151" lon="2.09344">
        <ele>1718.9</ele>
        <time>2013-08-14T09:09:15Z</time>
      </trkpt>
      <trkpt lat="42.47151" lon="2.09349">
        <ele>1719.3</ele>
        <time>2013-08-14T09:09:19Z</time>
      </trkpt>
      <trkpt lat="42.4715" lon="2.09355">
        <ele>1720</ele>
        <time>2013-08-14T09:09:25Z</time>
      </trkpt>
      <trkpt lat="42.47151" lon="2.0936">
        <ele>1720.3</ele>
        <time>2013-08-14T09:09:29Z</time>
      </trkpt>
      <trkpt lat="42.47152" lon="2.09366">
        <ele>1720.2</ele>
        <time>2013-08-14T09:09:33Z</time>
      </trkpt>
      <trkpt lat="42.47153" lon="2.09371">
        <ele>1720.5</ele>
        <time>2013-08-14T09:09:37Z</time>
      </trkpt>
      <trkpt lat="42.47153" lon="2.09376">
        <ele>1721.8</ele>
        <time>2013-08-14T09:09:42Z</time>
      </trkpt>
      <trkpt lat="42.47152" lon="2.09381">
        <ele>1721.7</ele>
        <time>2013-08-14T09:09:45Z</time>
      </trkpt>
      <trkpt lat="42.47151" lon="2.09386">
        <ele>1721.1</ele>
        <time>2013-08-14T09:09:49Z</time>
      </trkpt>
      <trkpt lat="42.47149" lon="2.09391">
        <ele>1722.4</ele>
        <time>2013-08-14T09:09:53Z</time>
      </trkpt>
      <trkpt lat="42.47148" lon="2.09396">
        <ele>1722.8</ele>
        <time>2013-08-14T09:09:56Z</time>
      </trkpt>
      <trkpt lat="42.47149" lon="2.09401">
        <ele>1723.7</ele>
        <time>2013-08-14T09:10:01Z</time>
      </trkpt>
      <trkpt lat="42.47149" lon="2.09405">
        <ele>1724.4</ele>
        <time>2013-08-14T09:10:05Z</time>
      </trkpt>
      <trkpt lat="42.47149" lon="2.09407">
        <ele>1724.6</ele>
        <time>2013-08-14T09:10:06Z</time>
      </trkpt>
      <trkpt lat="42.4715" lon="2.09417">
        <ele>1725.7</ele>
        <time>2013-08-14T09:10:16Z</time>
      </trkpt>
      <trkpt lat="42.4715" lon="2.09422">
        <ele>1726.5</ele>
        <time>2013-08-14T09:10:21Z</time>
      </trkpt>
      <trkpt lat="42.47151" lon="2.09427">
        <ele>1726.6</ele>
        <time>2013-08-14T09:10:25Z</time>
      </trkpt>
      <trkpt lat="42.47152" lon="2.09432">
        <ele>1727.2</ele>
        <time>2013-08-14T09:10:29Z</time>
      </trkpt>
      <trkpt lat="42.47153" lon="2.09437">
        <ele>1727.6</ele>
        <time>2013-08-14T09:10:34Z</time>
      </trkpt>
      <trkpt lat="42.47152" lon="2.09442">
        <ele>1728.7</ele>
        <time>2013-08-14T09:10:38Z</time>
      </trkpt>
      <trkpt lat="42.47152" lon="2.09448">
        <ele>1729.1</ele>
        <time>2013-08-14T09:10:42Z</time>
      </trkpt>
      <trkpt lat="42.47151" lon="2.09453">
        <ele>1729.3</ele>
        <time>2013-08-14T09:10:46Z</time>
      </trkpt>
      <trkpt lat="42.47151" lon="2.09459">
        <ele>1729.7</ele>
        <time>2013-08-14T09:10:51Z</time>
      </trkpt>
      <trkpt lat="42.47152" lon="2.09465">
        <ele>1729.9</ele>
        <time>2013-08-14T09:10:55Z</time>
      </trkpt>
      <trkpt lat="42.47151" lon="2.0947">
        <ele>1729.7</ele>
        <time>2013-08-14T09:10:59Z</time>
      </trkpt>
      <trkpt lat="42.4715" lon="2.09474">
        <ele>1730.6</ele>
        <time>2013-08-14T09:11:03Z</time>
      </trkpt>
      <trkpt lat="42.47149" lon="2.0948">
        <ele>1730.8</ele>
        <time>2013-08-14T09:11:07Z</time>
      </trkpt>
      <trkpt lat="42.4715" lon="2.09481">
        <ele>1730.9</ele>
        <time>2013-08-14T09:11:08Z</time>
      </trkpt>
      <trkpt lat="42.47148" lon="2.0949">
        <ele>1731.2</ele>
        <time>2013-08-14T09:11:14Z</time>
      </trkpt>
      <trkpt lat="42.47146" lon="2.09496">
        <ele>1732.5</ele>
        <time>2013-08-14T09:11:18Z</time>
      </trkpt>
      <trkpt lat="42.47146" lon="2.09501">
        <ele>1733.1</ele>
        <time>2013-08-14T09:11:22Z</time>
      </trkpt>
      <trkpt lat="42.47145" lon="2.09506">
        <ele>1733.6</ele>
        <time>2013-08-14T09:11:26Z</time>
      </trkpt>
      <trkpt lat="42.47145" lon="2.09512">
        <ele>1734.6</ele>
        <time>2013-08-14T09:11:30Z</time>
      </trkpt>
      <trkpt lat="42.47145" lon="2.09518">
        <ele>1734.4</ele>
        <time>2013-08-14T09:11:35Z</time>
      </trkpt>
      <trkpt lat="42.47146" lon="2.09522">
        <ele>1734.3</ele>
        <time>2013-08-14T09:11:39Z</time>
      </trkpt>
      <trkpt lat="42.47147" lon="2.09527">
        <ele>1735.1</ele>
        <time>2013-08-14T09:11:42Z</time>
      </trkpt>
      <trkpt lat="42.47147" lon="2.09533">
        <ele>1735.8</ele>
        <time>2013-08-14T09:11:46Z</time>
      </trkpt>
      <trkpt lat="42.47146" lon="2.09538">
        <ele>1736</ele>
        <time>2013-08-14T09:11:50Z</time>
      </trkpt>
      <trkpt lat="42.47145" lon="2.09542">
        <ele>1736.9</ele>
        <time>2013-08-14T09:11:54Z</time>
      </trkpt>
      <trkpt lat="42.47146" lon="2.09548">
        <ele>1737.5</ele>
        <time>2013-08-14T09:11:59Z</time>
      </trkpt>
      <trkpt lat="42.47146" lon="2.09553">
        <ele>1738.4</ele>
        <time>2013-08-14T09:12:05Z</time>
      </trkpt>
      <trkpt lat="42.47146" lon="2.09559">
        <ele>1738.4</ele>
        <time>2013-08-14T09:12:09Z</time>
      </trkpt>
      <trkpt lat="42.47146" lon="2.0956">
        <ele>1738.3</ele>
        <time>2013-08-14T09:12:10Z</time>
      </trkpt>
      <trkpt lat="42.47144" lon="2.09569">
        <ele>1738.7</ele>
        <time>2013-08-14T09:12:18Z</time>
      </trkpt>
      <trkpt lat="42.47143" lon="2.09574">
        <ele>1738.7</ele>
        <time>2013-08-14T09:12:22Z</time>
      </trkpt>
      <trkpt lat="42.47146" lon="2.09579">
        <ele>1739.8</ele>
        <time>2013-08-14T09:12:51Z</time>
      </trkpt>
      <trkpt lat="42.47147" lon="2.09584">
        <ele>1739.7</ele>
        <time>2013-08-14T09:13:08Z</time>
      </trkpt>
      <trkpt lat="42.47145" lon="2.09589">
        <ele>1740.5</ele>
        <time>2013-08-14T09:13:15Z</time>
      </trkpt>
      <trkpt lat="42.47146" lon="2.09591">
        <ele>1740.8</ele>
        <time>2013-08-14T09:13:16Z</time>
      </trkpt>
      <trkpt lat="42.47143" lon="2.096">
        <ele>1740.6</ele>
        <time>2013-08-14T09:13:24Z</time>
      </trkpt>
      <trkpt lat="42.47141" lon="2.09604">
        <ele>1740.9</ele>
        <time>2013-08-14T09:13:28Z</time>
      </trkpt>
      <trkpt lat="42.47139" lon="2.0961">
        <ele>1742.1</ele>
        <time>2013-08-14T09:13:33Z</time>
      </trkpt>
      <trkpt lat="42.47137" lon="2.09614">
        <ele>1742.2</ele>
        <time>2013-08-14T09:13:37Z</time>
      </trkpt>
      <trkpt lat="42.47135" lon="2.09618">
        <ele>1742.8</ele>
        <time>2013-08-14T09:13:40Z</time>
      </trkpt>
      <trkpt lat="42.47135" lon="2.09623">
        <ele>1743.6</ele>
        <time>2013-08-14T09:13:44Z</time>
      </trkpt>
      <trkpt lat="42.47134" lon="2.09629">
        <ele>1743.8</ele>
        <time>2013-08-14T09:13:48Z</time>
      </trkpt>
      <trkpt lat="42.47134" lon="2.09634">
        <ele>1744.6</ele>
        <time>2013-08-14T09:13:52Z</time>
      </trkpt>
      <trkpt lat="42.47135" lon="2.09639">
        <ele>1745</ele>
        <time>2013-08-14T09:13:55Z</time>
      </trkpt>
      <trkpt lat="42.47135" lon="2.09645">
        <ele>1745.2</ele>
        <time>2013-08-14T09:13:58Z</time>
      </trkpt>
      <trkpt lat="42.47135" lon="2.09649">
        <ele>1745.2</ele>
        <time>2013-08-14T09:14:01Z</time>
      </trkpt>
      <trkpt lat="42.47135" lon="2.09655">
        <ele>1745.3</ele>
        <time>2013-08-14T09:14:04Z</time>
      </trkpt>
      <trkpt lat="42.47136" lon="2.0966">
        <ele>1746.1</ele>
        <time>2013-08-14T09:14:08Z</time>
      </trkpt>
      <trkpt lat="42.47136" lon="2.09666">
        <ele>1746.1</ele>
        <time>2013-08-14T09:14:12Z</time>
      </trkpt>
      <trkpt lat="42.47136" lon="2.0967">
        <ele>1746.4</ele>
        <time>2013-08-14T09:14:15Z</time>
      </trkpt>
      <trkpt lat="42.47136" lon="2.09676">
        <ele>1746.8</ele>
        <time>2013-08-14T09:14:19Z</time>
      </trkpt>
      <trkpt lat="42.47136" lon="2.09676">
        <ele>1746.8</ele>
        <time>2013-08-14T09:14:20Z</time>
      </trkpt>
      <trkpt lat="42.47136" lon="2.09687">
        <ele>1748.1</ele>
        <time>2013-08-14T09:14:27Z</time>
      </trkpt>
      <trkpt lat="42.47135" lon="2.09692">
        <ele>1748.5</ele>
        <time>2013-08-14T09:14:30Z</time>
      </trkpt>
      <trkpt lat="42.47136" lon="2.09696">
        <ele>1748.5</ele>
        <time>2013-08-14T09:14:34Z</time>
      </trkpt>
      <trkpt lat="42.47137" lon="2.09701">
        <ele>1748.6</ele>
        <time>2013-08-14T09:14:37Z</time>
      </trkpt>
      <trkpt lat="42.47138" lon="2.09707">
        <ele>1750</ele>
        <time>2013-08-14T09:14:42Z</time>
      </trkpt>
      <trkpt lat="42.47138" lon="2.09712">
        <ele>1749.8</ele>
        <time>2013-08-14T09:14:46Z</time>
      </trkpt>
      <trkpt lat="42.47139" lon="2.09718">
        <ele>1750.2</ele>
        <time>2013-08-14T09:14:51Z</time>
      </trkpt>
      <trkpt lat="42.47138" lon="2.09724">
        <ele>1750.3</ele>
        <time>2013-08-14T09:14:54Z</time>
      </trkpt>
      <trkpt lat="42.47138" lon="2.0973">
        <ele>1751</ele>
        <time>2013-08-14T09:14:58Z</time>
      </trkpt>
      <trkpt lat="42.47137" lon="2.09735">
        <ele>1751.6</ele>
        <time>2013-08-14T09:15:02Z</time>
      </trkpt>
      <trkpt lat="42.47136" lon="2.0974">
        <ele>1751.8</ele>
        <time>2013-08-14T09:15:05Z</time>
      </trkpt>
      <trkpt lat="42.47136" lon="2.09746">
        <ele>1751.8</ele>
        <time>2013-08-14T09:15:09Z</time>
      </trkpt>
      <trkpt lat="42.47136" lon="2.09751">
        <ele>1752.2</ele>
        <time>2013-08-14T09:15:12Z</time>
      </trkpt>
      <trkpt lat="42.47137" lon="2.09757">
        <ele>1752.8</ele>
        <time>2013-08-14T09:15:16Z</time>
      </trkpt>
      <trkpt lat="42.47137" lon="2.09763">
        <ele>1753.2</ele>
        <time>2013-08-14T09:15:20Z</time>
      </trkpt>
      <trkpt lat="42.47137" lon="2.09764">
        <ele>1753.4</ele>
        <time>2013-08-14T09:15:21Z</time>
      </trkpt>
      <trkpt lat="42.47141" lon="2.09773">
        <ele>1753.5</ele>
        <time>2013-08-14T09:15:26Z</time>
      </trkpt>
      <trkpt lat="42.47142" lon="2.09777">
        <ele>1753.8</ele>
        <time>2013-08-14T09:15:29Z</time>
      </trkpt>
      <trkpt lat="42.47144" lon="2.09781">
        <ele>1754.3</ele>
        <time>2013-08-14T09:15:32Z</time>
      </trkpt>
      <trkpt lat="42.47146" lon="2.09786">
        <ele>1754.7</ele>
        <time>2013-08-14T09:15:35Z</time>
      </trkpt>
      <trkpt lat="42.47147" lon="2.09792">
        <ele>1754.6</ele>
        <time>2013-08-14T09:15:39Z</time>
      </trkpt>
      <trkpt lat="42.47149" lon="2.09797">
        <ele>1755.4</ele>
        <time>2013-08-14T09:15:43Z</time>
      </trkpt>
      <trkpt lat="42.4715" lon="2.09803">
        <ele>1754.9</ele>
        <time>2013-08-14T09:15:47Z</time>
      </trkpt>
      <trkpt lat="42.47151" lon="2.09807">
        <ele>1755.5</ele>
        <time>2013-08-14T09:15:50Z</time>
      </trkpt>
      <trkpt lat="42.47152" lon="2.09812">
        <ele>1756.2</ele>
        <time>2013-08-14T09:15:53Z</time>
      </trkpt>
      <trkpt lat="42.47153" lon="2.09816">
        <ele>1756.2</ele>
        <time>2013-08-14T09:15:56Z</time>
      </trkpt>
      <trkpt lat="42.47152" lon="2.09822">
        <ele>1756.5</ele>
        <time>2013-08-14T09:15:59Z</time>
      </trkpt>
      <trkpt lat="42.47153" lon="2.09827">
        <ele>1756.7</ele>
        <time>2013-08-14T09:16:03Z</time>
      </trkpt>
      <trkpt lat="42.47153" lon="2.09833">
        <ele>1756.5</ele>
        <time>2013-08-14T09:16:07Z</time>
      </trkpt>
      <trkpt lat="42.47153" lon="2.09839">
        <ele>1757.3</ele>
        <time>2013-08-14T09:16:11Z</time>
      </trkpt>
      <trkpt lat="42.47152" lon="2.09845">
        <ele>1758.7</ele>
        <time>2013-08-14T09:16:16Z</time>
      </trkpt>
      <trkpt lat="42.4715" lon="2.09849">
        <ele>1758.4</ele>
        <time>2013-08-14T09:16:21Z</time>
      </trkpt>
      <trkpt lat="42.4715" lon="2.0985">
        <ele>1758.6</ele>
        <time>2013-08-14T09:16:22Z</time>
      </trkpt>
      <trkpt lat="42.47147" lon="2.09859">
        <ele>1758.8</ele>
        <time>2013-08-14T09:16:30Z</time>
      </trkpt>
      <trkpt lat="42.47147" lon="2.09865">
        <ele>1758.6</ele>
        <time>2013-08-14T09:16:34Z</time>
      </trkpt>
      <trkpt lat="42.47145" lon="2.09868">
        <ele>1758.4</ele>
        <time>2013-08-14T09:16:37Z</time>
      </trkpt>
      <trkpt lat="42.47145" lon="2.09873">
        <ele>1759.2</ele>
        <time>2013-08-14T09:16:40Z</time>
      </trkpt>
      <trkpt lat="42.47143" lon="2.09878">
        <ele>1758.7</ele>
        <time>2013-08-14T09:16:43Z</time>
      </trkpt>
      <trkpt lat="42.47142" lon="2.09883">
        <ele>1759.9</ele>
        <time>2013-08-14T09:16:47Z</time>
      </trkpt>
      <trkpt lat="42.47142" lon="2.09888">
        <ele>1759.8</ele>
        <time>2013-08-14T09:16:50Z</time>
      </trkpt>
      <trkpt lat="42.47142" lon="2.09894">
        <ele>1760.3</ele>
        <time>2013-08-14T09:16:53Z</time>
      </trkpt>
      <trkpt lat="42.47142" lon="2.099">
        <ele>1761</ele>
        <time>2013-08-14T09:16:58Z</time>
      </trkpt>
      <trkpt lat="42.47143" lon="2.09905">
        <ele>1761.6</ele>
        <time>2013-08-14T09:17:02Z</time>
      </trkpt>
      <trkpt lat="42.47145" lon="2.0991">
        <ele>1762.5</ele>
        <time>2013-08-14T09:17:08Z</time>
      </trkpt>
      <trkpt lat="42.47148" lon="2.09914">
        <ele>1763.1</ele>
        <time>2013-08-14T09:17:12Z</time>
      </trkpt>
      <trkpt lat="42.47151" lon="2.09918">
        <ele>1763.9</ele>
        <time>2013-08-14T09:17:16Z</time>
      </trkpt>
      <trkpt lat="42.47155" lon="2.0992">
        <ele>1764.1</ele>
        <time>2013-08-14T09:17:20Z</time>
      </trkpt>
      <trkpt lat="42.47158" lon="2.09923">
        <ele>1763.8</ele>
        <time>2013-08-14T09:17:22Z</time>
      </trkpt>
      <trkpt lat="42.47159" lon="2.09924">
        <ele>1764</ele>
        <time>2013-08-14T09:17:23Z</time>
      </trkpt>
      <trkpt lat="42.47165" lon="2.09928">
        <ele>1765.1</ele>
        <time>2013-08-14T09:17:28Z</time>
      </trkpt>
      <trkpt lat="42.47168" lon="2.09932">
        <ele>1764.7</ele>
        <time>2013-08-14T09:17:33Z</time>
      </trkpt>
      <trkpt lat="42.47172" lon="2.09933">
        <ele>1765.5</ele>
        <time>2013-08-14T09:17:39Z</time>
      </trkpt>
      <trkpt lat="42.47176" lon="2.09934">
        <ele>1765.8</ele>
        <time>2013-08-14T09:17:42Z</time>
      </trkpt>
      <trkpt lat="42.4718" lon="2.09935">
        <ele>1765.9</ele>
        <time>2013-08-14T09:17:45Z</time>
      </trkpt>
      <trkpt lat="42.47184" lon="2.09937">
        <ele>1766</ele>
        <time>2013-08-14T09:17:49Z</time>
      </trkpt>
      <trkpt lat="42.47188" lon="2.09937">
        <ele>1766.1</ele>
        <time>2013-08-14T09:17:53Z</time>
      </trkpt>
      <trkpt lat="42.47191" lon="2.09937">
        <ele>1766</ele>
        <time>2013-08-14T09:17:56Z</time>
      </trkpt>
      <trkpt lat="42.47194" lon="2.09938">
        <ele>1765.7</ele>
        <time>2013-08-14T09:17:58Z</time>
      </trkpt>
      <trkpt lat="42.47197" lon="2.09937">
        <ele>1765.3</ele>
        <time>2013-08-14T09:18:00Z</time>
      </trkpt>
      <trkpt lat="42.47201" lon="2.09938">
        <ele>1765.5</ele>
        <time>2013-08-14T09:18:03Z</time>
      </trkpt>
      <trkpt lat="42.47204" lon="2.09939">
        <ele>1764.6</ele>
        <time>2013-08-14T09:18:06Z</time>
      </trkpt>
      <trkpt lat="42.47208" lon="2.09939">
        <ele>1764.6</ele>
        <time>2013-08-14T09:18:09Z</time>
      </trkpt>
      <trkpt lat="42.47212" lon="2.09938">
        <ele>1764.6</ele>
        <time>2013-08-14T09:18:12Z</time>
      </trkpt>
      <trkpt lat="42.47218" lon="2.09937">
        <ele>1764</ele>
        <time>2013-08-14T09:18:16Z</time>
      </trkpt>
      <trkpt lat="42.47224" lon="2.09937">
        <ele>1764</ele>
        <time>2013-08-14T09:18:20Z</time>
      </trkpt>
      <trkpt lat="42.47229" lon="2.09935">
        <ele>1763</ele>
        <time>2013-08-14T09:18:24Z</time>
      </trkpt>
      <trkpt lat="42.47232" lon="2.09935">
        <ele>1763.6</ele>
        <time>2013-08-14T09:18:26Z</time>
      </trkpt>
      <trkpt lat="42.4724" lon="2.09931">
        <ele>1764</ele>
        <time>2013-08-14T09:18:32Z</time>
      </trkpt>
      <trkpt lat="42.47244" lon="2.09929">
        <ele>1764.2</ele>
        <time>2013-08-14T09:18:36Z</time>
      </trkpt>
      <trkpt lat="42.47247" lon="2.09928">
        <ele>1763.9</ele>
        <time>2013-08-14T09:18:39Z</time>
      </trkpt>
      <trkpt lat="42.47251" lon="2.09925">
        <ele>1763.5</ele>
        <time>2013-08-14T09:18:43Z</time>
      </trkpt>
      <trkpt lat="42.47253" lon="2.09922">
        <ele>1763.2</ele>
        <time>2013-08-14T09:18:46Z</time>
      </trkpt>
      <trkpt lat="42.47257" lon="2.0992">
        <ele>1763.3</ele>
        <time>2013-08-14T09:18:49Z</time>
      </trkpt>
      <trkpt lat="42.4726" lon="2.09915">
        <ele>1763</ele>
        <time>2013-08-14T09:18:53Z</time>
      </trkpt>
      <trkpt lat="42.47264" lon="2.09912">
        <ele>1764</ele>
        <time>2013-08-14T09:18:57Z</time>
      </trkpt>
      <trkpt lat="42.47266" lon="2.09908">
        <ele>1763.9</ele>
        <time>2013-08-14T09:18:59Z</time>
      </trkpt>
      <trkpt lat="42.4727" lon="2.09905">
        <ele>1763.8</ele>
        <time>2013-08-14T09:19:02Z</time>
      </trkpt>
      <trkpt lat="42.47272" lon="2.09901">
        <ele>1763.7</ele>
        <time>2013-08-14T09:19:06Z</time>
      </trkpt>
      <trkpt lat="42.47276" lon="2.09899">
        <ele>1763.4</ele>
        <time>2013-08-14T09:19:09Z</time>
      </trkpt>
      <trkpt lat="42.47279" lon="2.09896">
        <ele>1763</ele>
        <time>2013-08-14T09:19:12Z</time>
      </trkpt>
      <trkpt lat="42.47283" lon="2.09894">
        <ele>1763.1</ele>
        <time>2013-08-14T09:19:15Z</time>
      </trkpt>
      <trkpt lat="42.47286" lon="2.09892">
        <ele>1763.1</ele>
        <time>2013-08-14T09:19:18Z</time>
      </trkpt>
      <trkpt lat="42.47289" lon="2.09888">
        <ele>1763.1</ele>
        <time>2013-08-14T09:19:21Z</time>
      </trkpt>
      <trkpt lat="42.47293" lon="2.09883">
        <ele>1763</ele>
        <time>2013-08-14T09:19:25Z</time>
      </trkpt>
      <trkpt lat="42.47295" lon="2.09881">
        <ele>1763.8</ele>
        <time>2013-08-14T09:19:27Z</time>
      </trkpt>
      <trkpt lat="42.47301" lon="2.09877">
        <ele>1763.7</ele>
        <time>2013-08-14T09:19:32Z</time>
      </trkpt>
      <trkpt lat="42.47303" lon="2.09875">
        <ele>1763.2</ele>
        <time>2013-08-14T09:19:34Z</time>
      </trkpt>
      <trkpt lat="42.47306" lon="2.09873">
        <ele>1762.7</ele>
        <time>2013-08-14T09:19:36Z</time>
      </trkpt>
      <trkpt lat="42.47309" lon="2.09872">
        <ele>1763.1</ele>
        <time>2013-08-14T09:19:38Z</time>
      </trkpt>
      <trkpt lat="42.47313" lon="2.0987">
        <ele>1763</ele>
        <time>2013-08-14T09:19:41Z</time>
      </trkpt>
      <trkpt lat="42.47317" lon="2.0987">
        <ele>1763.1</ele>
        <time>2013-08-14T09:19:44Z</time>
      </trkpt>
      <trkpt lat="42.47321" lon="2.09869">
        <ele>1763.5</ele>
        <time>2013-08-14T09:19:47Z</time>
      </trkpt>
      <trkpt lat="42.47325" lon="2.0987">
        <ele>1763.9</ele>
        <time>2013-08-14T09:19:53Z</time>
      </trkpt>
      <trkpt lat="42.47328" lon="2.09866">
        <ele>1763.1</ele>
        <time>2013-08-14T09:19:59Z</time>
      </trkpt>
      <trkpt lat="42.47331" lon="2.09865">
        <ele>1763.6</ele>
        <time>2013-08-14T09:20:01Z</time>
      </trkpt>
      <trkpt lat="42.47335" lon="2.09864">
        <ele>1763.3</ele>
        <time>2013-08-14T09:20:03Z</time>
      </trkpt>
      <trkpt lat="42.47339" lon="2.09863">
        <ele>1763.3</ele>
        <time>2013-08-14T09:20:12Z</time>
      </trkpt>
      <trkpt lat="42.47343" lon="2.09863">
        <ele>1763.1</ele>
        <time>2013-08-14T09:20:16Z</time>
      </trkpt>
      <trkpt lat="42.47346" lon="2.09863">
        <ele>1763</ele>
        <time>2013-08-14T09:20:18Z</time>
      </trkpt>
      <trkpt lat="42.4735" lon="2.09862">
        <ele>1762.8</ele>
        <time>2013-08-14T09:20:21Z</time>
      </trkpt>
      <trkpt lat="42.47352" lon="2.09862">
        <ele>1762.5</ele>
        <time>2013-08-14T09:20:23Z</time>
      </trkpt>
      <trkpt lat="42.47356" lon="2.09861">
        <ele>1762.9</ele>
        <time>2013-08-14T09:20:26Z</time>
      </trkpt>
      <trkpt lat="42.4736" lon="2.09861">
        <ele>1762.7</ele>
        <time>2013-08-14T09:20:28Z</time>
      </trkpt>
      <trkpt lat="42.47361" lon="2.09861">
        <ele>1762.6</ele>
        <time>2013-08-14T09:20:29Z</time>
      </trkpt>
      <trkpt lat="42.47368" lon="2.09859">
        <ele>1762</ele>
        <time>2013-08-14T09:20:35Z</time>
      </trkpt>
      <trkpt lat="42.47371" lon="2.09855">
        <ele>1761.5</ele>
        <time>2013-08-14T09:20:39Z</time>
      </trkpt>
      <trkpt lat="42.47374" lon="2.09854">
        <ele>1760.5</ele>
        <time>2013-08-14T09:20:42Z</time>
      </trkpt>
      <trkpt lat="42.47378" lon="2.09852">
        <ele>1760.1</ele>
        <time>2013-08-14T09:20:45Z</time>
      </trkpt>
      <trkpt lat="42.47381" lon="2.09851">
        <ele>1759.7</ele>
        <time>2013-08-14T09:20:47Z</time>
      </trkpt>
      <trkpt lat="42.47384" lon="2.09851">
        <ele>1759.3</ele>
        <time>2013-08-14T09:20:49Z</time>
      </trkpt>
      <trkpt lat="42.47388" lon="2.09849">
        <ele>1758.8</ele>
        <time>2013-08-14T09:20:52Z</time>
      </trkpt>
      <trkpt lat="42.47391" lon="2.09847">
        <ele>1758</ele>
        <time>2013-08-14T09:20:54Z</time>
      </trkpt>
      <trkpt lat="42.47395" lon="2.09846">
        <ele>1757.7</ele>
        <time>2013-08-14T09:20:57Z</time>
      </trkpt>
      <trkpt lat="42.47399" lon="2.09844">
        <ele>1757.6</ele>
        <time>2013-08-14T09:21:00Z</time>
      </trkpt>
      <trkpt lat="42.47403" lon="2.09843">
        <ele>1757</ele>
        <time>2013-08-14T09:21:04Z</time>
      </trkpt>
      <trkpt lat="42.47407" lon="2.09841">
        <ele>1756.5</ele>
        <time>2013-08-14T09:21:08Z</time>
      </trkpt>
      <trkpt lat="42.47412" lon="2.0984">
        <ele>1756.3</ele>
        <time>2013-08-14T09:21:11Z</time>
      </trkpt>
      <trkpt lat="42.47416" lon="2.09841">
        <ele>1755.5</ele>
        <time>2013-08-14T09:21:14Z</time>
      </trkpt>
      <trkpt lat="42.4742" lon="2.09841">
        <ele>1755.4</ele>
        <time>2013-08-14T09:21:17Z</time>
      </trkpt>
      <trkpt lat="42.47423" lon="2.09841">
        <ele>1755.4</ele>
        <time>2013-08-14T09:21:20Z</time>
      </trkpt>
      <trkpt lat="42.47427" lon="2.09841">
        <ele>1754.8</ele>
        <time>2013-08-14T09:21:23Z</time>
      </trkpt>
      <trkpt lat="42.47431" lon="2.09841">
        <ele>1753.9</ele>
        <time>2013-08-14T09:21:27Z</time>
      </trkpt>
      <trkpt lat="42.47436" lon="2.09841">
        <ele>1752.7</ele>
        <time>2013-08-14T09:21:30Z</time>
      </trkpt>
      <trkpt lat="42.47437" lon="2.09842">
        <ele>1752.5</ele>
        <time>2013-08-14T09:21:31Z</time>
      </trkpt>
      <trkpt lat="42.47443" lon="2.09843">
        <ele>1752.9</ele>
        <time>2013-08-14T09:21:34Z</time>
      </trkpt>
      <trkpt lat="42.47447" lon="2.09844">
        <ele>1752.5</ele>
        <time>2013-08-14T09:21:37Z</time>
      </trkpt>
      <trkpt lat="42.47451" lon="2.09844">
        <ele>1751.7</ele>
        <time>2013-08-14T09:21:40Z</time>
      </trkpt>
      <trkpt lat="42.47455" lon="2.09845">
        <ele>1751.1</ele>
        <time>2013-08-14T09:21:43Z</time>
      </trkpt>
      <trkpt lat="42.47459" lon="2.09846">
        <ele>1750.2</ele>
        <time>2013-08-14T09:21:46Z</time>
      </trkpt>
      <trkpt lat="42.47463" lon="2.09847">
        <ele>1750.4</ele>
        <time>2013-08-14T09:21:49Z</time>
      </trkpt>
      <trkpt lat="42.47466" lon="2.09848">
        <ele>1750.5</ele>
        <time>2013-08-14T09:21:52Z</time>
      </trkpt>
      <trkpt lat="42.4747" lon="2.09848">
        <ele>1750.1</ele>
        <time>2013-08-14T09:21:54Z</time>
      </trkpt>
      <trkpt lat="42.47473" lon="2.0985">
        <ele>1749.5</ele>
        <time>2013-08-14T09:21:56Z</time>
      </trkpt>
      <trkpt lat="42.47477" lon="2.0985">
        <ele>1749.5</ele>
        <time>2013-08-14T09:21:59Z</time>
      </trkpt>
      <trkpt lat="42.47481" lon="2.0985">
        <ele>1749.1</ele>
        <time>2013-08-14T09:22:02Z</time>
      </trkpt>
      <trkpt lat="42.47484" lon="2.0985">
        <ele>1748.7</ele>
        <time>2013-08-14T09:22:04Z</time>
      </trkpt>
      <trkpt lat="42.47487" lon="2.0985">
        <ele>1748.3</ele>
        <time>2013-08-14T09:22:06Z</time>
      </trkpt>
      <trkpt lat="42.47492" lon="2.09851">
        <ele>1749.3</ele>
        <time>2013-08-14T09:22:09Z</time>
      </trkpt>
      <trkpt lat="42.47496" lon="2.09852">
        <ele>1748.6</ele>
        <time>2013-08-14T09:22:12Z</time>
      </trkpt>
      <trkpt lat="42.47499" lon="2.09853">
        <ele>1747.8</ele>
        <time>2013-08-14T09:22:14Z</time>
      </trkpt>
      <trkpt lat="42.47502" lon="2.09853">
        <ele>1747.7</ele>
        <time>2013-08-14T09:22:16Z</time>
      </trkpt>
      <trkpt lat="42.47506" lon="2.09852">
        <ele>1747.9</ele>
        <time>2013-08-14T09:22:19Z</time>
      </trkpt>
      <trkpt lat="42.4751" lon="2.09852">
        <ele>1746.8</ele>
        <time>2013-08-14T09:22:23Z</time>
      </trkpt>
      <trkpt lat="42.47514" lon="2.09853">
        <ele>1746.6</ele>
        <time>2013-08-14T09:22:26Z</time>
      </trkpt>
      <trkpt lat="42.47517" lon="2.09853">
        <ele>1746</ele>
        <time>2013-08-14T09:22:28Z</time>
      </trkpt>
      <trkpt lat="42.47521" lon="2.09854">
        <ele>1746</ele>
        <time>2013-08-14T09:22:31Z</time>
      </trkpt>
      <trkpt lat="42.47523" lon="2.09854">
        <ele>1745.7</ele>
        <time>2013-08-14T09:22:32Z</time>
      </trkpt>
      <trkpt lat="42.4753" lon="2.09854">
        <ele>1745.2</ele>
        <time>2013-08-14T09:22:37Z</time>
      </trkpt>
      <trkpt lat="42.47533" lon="2.09854">
        <ele>1744.6</ele>
        <time>2013-08-14T09:22:39Z</time>
      </trkpt>
      <trkpt lat="42.47537" lon="2.09854">
        <ele>1744.2</ele>
        <time>2013-08-14T09:22:42Z</time>
      </trkpt>
      <trkpt lat="42.47541" lon="2.09854">
        <ele>1744</ele>
        <time>2013-08-14T09:22:45Z</time>
      </trkpt>
      <trkpt lat="42.47545" lon="2.09854">
        <ele>1743.4</ele>
        <time>2013-08-14T09:22:49Z</time>
      </trkpt>
      <trkpt lat="42.47549" lon="2.09855">
        <ele>1743.5</ele>
        <time>2013-08-14T09:22:51Z</time>
      </trkpt>
      <trkpt lat="42.47552" lon="2.09855">
        <ele>1743.6</ele>
        <time>2013-08-14T09:22:53Z</time>
      </trkpt>
      <trkpt lat="42.47556" lon="2.09855">
        <ele>1743.4</ele>
        <time>2013-08-14T09:22:56Z</time>
      </trkpt>
      <trkpt lat="42.47559" lon="2.09856">
        <ele>1743.3</ele>
        <time>2013-08-14T09:22:58Z</time>
      </trkpt>
      <trkpt lat="42.47564" lon="2.09856">
        <ele>1743.3</ele>
        <time>2013-08-14T09:23:01Z</time>
      </trkpt>
      <trkpt lat="42.47567" lon="2.09856">
        <ele>1743.3</ele>
        <time>2013-08-14T09:23:03Z</time>
      </trkpt>
      <trkpt lat="42.47571" lon="2.09856">
        <ele>1742.9</ele>
        <time>2013-08-14T09:23:05Z</time>
      </trkpt>
      <trkpt lat="42.47574" lon="2.09855">
        <ele>1742.4</ele>
        <time>2013-08-14T09:23:08Z</time>
      </trkpt>
      <trkpt lat="42.47578" lon="2.09854">
        <ele>1741.8</ele>
        <time>2013-08-14T09:23:11Z</time>
      </trkpt>
      <trkpt lat="42.47585" lon="2.09851">
        <ele>1740</ele>
        <time>2013-08-14T09:23:16Z</time>
      </trkpt>
      <trkpt lat="42.47589" lon="2.09851">
        <ele>1740.4</ele>
        <time>2013-08-14T09:23:20Z</time>
      </trkpt>
      <trkpt lat="42.47593" lon="2.0985">
        <ele>1740.2</ele>
        <time>2013-08-14T09:23:23Z</time>
      </trkpt>
      <trkpt lat="42.47596" lon="2.0985">
        <ele>1740.3</ele>
        <time>2013-08-14T09:23:26Z</time>
      </trkpt>
      <trkpt lat="42.47601" lon="2.09849">
        <ele>1739.1</ele>
        <time>2013-08-14T09:23:29Z</time>
      </trkpt>
      <trkpt lat="42.47605" lon="2.09848">
        <ele>1738.6</ele>
        <time>2013-08-14T09:23:32Z</time>
      </trkpt>
      <trkpt lat="42.47607" lon="2.09848">
        <ele>1738.3</ele>
        <time>2013-08-14T09:23:33Z</time>
      </trkpt>
      <trkpt lat="42.47612" lon="2.09846">
        <ele>1737.8</ele>
        <time>2013-08-14T09:23:37Z</time>
      </trkpt>
      <trkpt lat="42.47615" lon="2.09845">
        <ele>1737.8</ele>
        <time>2013-08-14T09:23:40Z</time>
      </trkpt>
      <trkpt lat="42.47619" lon="2.09843">
        <ele>1737.1</ele>
        <time>2013-08-14T09:23:43Z</time>
      </trkpt>
      <trkpt lat="42.47623" lon="2.09842">
        <ele>1736.4</ele>
        <time>2013-08-14T09:23:46Z</time>
      </trkpt>
      <trkpt lat="42.47627" lon="2.09841">
        <ele>1736.6</ele>
        <time>2013-08-14T09:23:49Z</time>
      </trkpt>
      <trkpt lat="42.47631" lon="2.0984">
        <ele>1736.5</ele>
        <time>2013-08-14T09:23:52Z</time>
      </trkpt>
      <trkpt lat="42.47634" lon="2.09838">
        <ele>1735.7</ele>
        <time>2013-08-14T09:23:55Z</time>
      </trkpt>
      <trkpt lat="42.47638" lon="2.09838">
        <ele>1734.9</ele>
        <time>2013-08-14T09:23:58Z</time>
      </trkpt>
      <trkpt lat="42.47641" lon="2.09837">
        <ele>1734.5</ele>
        <time>2013-08-14T09:24:00Z</time>
      </trkpt>
      <trkpt lat="42.47645" lon="2.09836">
        <ele>1734.4</ele>
        <time>2013-08-14T09:24:02Z</time>
      </trkpt>
      <trkpt lat="42.47649" lon="2.09835">
        <ele>1734.4</ele>
        <time>2013-08-14T09:24:05Z</time>
      </trkpt>
      <trkpt lat="42.47654" lon="2.09834">
        <ele>1734.2</ele>
        <time>2013-08-14T09:24:08Z</time>
      </trkpt>
      <trkpt lat="42.47657" lon="2.09833">
        <ele>1733.8</ele>
        <time>2013-08-14T09:24:10Z</time>
      </trkpt>
      <trkpt lat="42.47661" lon="2.09833">
        <ele>1733.5</ele>
        <time>2013-08-14T09:24:13Z</time>
      </trkpt>
      <trkpt lat="42.47665" lon="2.09833">
        <ele>1732.9</ele>
        <time>2013-08-14T09:24:16Z</time>
      </trkpt>
      <trkpt lat="42.47669" lon="2.09833">
        <ele>1732.7</ele>
        <time>2013-08-14T09:24:19Z</time>
      </trkpt>
      <trkpt lat="42.47673" lon="2.09833">
        <ele>1733</ele>
        <time>2013-08-14T09:24:22Z</time>
      </trkpt>
      <trkpt lat="42.47677" lon="2.09834">
        <ele>1733.1</ele>
        <time>2013-08-14T09:24:25Z</time>
      </trkpt>
      <trkpt lat="42.47681" lon="2.09835">
        <ele>1732.3</ele>
        <time>2013-08-14T09:24:28Z</time>
      </trkpt>
      <trkpt lat="42.47685" lon="2.09835">
        <ele>1731.1</ele>
        <time>2013-08-14T09:24:31Z</time>
      </trkpt>
      <trkpt lat="42.47689" lon="2.09834">
        <ele>1730.8</ele>
        <time>2013-08-14T09:24:34Z</time>
      </trkpt>
      <trkpt lat="42.4769" lon="2.09833">
        <ele>1731</ele>
        <time>2013-08-14T09:24:35Z</time>
      </trkpt>
      <trkpt lat="42.47694" lon="2.09828">
        <ele>1731.6</ele>
        <time>2013-08-14T09:24:39Z</time>
      </trkpt>
      <trkpt lat="42.47696" lon="2.09823">
        <ele>1730.7</ele>
        <time>2013-08-14T09:24:46Z</time>
      </trkpt>
      <trkpt lat="42.47694" lon="2.09817">
        <ele>1730.1</ele>
        <time>2013-08-14T09:25:03Z</time>
      </trkpt>
      <trkpt lat="42.47693" lon="2.09813">
        <ele>1730.6</ele>
        <time>2013-08-14T09:25:11Z</time>
      </trkpt>
      <trkpt lat="42.47693" lon="2.09807">
        <ele>1730</ele>
        <time>2013-08-14T09:25:14Z</time>
      </trkpt>
      <trkpt lat="42.47691" lon="2.09802">
        <ele>1729.3</ele>
        <time>2013-08-14T09:25:17Z</time>
      </trkpt>
      <trkpt lat="42.47689" lon="2.09797">
        <ele>1729.4</ele>
        <time>2013-08-14T09:25:20Z</time>
      </trkpt>
      <trkpt lat="42.47687" lon="2.09793">
        <ele>1728.7</ele>
        <time>2013-08-14T09:25:23Z</time>
      </trkpt>
      <trkpt lat="42.47686" lon="2.09788">
        <ele>1728.2</ele>
        <time>2013-08-14T09:25:26Z</time>
      </trkpt>
      <trkpt lat="42.47684" lon="2.09784">
        <ele>1728</ele>
        <time>2013-08-14T09:25:29Z</time>
      </trkpt>
      <trkpt lat="42.47682" lon="2.09779">
        <ele>1727.7</ele>
        <time>2013-08-14T09:25:32Z</time>
      </trkpt>
      <trkpt lat="42.47681" lon="2.09774">
        <ele>1727.5</ele>
        <time>2013-08-14T09:25:35Z</time>
      </trkpt>
      <trkpt lat="42.4768" lon="2.09772">
        <ele>1727.4</ele>
        <time>2013-08-14T09:25:36Z</time>
      </trkpt>
      <trkpt lat="42.4768" lon="2.09764">
        <ele>1727</ele>
        <time>2013-08-14T09:25:42Z</time>
      </trkpt>
      <trkpt lat="42.4768" lon="2.09759">
        <ele>1726.8</ele>
        <time>2013-08-14T09:25:45Z</time>
      </trkpt>
      <trkpt lat="42.47679" lon="2.09753">
        <ele>1725.9</ele>
        <time>2013-08-14T09:25:48Z</time>
      </trkpt>
      <trkpt lat="42.47678" lon="2.09748">
        <ele>1725.6</ele>
        <time>2013-08-14T09:25:51Z</time>
      </trkpt>
      <trkpt lat="42.47678" lon="2.09743">
        <ele>1725.7</ele>
        <time>2013-08-14T09:25:54Z</time>
      </trkpt>
      <trkpt lat="42.47676" lon="2.09738">
        <ele>1725.8</ele>
        <time>2013-08-14T09:25:57Z</time>
      </trkpt>
      <trkpt lat="42.47675" lon="2.09733">
        <ele>1725.4</ele>
        <time>2013-08-14T09:26:00Z</time>
      </trkpt>
      <trkpt lat="42.47674" lon="2.09727">
        <ele>1724.5</ele>
        <time>2013-08-14T09:26:03Z</time>
      </trkpt>
      <trkpt lat="42.47673" lon="2.09724">
        <ele>1723.9</ele>
        <time>2013-08-14T09:26:06Z</time>
      </trkpt>
      <trkpt lat="42.47672" lon="2.09719">
        <ele>1723.7</ele>
        <time>2013-08-14T09:26:08Z</time>
      </trkpt>
      <trkpt lat="42.47671" lon="2.09714">
        <ele>1723.7</ele>
        <time>2013-08-14T09:26:11Z</time>
      </trkpt>
      <trkpt lat="42.4767" lon="2.09708">
        <ele>1723.7</ele>
        <time>2013-08-14T09:26:14Z</time>
      </trkpt>
      <trkpt lat="42.4767" lon="2.09703">
        <ele>1722.7</ele>
        <time>2013-08-14T09:26:18Z</time>
      </trkpt>
      <trkpt lat="42.47672" lon="2.09699">
        <ele>1721.7</ele>
        <time>2013-08-14T09:26:22Z</time>
      </trkpt>
      <trkpt lat="42.47675" lon="2.09695">
        <ele>1721.1</ele>
        <time>2013-08-14T09:26:26Z</time>
      </trkpt>
      <trkpt lat="42.47677" lon="2.0969">
        <ele>1720.5</ele>
        <time>2013-08-14T09:26:31Z</time>
      </trkpt>
      <trkpt lat="42.4768" lon="2.09685">
        <ele>1719.9</ele>
        <time>2013-08-14T09:26:35Z</time>
      </trkpt>
      <trkpt lat="42.47682" lon="2.09681">
        <ele>1719.4</ele>
        <time>2013-08-14T09:26:38Z</time>
      </trkpt>
      <trkpt lat="42.47684" lon="2.0968">
        <ele>1719.1</ele>
        <time>2013-08-14T09:26:39Z</time>
      </trkpt>
      <trkpt lat="42.47689" lon="2.09676">
        <ele>1717.2</ele>
        <time>2013-08-14T09:26:45Z</time>
      </trkpt>
      <trkpt lat="42.47693" lon="2.09674">
        <ele>1716.7</ele>
        <time>2013-08-14T09:26:48Z</time>
      </trkpt>
      <trkpt lat="42.47697" lon="2.09673">
        <ele>1716.4</ele>
        <time>2013-08-14T09:26:51Z</time>
      </trkpt>
      <trkpt lat="42.477" lon="2.09669">
        <ele>1716.3</ele>
        <time>2013-08-14T09:27:03Z</time>
      </trkpt>
      <trkpt lat="42.47703" lon="2.09666">
        <ele>1715.4</ele>
        <time>2013-08-14T09:27:07Z</time>
      </trkpt>
      <trkpt lat="42.47704" lon="2.09662">
        <ele>1714.3</ele>
        <time>2013-08-14T09:27:10Z</time>
      </trkpt>
      <trkpt lat="42.47705" lon="2.09656">
        <ele>1713.7</ele>
        <time>2013-08-14T09:27:13Z</time>
      </trkpt>
      <trkpt lat="42.47706" lon="2.0965">
        <ele>1713.5</ele>
        <time>2013-08-14T09:27:16Z</time>
      </trkpt>
      <trkpt lat="42.47706" lon="2.09646">
        <ele>1713.2</ele>
        <time>2013-08-14T09:27:18Z</time>
      </trkpt>
      <trkpt lat="42.47706" lon="2.0964">
        <ele>1712.4</ele>
        <time>2013-08-14T09:27:21Z</time>
      </trkpt>
      <trkpt lat="42.47705" lon="2.09634">
        <ele>1712.3</ele>
        <time>2013-08-14T09:27:24Z</time>
      </trkpt>
      <trkpt lat="42.47703" lon="2.09629">
        <ele>1711.5</ele>
        <time>2013-08-14T09:27:28Z</time>
      </trkpt>
      <trkpt lat="42.477" lon="2.09624">
        <ele>1711.4</ele>
        <time>2013-08-14T09:27:32Z</time>
      </trkpt>
      <trkpt lat="42.47699" lon="2.0962">
        <ele>1711.2</ele>
        <time>2013-08-14T09:27:34Z</time>
      </trkpt>
      <trkpt lat="42.47699" lon="2.09615">
        <ele>1710.7</ele>
        <time>2013-08-14T09:27:37Z</time>
      </trkpt>
      <trkpt lat="42.47698" lon="2.09611">
        <ele>1710.4</ele>
        <time>2013-08-14T09:27:39Z</time>
      </trkpt>
      <trkpt lat="42.47697" lon="2.09609">
        <ele>1710.3</ele>
        <time>2013-08-14T09:27:40Z</time>
      </trkpt>
      <trkpt lat="42.47695" lon="2.09601">
        <ele>1709.8</ele>
        <time>2013-08-14T09:27:45Z</time>
      </trkpt>
      <trkpt lat="42.47693" lon="2.09596">
        <ele>1709.7</ele>
        <time>2013-08-14T09:27:48Z</time>
      </trkpt>
      <trkpt lat="42.47691" lon="2.09591">
        <ele>1708.9</ele>
        <time>2013-08-14T09:27:51Z</time>
      </trkpt>
      <trkpt lat="42.47689" lon="2.09586">
        <ele>1709</ele>
        <time>2013-08-14T09:27:55Z</time>
      </trkpt>
      <trkpt lat="42.47686" lon="2.09583">
        <ele>1708.6</ele>
        <time>2013-08-14T09:27:58Z</time>
      </trkpt>
      <trkpt lat="42.47684" lon="2.09579">
        <ele>1707.7</ele>
        <time>2013-08-14T09:28:00Z</time>
      </trkpt>
      <trkpt lat="42.47681" lon="2.09576">
        <ele>1707.4</ele>
        <time>2013-08-14T09:28:02Z</time>
      </trkpt>
      <trkpt lat="42.47679" lon="2.09571">
        <ele>1707.4</ele>
        <time>2013-08-14T09:28:05Z</time>
      </trkpt>
      <trkpt lat="42.4768" lon="2.09565">
        <ele>1706.5</ele>
        <time>2013-08-14T09:28:09Z</time>
      </trkpt>
      <trkpt lat="42.47678" lon="2.09562">
        <ele>1706.2</ele>
        <time>2013-08-14T09:28:11Z</time>
      </trkpt>
      <trkpt lat="42.47675" lon="2.09559">
        <ele>1706.3</ele>
        <time>2013-08-14T09:28:14Z</time>
      </trkpt>
      <trkpt lat="42.47673" lon="2.09554">
        <ele>1705.8</ele>
        <time>2013-08-14T09:28:17Z</time>
      </trkpt>
      <trkpt lat="42.47671" lon="2.09551">
        <ele>1704.6</ele>
        <time>2013-08-14T09:28:20Z</time>
      </trkpt>
      <trkpt lat="42.47668" lon="2.09547">
        <ele>1704</ele>
        <time>2013-08-14T09:28:23Z</time>
      </trkpt>
      <trkpt lat="42.47667" lon="2.09543">
        <ele>1703.6</ele>
        <time>2013-08-14T09:28:26Z</time>
      </trkpt>
      <trkpt lat="42.47666" lon="2.09538">
        <ele>1703.8</ele>
        <time>2013-08-14T09:28:29Z</time>
      </trkpt>
      <trkpt lat="42.47663" lon="2.09534">
        <ele>1703.3</ele>
        <time>2013-08-14T09:28:32Z</time>
      </trkpt>
      <trkpt lat="42.47662" lon="2.0953">
        <ele>1703.2</ele>
        <time>2013-08-14T09:28:35Z</time>
      </trkpt>
      <trkpt lat="42.47659" lon="2.09528">
        <ele>1702.5</ele>
        <time>2013-08-14T09:28:37Z</time>
      </trkpt>
      <trkpt lat="42.47656" lon="2.09525">
        <ele>1701.9</ele>
        <time>2013-08-14T09:28:39Z</time>
      </trkpt>
      <trkpt lat="42.47653" lon="2.09521">
        <ele>1701.1</ele>
        <time>2013-08-14T09:28:42Z</time>
      </trkpt>
      <trkpt lat="42.47652" lon="2.09519">
        <ele>1700.6</ele>
        <time>2013-08-14T09:28:43Z</time>
      </trkpt>
      <trkpt lat="42.47648" lon="2.09514">
        <ele>1699.8</ele>
        <time>2013-08-14T09:28:47Z</time>
      </trkpt>
      <trkpt lat="42.47645" lon="2.09511">
        <ele>1699.5</ele>
        <time>2013-08-14T09:28:49Z</time>
      </trkpt>
      <trkpt lat="42.47642" lon="2.09508">
        <ele>1699</ele>
        <time>2013-08-14T09:28:51Z</time>
      </trkpt>
      <trkpt lat="42.47639" lon="2.09503">
        <ele>1698.4</ele>
        <time>2013-08-14T09:28:55Z</time>
      </trkpt>
      <trkpt lat="42.47637" lon="2.09499">
        <ele>1698.1</ele>
        <time>2013-08-14T09:28:58Z</time>
      </trkpt>
      <trkpt lat="42.47635" lon="2.09496">
        <ele>1698.2</ele>
        <time>2013-08-14T09:29:01Z</time>
      </trkpt>
      <trkpt lat="42.47632" lon="2.09493">
        <ele>1697.5</ele>
        <time>2013-08-14T09:29:03Z</time>
      </trkpt>
      <trkpt lat="42.47629" lon="2.0949">
        <ele>1697.3</ele>
        <time>2013-08-14T09:29:05Z</time>
      </trkpt>
      <trkpt lat="42.47627" lon="2.09485">
        <ele>1696.9</ele>
        <time>2013-08-14T09:29:09Z</time>
      </trkpt>
      <trkpt lat="42.47626" lon="2.0948">
        <ele>1696.3</ele>
        <time>2013-08-14T09:29:12Z</time>
      </trkpt>
      <trkpt lat="42.47623" lon="2.09476">
        <ele>1695.3</ele>
        <time>2013-08-14T09:29:16Z</time>
      </trkpt>
      <trkpt lat="42.47622" lon="2.09471">
        <ele>1695.3</ele>
        <time>2013-08-14T09:29:19Z</time>
      </trkpt>
      <trkpt lat="42.4762" lon="2.09466">
        <ele>1694.6</ele>
        <time>2013-08-14T09:29:23Z</time>
      </trkpt>
      <trkpt lat="42.47619" lon="2.0946">
        <ele>1695.1</ele>
        <time>2013-08-14T09:29:26Z</time>
      </trkpt>
      <trkpt lat="42.47618" lon="2.09455">
        <ele>1693.5</ele>
        <time>2013-08-14T09:29:31Z</time>
      </trkpt>
      <trkpt lat="42.47621" lon="2.0945">
        <ele>1692.3</ele>
        <time>2013-08-14T09:29:35Z</time>
      </trkpt>
      <trkpt lat="42.47624" lon="2.09446">
        <ele>1691.7</ele>
        <time>2013-08-14T09:29:40Z</time>
      </trkpt>
      <trkpt lat="42.47628" lon="2.09446">
        <ele>1690.8</ele>
        <time>2013-08-14T09:29:43Z</time>
      </trkpt>
      <trkpt lat="42.47629" lon="2.09445">
        <ele>1690.5</ele>
        <time>2013-08-14T09:29:44Z</time>
      </trkpt>
      <trkpt lat="42.47631" lon="2.09435">
        <ele>1689.7</ele>
        <time>2013-08-14T09:29:51Z</time>
      </trkpt>
      <trkpt lat="42.47631" lon="2.09429">
        <ele>1690</ele>
        <time>2013-08-14T09:29:58Z</time>
      </trkpt>
      <trkpt lat="42.47627" lon="2.09428">
        <ele>1688.5</ele>
        <time>2013-08-14T09:30:15Z</time>
      </trkpt>
      <trkpt lat="42.47626" lon="2.09423">
        <ele>1688.6</ele>
        <time>2013-08-14T09:30:51Z</time>
      </trkpt>
      <trkpt lat="42.47626" lon="2.09422">
        <ele>1688.7</ele>
        <time>2013-08-14T09:30:52Z</time>
      </trkpt>
      <trkpt lat="42.47629" lon="2.09414">
        <ele>1687.7</ele>
        <time>2013-08-14T09:30:59Z</time>
      </trkpt>
      <trkpt lat="42.47629" lon="2.09409">
        <ele>1687.4</ele>
        <time>2013-08-14T09:31:02Z</time>
      </trkpt>
      <trkpt lat="42.47629" lon="2.09403">
        <ele>1687.4</ele>
        <time>2013-08-14T09:31:05Z</time>
      </trkpt>
      <trkpt lat="42.47629" lon="2.09399">
        <ele>1687.4</ele>
        <time>2013-08-14T09:31:08Z</time>
      </trkpt>
      <trkpt lat="42.47628" lon="2.09395">
        <ele>1686.8</ele>
        <time>2013-08-14T09:31:10Z</time>
      </trkpt>
      <trkpt lat="42.47628" lon="2.0939">
        <ele>1686.5</ele>
        <time>2013-08-14T09:31:12Z</time>
      </trkpt>
      <trkpt lat="42.47627" lon="2.09386">
        <ele>1686.2</ele>
        <time>2013-08-14T09:31:14Z</time>
      </trkpt>
      <trkpt lat="42.47626" lon="2.09382">
        <ele>1685.7</ele>
        <time>2013-08-14T09:31:16Z</time>
      </trkpt>
      <trkpt lat="42.47625" lon="2.09376">
        <ele>1685</ele>
        <time>2013-08-14T09:31:19Z</time>
      </trkpt>
      <trkpt lat="42.47624" lon="2.0937">
        <ele>1684.6</ele>
        <time>2013-08-14T09:31:22Z</time>
      </trkpt>
      <trkpt lat="42.47624" lon="2.09365">
        <ele>1684.6</ele>
        <time>2013-08-14T09:31:25Z</time>
      </trkpt>
      <trkpt lat="42.47623" lon="2.09359">
        <ele>1685</ele>
        <time>2013-08-14T09:31:28Z</time>
      </trkpt>
      <trkpt lat="42.47621" lon="2.09354">
        <ele>1685.1</ele>
        <time>2013-08-14T09:31:31Z</time>
      </trkpt>
      <trkpt lat="42.47619" lon="2.09349">
        <ele>1683.9</ele>
        <time>2013-08-14T09:31:34Z</time>
      </trkpt>
      <trkpt lat="42.47617" lon="2.09344">
        <ele>1683.5</ele>
        <time>2013-08-14T09:31:37Z</time>
      </trkpt>
      <trkpt lat="42.47616" lon="2.0934">
        <ele>1682.1</ele>
        <time>2013-08-14T09:31:40Z</time>
      </trkpt>
      <trkpt lat="42.47614" lon="2.09335">
        <ele>1681.3</ele>
        <time>2013-08-14T09:31:43Z</time>
      </trkpt>
      <trkpt lat="42.47613" lon="2.09331">
        <ele>1680.4</ele>
        <time>2013-08-14T09:31:46Z</time>
      </trkpt>
      <trkpt lat="42.4761" lon="2.09328">
        <ele>1680.1</ele>
        <time>2013-08-14T09:31:48Z</time>
      </trkpt>
      <trkpt lat="42.47609" lon="2.09323">
        <ele>1679.9</ele>
        <time>2013-08-14T09:31:52Z</time>
      </trkpt>
      <trkpt lat="42.47608" lon="2.09321">
        <ele>1679.9</ele>
        <time>2013-08-14T09:31:53Z</time>
      </trkpt>
      <trkpt lat="42.47604" lon="2.09314">
        <ele>1679.7</ele>
        <time>2013-08-14T09:31:56Z</time>
      </trkpt>
      <trkpt lat="42.47603" lon="2.09311">
        <ele>1679.6</ele>
        <time>2013-08-14T09:31:58Z</time>
      </trkpt>
      <trkpt lat="42.47602" lon="2.09307">
        <ele>1679.5</ele>
        <time>2013-08-14T09:32:00Z</time>
      </trkpt>
      <trkpt lat="42.476" lon="2.09302">
        <ele>1679.4</ele>
        <time>2013-08-14T09:32:02Z</time>
      </trkpt>
      <trkpt lat="42.47598" lon="2.09298">
        <ele>1679.1</ele>
        <time>2013-08-14T09:32:04Z</time>
      </trkpt>
      <trkpt lat="42.47595" lon="2.09294">
        <ele>1678.7</ele>
        <time>2013-08-14T09:32:06Z</time>
      </trkpt>
      <trkpt lat="42.47595" lon="2.09289">
        <ele>1677.7</ele>
        <time>2013-08-14T09:32:08Z</time>
      </trkpt>
      <trkpt lat="42.47593" lon="2.09284">
        <ele>1677.4</ele>
        <time>2013-08-14T09:32:11Z</time>
      </trkpt>
      <trkpt lat="42.4759" lon="2.09281">
        <ele>1677.1</ele>
        <time>2013-08-14T09:32:13Z</time>
      </trkpt>
      <trkpt lat="42.47588" lon="2.09277">
        <ele>1676.6</ele>
        <time>2013-08-14T09:32:15Z</time>
      </trkpt>
      <trkpt lat="42.47586" lon="2.09271">
        <ele>1676.1</ele>
        <time>2013-08-14T09:32:18Z</time>
      </trkpt>
      <trkpt lat="42.47583" lon="2.09267">
        <ele>1675</ele>
        <time>2013-08-14T09:32:22Z</time>
      </trkpt>
      <trkpt lat="42.47582" lon="2.09261">
        <ele>1674.8</ele>
        <time>2013-08-14T09:32:25Z</time>
      </trkpt>
      <trkpt lat="42.47581" lon="2.0926">
        <ele>1674.6</ele>
        <time>2013-08-14T09:32:26Z</time>
      </trkpt>
      <trkpt lat="42.47578" lon="2.09258">
        <ele>1674.5</ele>
        <time>2013-08-14T09:32:27Z</time>
      </trkpt>
      <trkpt lat="42.47576" lon="2.09254">
        <ele>1674.3</ele>
        <time>2013-08-14T09:32:29Z</time>
      </trkpt>
      <trkpt lat="42.47574" lon="2.0925">
        <ele>1674.2</ele>
        <time>2013-08-14T09:32:31Z</time>
      </trkpt>
      <trkpt lat="42.47572" lon="2.09246">
        <ele>1674</ele>
        <time>2013-08-14T09:32:33Z</time>
      </trkpt>
      <trkpt lat="42.47571" lon="2.0924">
        <ele>1674</ele>
        <time>2013-08-14T09:32:36Z</time>
      </trkpt>
      <trkpt lat="42.4757" lon="2.09235">
        <ele>1674.3</ele>
        <time>2013-08-14T09:32:39Z</time>
      </trkpt>
      <trkpt lat="42.47571" lon="2.09229">
        <ele>1673.7</ele>
        <time>2013-08-14T09:32:43Z</time>
      </trkpt>
      <trkpt lat="42.47572" lon="2.09225">
        <ele>1672.6</ele>
        <time>2013-08-14T09:32:47Z</time>
      </trkpt>
      <trkpt lat="42.47575" lon="2.0922">
        <ele>1672.9</ele>
        <time>2013-08-14T09:32:51Z</time>
      </trkpt>
      <trkpt lat="42.47577" lon="2.09217">
        <ele>1672.7</ele>
        <time>2013-08-14T09:32:53Z</time>
      </trkpt>
      <trkpt lat="42.47578" lon="2.09216">
        <ele>1672.6</ele>
        <time>2013-08-14T09:32:54Z</time>
      </trkpt>
      <trkpt lat="42.47582" lon="2.09209">
        <ele>1671.9</ele>
        <time>2013-08-14T09:33:00Z</time>
      </trkpt>
      <trkpt lat="42.47585" lon="2.09207">
        <ele>1671.4</ele>
        <time>2013-08-14T09:33:03Z</time>
      </trkpt>
      <trkpt lat="42.47588" lon="2.09204">
        <ele>1670</ele>
        <time>2013-08-14T09:33:06Z</time>
      </trkpt>
      <trkpt lat="42.47591" lon="2.09199">
        <ele>1670.3</ele>
        <time>2013-08-14T09:33:09Z</time>
      </trkpt>
      <trkpt lat="42.47592" lon="2.09195">
        <ele>1669.7</ele>
        <time>2013-08-14T09:33:12Z</time>
      </trkpt>
      <trkpt lat="42.47595" lon="2.09191">
        <ele>1668.9</ele>
        <time>2013-08-14T09:33:15Z</time>
      </trkpt>
      <trkpt lat="42.47596" lon="2.09185">
        <ele>1668.3</ele>
        <time>2013-08-14T09:33:18Z</time>
      </trkpt>
      <trkpt lat="42.47596" lon="2.09179">
        <ele>1668.1</ele>
        <time>2013-08-14T09:33:21Z</time>
      </trkpt>
      <trkpt lat="42.47598" lon="2.09175">
        <ele>1668</ele>
        <time>2013-08-14T09:33:23Z</time>
      </trkpt>
      <trkpt lat="42.476" lon="2.09171">
        <ele>1667.3</ele>
        <time>2013-08-14T09:33:26Z</time>
      </trkpt>
      <trkpt lat="42.476" lon="2.09167">
        <ele>1666.8</ele>
        <time>2013-08-14T09:33:29Z</time>
      </trkpt>
      <trkpt lat="42.47598" lon="2.09162">
        <ele>1666.2</ele>
        <time>2013-08-14T09:33:32Z</time>
      </trkpt>
      <trkpt lat="42.47597" lon="2.09156">
        <ele>1664.6</ele>
        <time>2013-08-14T09:33:35Z</time>
      </trkpt>
      <trkpt lat="42.47596" lon="2.0915">
        <ele>1664.4</ele>
        <time>2013-08-14T09:33:38Z</time>
      </trkpt>
      <trkpt lat="42.47594" lon="2.09147">
        <ele>1664</ele>
        <time>2013-08-14T09:33:40Z</time>
      </trkpt>
      <trkpt lat="42.47592" lon="2.09142">
        <ele>1663.9</ele>
        <time>2013-08-14T09:33:43Z</time>
      </trkpt>
      <trkpt lat="42.4759" lon="2.09137">
        <ele>1663.6</ele>
        <time>2013-08-14T09:33:46Z</time>
      </trkpt>
      <trkpt lat="42.47588" lon="2.09132">
        <ele>1662.9</ele>
        <time>2013-08-14T09:33:49Z</time>
      </trkpt>
      <trkpt lat="42.47586" lon="2.09129">
        <ele>1662.9</ele>
        <time>2013-08-14T09:33:51Z</time>
      </trkpt>
      <trkpt lat="42.47584" lon="2.09126">
        <ele>1662.5</ele>
        <time>2013-08-14T09:33:53Z</time>
      </trkpt>
      <trkpt lat="42.47583" lon="2.09121">
        <ele>1662.3</ele>
        <time>2013-08-14T09:33:55Z</time>
      </trkpt>
      <trkpt lat="42.47582" lon="2.09119">
        <ele>1662.2</ele>
        <time>2013-08-14T09:33:56Z</time>
      </trkpt>
      <trkpt lat="42.4758" lon="2.09111">
        <ele>1660.9</ele>
        <time>2013-08-14T09:34:01Z</time>
      </trkpt>
      <trkpt lat="42.47579" lon="2.09106">
        <ele>1659.3</ele>
        <time>2013-08-14T09:34:04Z</time>
      </trkpt>
      <trkpt lat="42.47578" lon="2.09101">
        <ele>1659.2</ele>
        <time>2013-08-14T09:34:08Z</time>
      </trkpt>
      <trkpt lat="42.47575" lon="2.09097">
        <ele>1658.6</ele>
        <time>2013-08-14T09:34:11Z</time>
      </trkpt>
      <trkpt lat="42.47573" lon="2.09093">
        <ele>1657.9</ele>
        <time>2013-08-14T09:34:14Z</time>
      </trkpt>
      <trkpt lat="42.4757" lon="2.09088">
        <ele>1657.2</ele>
        <time>2013-08-14T09:34:17Z</time>
      </trkpt>
      <trkpt lat="42.47569" lon="2.09084">
        <ele>1656.5</ele>
        <time>2013-08-14T09:34:20Z</time>
      </trkpt>
      <trkpt lat="42.47567" lon="2.09079">
        <ele>1655.6</ele>
        <time>2013-08-14T09:34:24Z</time>
      </trkpt>
      <trkpt lat="42.47567" lon="2.09073">
        <ele>1655.1</ele>
        <time>2013-08-14T09:34:28Z</time>
      </trkpt>
      <trkpt lat="42.47565" lon="2.09069">
        <ele>1654.4</ele>
        <time>2013-08-14T09:34:31Z</time>
      </trkpt>
      <trkpt lat="42.47563" lon="2.09065">
        <ele>1654</ele>
        <time>2013-08-14T09:34:34Z</time>
      </trkpt>
      <trkpt lat="42.47562" lon="2.09061">
        <ele>1653.5</ele>
        <time>2013-08-14T09:34:37Z</time>
      </trkpt>
      <trkpt lat="42.47562" lon="2.09056">
        <ele>1653.1</ele>
        <time>2013-08-14T09:34:40Z</time>
      </trkpt>
      <trkpt lat="42.47561" lon="2.09052">
        <ele>1652.9</ele>
        <time>2013-08-14T09:34:43Z</time>
      </trkpt>
      <trkpt lat="42.47559" lon="2.09047">
        <ele>1652</ele>
        <time>2013-08-14T09:34:46Z</time>
      </trkpt>
      <trkpt lat="42.47557" lon="2.09042">
        <ele>1650.8</ele>
        <time>2013-08-14T09:34:49Z</time>
      </trkpt>
      <trkpt lat="42.47556" lon="2.09037">
        <ele>1650.3</ele>
        <time>2013-08-14T09:34:52Z</time>
      </trkpt>
      <trkpt lat="42.47554" lon="2.09033">
        <ele>1649.5</ele>
        <time>2013-08-14T09:34:54Z</time>
      </trkpt>
      <trkpt lat="42.47553" lon="2.09029">
        <ele>1648.8</ele>
        <time>2013-08-14T09:34:57Z</time>
      </trkpt>
      <trkpt lat="42.47553" lon="2.09027">
        <ele>1648.6</ele>
        <time>2013-08-14T09:34:58Z</time>
      </trkpt>
      <trkpt lat="42.47551" lon="2.09019">
        <ele>1647.8</ele>
        <time>2013-08-14T09:35:02Z</time>
      </trkpt>
      <trkpt lat="42.47549" lon="2.09013">
        <ele>1647.2</ele>
        <time>2013-08-14T09:35:05Z</time>
      </trkpt>
      <trkpt lat="42.47548" lon="2.09009">
        <ele>1646.4</ele>
        <time>2013-08-14T09:35:08Z</time>
      </trkpt>
      <trkpt lat="42.47545" lon="2.09005">
        <ele>1646.3</ele>
        <time>2013-08-14T09:35:11Z</time>
      </trkpt>
      <trkpt lat="42.47544" lon="2.09001">
        <ele>1645.7</ele>
        <time>2013-08-14T09:35:14Z</time>
      </trkpt>
      <trkpt lat="42.47541" lon="2.08998">
        <ele>1645.7</ele>
        <time>2013-08-14T09:35:17Z</time>
      </trkpt>
      <trkpt lat="42.47539" lon="2.08992">
        <ele>1645.6</ele>
        <time>2013-08-14T09:35:22Z</time>
      </trkpt>
      <trkpt lat="42.47537" lon="2.08988">
        <ele>1645.3</ele>
        <time>2013-08-14T09:35:25Z</time>
      </trkpt>
      <trkpt lat="42.47536" lon="2.08983">
        <ele>1644.5</ele>
        <time>2013-08-14T09:35:29Z</time>
      </trkpt>
      <trkpt lat="42.47534" lon="2.08978">
        <ele>1644.3</ele>
        <time>2013-08-14T09:35:32Z</time>
      </trkpt>
      <trkpt lat="42.47534" lon="2.08972">
        <ele>1643.8</ele>
        <time>2013-08-14T09:35:35Z</time>
      </trkpt>
      <trkpt lat="42.47535" lon="2.08967">
        <ele>1643.1</ele>
        <time>2013-08-14T09:35:38Z</time>
      </trkpt>
      <trkpt lat="42.47536" lon="2.08961">
        <ele>1642.7</ele>
        <time>2013-08-14T09:35:43Z</time>
      </trkpt>
      <trkpt lat="42.47537" lon="2.08956">
        <ele>1642.9</ele>
        <time>2013-08-14T09:35:47Z</time>
      </trkpt>
      <trkpt lat="42.47537" lon="2.08951">
        <ele>1643</ele>
        <time>2013-08-14T09:35:50Z</time>
      </trkpt>
      <trkpt lat="42.47538" lon="2.08945">
        <ele>1642</ele>
        <time>2013-08-14T09:35:54Z</time>
      </trkpt>
      <trkpt lat="42.4754" lon="2.0894">
        <ele>1641.7</ele>
        <time>2013-08-14T09:35:58Z</time>
      </trkpt>
      <trkpt lat="42.4754" lon="2.08939">
        <ele>1641.7</ele>
        <time>2013-08-14T09:35:59Z</time>
      </trkpt>
      <trkpt lat="42.47542" lon="2.0893">
        <ele>1641.3</ele>
        <time>2013-08-14T09:36:07Z</time>
      </trkpt>
      <trkpt lat="42.47545" lon="2.08925">
        <ele>1641.5</ele>
        <time>2013-08-14T09:36:11Z</time>
      </trkpt>
      <trkpt lat="42.47547" lon="2.0892">
        <ele>1640.9</ele>
        <time>2013-08-14T09:36:17Z</time>
      </trkpt>
      <trkpt lat="42.47551" lon="2.08917">
        <ele>1639.8</ele>
        <time>2013-08-14T09:36:22Z</time>
      </trkpt>
      <trkpt lat="42.47554" lon="2.08914">
        <ele>1639.4</ele>
        <time>2013-08-14T09:36:26Z</time>
      </trkpt>
      <trkpt lat="42.47557" lon="2.08912">
        <ele>1638.9</ele>
        <time>2013-08-14T09:36:29Z</time>
      </trkpt>
      <trkpt lat="42.4756" lon="2.08909">
        <ele>1638.4</ele>
        <time>2013-08-14T09:36:32Z</time>
      </trkpt>
      <trkpt lat="42.47563" lon="2.08905">
        <ele>1637.4</ele>
        <time>2013-08-14T09:36:37Z</time>
      </trkpt>
      <trkpt lat="42.47566" lon="2.08902">
        <ele>1636.7</ele>
        <time>2013-08-14T09:36:41Z</time>
      </trkpt>
      <trkpt lat="42.47569" lon="2.08899">
        <ele>1636.2</ele>
        <time>2013-08-14T09:36:44Z</time>
      </trkpt>
      <trkpt lat="42.47572" lon="2.08895">
        <ele>1636.4</ele>
        <time>2013-08-14T09:36:47Z</time>
      </trkpt>
      <trkpt lat="42.47574" lon="2.08891">
        <ele>1635.8</ele>
        <time>2013-08-14T09:36:51Z</time>
      </trkpt>
      <trkpt lat="42.47576" lon="2.08886">
        <ele>1634.8</ele>
        <time>2013-08-14T09:36:55Z</time>
      </trkpt>
      <trkpt lat="42.47577" lon="2.08881">
        <ele>1634.2</ele>
        <time>2013-08-14T09:36:58Z</time>
      </trkpt>
      <trkpt lat="42.47579" lon="2.08878">
        <ele>1633.9</ele>
        <time>2013-08-14T09:37:00Z</time>
      </trkpt>
      <trkpt lat="42.4758" lon="2.08877">
        <ele>1633.8</ele>
        <time>2013-08-14T09:37:01Z</time>
      </trkpt>
      <trkpt lat="42.47583" lon="2.08868">
        <ele>1633.9</ele>
        <time>2013-08-14T09:37:07Z</time>
      </trkpt>
      <trkpt lat="42.47585" lon="2.08863">
        <ele>1633.4</ele>
        <time>2013-08-14T09:37:10Z</time>
      </trkpt>
      <trkpt lat="42.47586" lon="2.08859">
        <ele>1632.8</ele>
        <time>2013-08-14T09:37:12Z</time>
      </trkpt>
      <trkpt lat="42.47588" lon="2.08855">
        <ele>1632.1</ele>
        <time>2013-08-14T09:37:14Z</time>
      </trkpt>
      <trkpt lat="42.4759" lon="2.0885">
        <ele>1631.9</ele>
        <time>2013-08-14T09:37:17Z</time>
      </trkpt>
      <trkpt lat="42.47591" lon="2.08845">
        <ele>1631.8</ele>
        <time>2013-08-14T09:37:20Z</time>
      </trkpt>
      <trkpt lat="42.47592" lon="2.08842">
        <ele>1631.6</ele>
        <time>2013-08-14T09:37:22Z</time>
      </trkpt>
      <trkpt lat="42.47593" lon="2.08836">
        <ele>1631.6</ele>
        <time>2013-08-14T09:37:25Z</time>
      </trkpt>
      <trkpt lat="42.47594" lon="2.08832">
        <ele>1630.6</ele>
        <time>2013-08-14T09:37:27Z</time>
      </trkpt>
      <trkpt lat="42.47595" lon="2.08827">
        <ele>1630.4</ele>
        <time>2013-08-14T09:37:29Z</time>
      </trkpt>
      <trkpt lat="42.47595" lon="2.08822">
        <ele>1630.4</ele>
        <time>2013-08-14T09:37:31Z</time>
      </trkpt>
      <trkpt lat="42.47595" lon="2.08818">
        <ele>1630.3</ele>
        <time>2013-08-14T09:37:33Z</time>
      </trkpt>
      <trkpt lat="42.47595" lon="2.08814">
        <ele>1630.2</ele>
        <time>2013-08-14T09:37:35Z</time>
      </trkpt>
      <trkpt lat="42.47595" lon="2.08809">
        <ele>1630.1</ele>
        <time>2013-08-14T09:37:37Z</time>
      </trkpt>
      <trkpt lat="42.47595" lon="2.08804">
        <ele>1630</ele>
        <time>2013-08-14T09:37:39Z</time>
      </trkpt>
      <trkpt lat="42.47595" lon="2.08798">
        <ele>1629.9</ele>
        <time>2013-08-14T09:37:41Z</time>
      </trkpt>
      <trkpt lat="42.47595" lon="2.08793">
        <ele>1629</ele>
        <time>2013-08-14T09:37:43Z</time>
      </trkpt>
      <trkpt lat="42.47594" lon="2.08789">
        <ele>1628.7</ele>
        <time>2013-08-14T09:37:45Z</time>
      </trkpt>
      <trkpt lat="42.47593" lon="2.08783">
        <ele>1628.7</ele>
        <time>2013-08-14T09:37:47Z</time>
      </trkpt>
      <trkpt lat="42.47592" lon="2.08779">
        <ele>1628.2</ele>
        <time>2013-08-14T09:37:49Z</time>
      </trkpt>
      <trkpt lat="42.47591" lon="2.08774">
        <ele>1627.9</ele>
        <time>2013-08-14T09:37:51Z</time>
      </trkpt>
      <trkpt lat="42.4759" lon="2.08769">
        <ele>1627.8</ele>
        <time>2013-08-14T09:37:53Z</time>
      </trkpt>
      <trkpt lat="42.47588" lon="2.08765">
        <ele>1627.5</ele>
        <time>2013-08-14T09:37:55Z</time>
      </trkpt>
      <trkpt lat="42.47588" lon="2.08761">
        <ele>1627.2</ele>
        <time>2013-08-14T09:37:57Z</time>
      </trkpt>
      <trkpt lat="42.47587" lon="2.08756">
        <ele>1627.4</ele>
        <time>2013-08-14T09:37:59Z</time>
      </trkpt>
      <trkpt lat="42.47587" lon="2.08751">
        <ele>1627.4</ele>
        <time>2013-08-14T09:38:02Z</time>
      </trkpt>
      <trkpt lat="42.47586" lon="2.08749">
        <ele>1627.4</ele>
        <time>2013-08-14T09:38:03Z</time>
      </trkpt>
      <trkpt lat="42.47584" lon="2.08741">
        <ele>1626.7</ele>
        <time>2013-08-14T09:38:07Z</time>
      </trkpt>
      <trkpt lat="42.47582" lon="2.08737">
        <ele>1625.4</ele>
        <time>2013-08-14T09:38:09Z</time>
      </trkpt>
      <trkpt lat="42.47579" lon="2.08732">
        <ele>1624.5</ele>
        <time>2013-08-14T09:38:12Z</time>
      </trkpt>
      <trkpt lat="42.47577" lon="2.08728">
        <ele>1624.4</ele>
        <time>2013-08-14T09:38:14Z</time>
      </trkpt>
      <trkpt lat="42.47577" lon="2.08722">
        <ele>1623.8</ele>
        <time>2013-08-14T09:38:18Z</time>
      </trkpt>
      <trkpt lat="42.47576" lon="2.08718">
        <ele>1623.8</ele>
        <time>2013-08-14T09:38:21Z</time>
      </trkpt>
      <trkpt lat="42.47575" lon="2.08712">
        <ele>1623.5</ele>
        <time>2013-08-14T09:38:24Z</time>
      </trkpt>
      <trkpt lat="42.47575" lon="2.08707">
        <ele>1623.1</ele>
        <time>2013-08-14T09:38:27Z</time>
      </trkpt>
      <trkpt lat="42.47574" lon="2.08702">
        <ele>1622</ele>
        <time>2013-08-14T09:38:31Z</time>
      </trkpt>
      <trkpt lat="42.47574" lon="2.08696">
        <ele>1620.9</ele>
        <time>2013-08-14T09:38:35Z</time>
      </trkpt>
      <trkpt lat="42.47573" lon="2.08691">
        <ele>1620</ele>
        <time>2013-08-14T09:38:39Z</time>
      </trkpt>
      <trkpt lat="42.47573" lon="2.08685">
        <ele>1619.8</ele>
        <time>2013-08-14T09:38:43Z</time>
      </trkpt>
      <trkpt lat="42.47574" lon="2.0868">
        <ele>1619.4</ele>
        <time>2013-08-14T09:38:46Z</time>
      </trkpt>
      <trkpt lat="42.47575" lon="2.08675">
        <ele>1618.9</ele>
        <time>2013-08-14T09:38:51Z</time>
      </trkpt>
      <trkpt lat="42.47576" lon="2.08671">
        <ele>1619.1</ele>
        <time>2013-08-14T09:38:54Z</time>
      </trkpt>
      <trkpt lat="42.47577" lon="2.08666">
        <ele>1619.1</ele>
        <time>2013-08-14T09:38:57Z</time>
      </trkpt>
      <trkpt lat="42.47578" lon="2.0866">
        <ele>1618.7</ele>
        <time>2013-08-14T09:39:01Z</time>
      </trkpt>
      <trkpt lat="42.47578" lon="2.08655">
        <ele>1618.5</ele>
        <time>2013-08-14T09:39:05Z</time>
      </trkpt>
      <trkpt lat="42.47578" lon="2.08654">
        <ele>1618.5</ele>
        <time>2013-08-14T09:39:06Z</time>
      </trkpt>
      <trkpt lat="42.47575" lon="2.08645">
        <ele>1617.1</ele>
        <time>2013-08-14T09:39:42Z</time>
      </trkpt>
      <trkpt lat="42.47576" lon="2.08641">
        <ele>1617.6</ele>
        <time>2013-08-14T09:39:45Z</time>
      </trkpt>
      <trkpt lat="42.47575" lon="2.08635">
        <ele>1617.7</ele>
        <time>2013-08-14T09:39:49Z</time>
      </trkpt>
      <trkpt lat="42.47576" lon="2.08629">
        <ele>1617.4</ele>
        <time>2013-08-14T09:39:53Z</time>
      </trkpt>
      <trkpt lat="42.47577" lon="2.08623">
        <ele>1616.5</ele>
        <time>2013-08-14T09:39:57Z</time>
      </trkpt>
      <trkpt lat="42.47577" lon="2.08618">
        <ele>1616.4</ele>
        <time>2013-08-14T09:40:06Z</time>
      </trkpt>
      <trkpt lat="42.47577" lon="2.08617">
        <ele>1616</ele>
        <time>2013-08-14T09:40:07Z</time>
      </trkpt>
      <trkpt lat="42.47578" lon="2.08607">
        <ele>1615.7</ele>
        <time>2013-08-14T09:40:15Z</time>
      </trkpt>
      <trkpt lat="42.47579" lon="2.08602">
        <ele>1615.8</ele>
        <time>2013-08-14T09:40:18Z</time>
      </trkpt>
      <trkpt lat="42.4758" lon="2.08597">
        <ele>1615.5</ele>
        <time>2013-08-14T09:40:21Z</time>
      </trkpt>
      <trkpt lat="42.47582" lon="2.08592">
        <ele>1615.5</ele>
        <time>2013-08-14T09:40:24Z</time>
      </trkpt>
      <trkpt lat="42.47583" lon="2.08588">
        <ele>1615.8</ele>
        <time>2013-08-14T09:40:27Z</time>
      </trkpt>
      <trkpt lat="42.47584" lon="2.08582">
        <ele>1615.5</ele>
        <time>2013-08-14T09:40:30Z</time>
      </trkpt>
      <trkpt lat="42.47584" lon="2.08577">
        <ele>1614.6</ele>
        <time>2013-08-14T09:40:33Z</time>
      </trkpt>
      <trkpt lat="42.47585" lon="2.08572">
        <ele>1615.3</ele>
        <time>2013-08-14T09:40:36Z</time>
      </trkpt>
      <trkpt lat="42.47585" lon="2.08567">
        <ele>1614.9</ele>
        <time>2013-08-14T09:40:39Z</time>
      </trkpt>
      <trkpt lat="42.47587" lon="2.08563">
        <ele>1613.7</ele>
        <time>2013-08-14T09:40:43Z</time>
      </trkpt>
      <trkpt lat="42.47588" lon="2.08558">
        <ele>1613.9</ele>
        <time>2013-08-14T09:40:46Z</time>
      </trkpt>
      <trkpt lat="42.47589" lon="2.08553">
        <ele>1613.2</ele>
        <time>2013-08-14T09:40:49Z</time>
      </trkpt>
      <trkpt lat="42.47591" lon="2.08548">
        <ele>1612.9</ele>
        <time>2013-08-14T09:40:52Z</time>
      </trkpt>
      <trkpt lat="42.47591" lon="2.08543">
        <ele>1613.1</ele>
        <time>2013-08-14T09:40:55Z</time>
      </trkpt>
      <trkpt lat="42.47592" lon="2.08539">
        <ele>1612.8</ele>
        <time>2013-08-14T09:40:58Z</time>
      </trkpt>
      <trkpt lat="42.47593" lon="2.08534">
        <ele>1612.1</ele>
        <time>2013-08-14T09:41:01Z</time>
      </trkpt>
      <trkpt lat="42.47594" lon="2.08529">
        <ele>1611.4</ele>
        <time>2013-08-14T09:41:04Z</time>
      </trkpt>
      <trkpt lat="42.47593" lon="2.08523">
        <ele>1611</ele>
        <time>2013-08-14T09:41:07Z</time>
      </trkpt>
      <trkpt lat="42.47593" lon="2.08522">
        <ele>1610.8</ele>
        <time>2013-08-14T09:41:08Z</time>
      </trkpt>
      <trkpt lat="42.47596" lon="2.08513">
        <ele>1610.9</ele>
        <time>2013-08-14T09:41:14Z</time>
      </trkpt>
      <trkpt lat="42.47597" lon="2.08509">
        <ele>1610.8</ele>
        <time>2013-08-14T09:41:16Z</time>
      </trkpt>
      <trkpt lat="42.47597" lon="2.08504">
        <ele>1610.9</ele>
        <time>2013-08-14T09:41:19Z</time>
      </trkpt>
      <trkpt lat="42.47597" lon="2.08499">
        <ele>1610.8</ele>
        <time>2013-08-14T09:41:22Z</time>
      </trkpt>
      <trkpt lat="42.47597" lon="2.08493">
        <ele>1610.7</ele>
        <time>2013-08-14T09:41:25Z</time>
      </trkpt>
      <trkpt lat="42.47597" lon="2.08489">
        <ele>1610.7</ele>
        <time>2013-08-14T09:41:28Z</time>
      </trkpt>
      <trkpt lat="42.47597" lon="2.08483">
        <ele>1610</ele>
        <time>2013-08-14T09:41:31Z</time>
      </trkpt>
      <trkpt lat="42.47598" lon="2.08479">
        <ele>1609.7</ele>
        <time>2013-08-14T09:41:33Z</time>
      </trkpt>
      <trkpt lat="42.47599" lon="2.08473">
        <ele>1609.3</ele>
        <time>2013-08-14T09:41:36Z</time>
      </trkpt>
      <trkpt lat="42.47598" lon="2.08467">
        <ele>1609.2</ele>
        <time>2013-08-14T09:41:39Z</time>
      </trkpt>
      <trkpt lat="42.47598" lon="2.08463">
        <ele>1609.4</ele>
        <time>2013-08-14T09:41:41Z</time>
      </trkpt>
      <trkpt lat="42.47598" lon="2.08459">
        <ele>1609.5</ele>
        <time>2013-08-14T09:41:43Z</time>
      </trkpt>
      <trkpt lat="42.47598" lon="2.08455">
        <ele>1609.9</ele>
        <time>2013-08-14T09:41:45Z</time>
      </trkpt>
      <trkpt lat="42.47598" lon="2.0845">
        <ele>1610.2</ele>
        <time>2013-08-14T09:41:48Z</time>
      </trkpt>
      <trkpt lat="42.47599" lon="2.08444">
        <ele>1609.8</ele>
        <time>2013-08-14T09:41:51Z</time>
      </trkpt>
      <trkpt lat="42.476" lon="2.0844">
        <ele>1609.6</ele>
        <time>2013-08-14T09:41:53Z</time>
      </trkpt>
      <trkpt lat="42.476" lon="2.08435">
        <ele>1609.8</ele>
        <time>2013-08-14T09:41:55Z</time>
      </trkpt>
      <trkpt lat="42.47599" lon="2.0843">
        <ele>1609.7</ele>
        <time>2013-08-14T09:41:57Z</time>
      </trkpt>
      <trkpt lat="42.476" lon="2.08426">
        <ele>1609.4</ele>
        <time>2013-08-14T09:41:59Z</time>
      </trkpt>
      <trkpt lat="42.476" lon="2.0842">
        <ele>1609.3</ele>
        <time>2013-08-14T09:42:01Z</time>
      </trkpt>
      <trkpt lat="42.47601" lon="2.08415">
        <ele>1609.3</ele>
        <time>2013-08-14T09:42:04Z</time>
      </trkpt>
      <trkpt lat="42.47601" lon="2.0841">
        <ele>1609.4</ele>
        <time>2013-08-14T09:42:06Z</time>
      </trkpt>
      <trkpt lat="42.47601" lon="2.08405">
        <ele>1609.6</ele>
        <time>2013-08-14T09:42:08Z</time>
      </trkpt>
      <trkpt lat="42.47602" lon="2.08402">
        <ele>1609.6</ele>
        <time>2013-08-14T09:42:09Z</time>
      </trkpt>
      <trkpt lat="42.47602" lon="2.08396">
        <ele>1609.1</ele>
        <time>2013-08-14T09:42:12Z</time>
      </trkpt>
      <trkpt lat="42.47604" lon="2.0839">
        <ele>1609.5</ele>
        <time>2013-08-14T09:42:15Z</time>
      </trkpt>
      <trkpt lat="42.47604" lon="2.08387">
        <ele>1609.3</ele>
        <time>2013-08-14T09:42:17Z</time>
      </trkpt>
      <trkpt lat="42.47606" lon="2.08383">
        <ele>1609.2</ele>
        <time>2013-08-14T09:42:19Z</time>
      </trkpt>
      <trkpt lat="42.47607" lon="2.08377">
        <ele>1608.5</ele>
        <time>2013-08-14T09:42:22Z</time>
      </trkpt>
      <trkpt lat="42.47606" lon="2.08373">
        <ele>1608</ele>
        <time>2013-08-14T09:42:24Z</time>
      </trkpt>
      <trkpt lat="42.47606" lon="2.08367">
        <ele>1608.1</ele>
        <time>2013-08-14T09:42:27Z</time>
      </trkpt>
      <trkpt lat="42.47607" lon="2.08362">
        <ele>1608.4</ele>
        <time>2013-08-14T09:42:29Z</time>
      </trkpt>
      <trkpt lat="42.47607" lon="2.08358">
        <ele>1608.7</ele>
        <time>2013-08-14T09:42:31Z</time>
      </trkpt>
      <trkpt lat="42.47605" lon="2.08353">
        <ele>1609</ele>
        <time>2013-08-14T09:42:33Z</time>
      </trkpt>
      <trkpt lat="42.47603" lon="2.0835">
        <ele>1609.1</ele>
        <time>2013-08-14T09:42:35Z</time>
      </trkpt>
      <trkpt lat="42.47602" lon="2.08346">
        <ele>1609.5</ele>
        <time>2013-08-14T09:42:37Z</time>
      </trkpt>
      <trkpt lat="42.47599" lon="2.08341">
        <ele>1609.2</ele>
        <time>2013-08-14T09:42:40Z</time>
      </trkpt>
      <trkpt lat="42.47597" lon="2.08337">
        <ele>1609</ele>
        <time>2013-08-14T09:42:43Z</time>
      </trkpt>
      <trkpt lat="42.47594" lon="2.08335">
        <ele>1608.9</ele>
        <time>2013-08-14T09:42:45Z</time>
      </trkpt>
      <trkpt lat="42.47591" lon="2.08331">
        <ele>1609</ele>
        <time>2013-08-14T09:42:48Z</time>
      </trkpt>
      <trkpt lat="42.47589" lon="2.08328">
        <ele>1609.2</ele>
        <time>2013-08-14T09:42:51Z</time>
      </trkpt>
      <trkpt lat="42.47586" lon="2.08325">
        <ele>1609</ele>
        <time>2013-08-14T09:42:54Z</time>
      </trkpt>
      <trkpt lat="42.47582" lon="2.08321">
        <ele>1608.6</ele>
        <time>2013-08-14T09:42:58Z</time>
      </trkpt>
      <trkpt lat="42.47579" lon="2.08317">
        <ele>1608.3</ele>
        <time>2013-08-14T09:43:01Z</time>
      </trkpt>
      <trkpt lat="42.47578" lon="2.08312">
        <ele>1607.8</ele>
        <time>2013-08-14T09:43:04Z</time>
      </trkpt>
      <trkpt lat="42.47578" lon="2.08308">
        <ele>1607.7</ele>
        <time>2013-08-14T09:43:06Z</time>
      </trkpt>
      <trkpt lat="42.47577" lon="2.08303">
        <ele>1607.6</ele>
        <time>2013-08-14T09:43:08Z</time>
      </trkpt>
      <trkpt lat="42.47575" lon="2.08298">
        <ele>1607.6</ele>
        <time>2013-08-14T09:43:11Z</time>
      </trkpt>
      <trkpt lat="42.47575" lon="2.08297">
        <ele>1607.7</ele>
        <time>2013-08-14T09:43:12Z</time>
      </trkpt>
      <trkpt lat="42.47573" lon="2.08288">
        <ele>1607.2</ele>
        <time>2013-08-14T09:43:16Z</time>
      </trkpt>
      <trkpt lat="42.47571" lon="2.08283">
        <ele>1607.1</ele>
        <time>2013-08-14T09:43:18Z</time>
      </trkpt>
      <trkpt lat="42.4757" lon="2.08277">
        <ele>1606.7</ele>
        <time>2013-08-14T09:43:21Z</time>
      </trkpt>
      <trkpt lat="42.47568" lon="2.08272">
        <ele>1606</ele>
        <time>2013-08-14T09:43:24Z</time>
      </trkpt>
      <trkpt lat="42.47566" lon="2.08267">
        <ele>1605.2</ele>
        <time>2013-08-14T09:43:29Z</time>
      </trkpt>
      <trkpt lat="42.47564" lon="2.08265">
        <ele>1605.4</ele>
        <time>2013-08-14T09:43:31Z</time>
      </trkpt>
      <trkpt lat="42.47561" lon="2.08261">
        <ele>1605.6</ele>
        <time>2013-08-14T09:43:33Z</time>
      </trkpt>
      <trkpt lat="42.47559" lon="2.08256">
        <ele>1605.7</ele>
        <time>2013-08-14T09:43:36Z</time>
      </trkpt>
      <trkpt lat="42.47556" lon="2.08252">
        <ele>1605.5</ele>
        <time>2013-08-14T09:43:39Z</time>
      </trkpt>
      <trkpt lat="42.47554" lon="2.0825">
        <ele>1605</ele>
        <time>2013-08-14T09:43:41Z</time>
      </trkpt>
      <trkpt lat="42.47551" lon="2.08245">
        <ele>1605.1</ele>
        <time>2013-08-14T09:43:44Z</time>
      </trkpt>
      <trkpt lat="42.47547" lon="2.08245">
        <ele>1604.6</ele>
        <time>2013-08-14T09:43:47Z</time>
      </trkpt>
      <trkpt lat="42.47543" lon="2.08245">
        <ele>1604.3</ele>
        <time>2013-08-14T09:43:50Z</time>
      </trkpt>
      <trkpt lat="42.4754" lon="2.08245">
        <ele>1604</ele>
        <time>2013-08-14T09:43:52Z</time>
      </trkpt>
      <trkpt lat="42.47536" lon="2.08245">
        <ele>1603.8</ele>
        <time>2013-08-14T09:43:54Z</time>
      </trkpt>
      <trkpt lat="42.47533" lon="2.08245">
        <ele>1603.6</ele>
        <time>2013-08-14T09:43:56Z</time>
      </trkpt>
      <trkpt lat="42.4753" lon="2.08246">
        <ele>1603.5</ele>
        <time>2013-08-14T09:43:58Z</time>
      </trkpt>
      <trkpt lat="42.47526" lon="2.08247">
        <ele>1603.1</ele>
        <time>2013-08-14T09:44:00Z</time>
      </trkpt>
      <trkpt lat="42.47522" lon="2.08247">
        <ele>1602.9</ele>
        <time>2013-08-14T09:44:03Z</time>
      </trkpt>
      <trkpt lat="42.47518" lon="2.08248">
        <ele>1602.5</ele>
        <time>2013-08-14T09:44:05Z</time>
      </trkpt>
      <trkpt lat="42.47514" lon="2.08249">
        <ele>1602.1</ele>
        <time>2013-08-14T09:44:07Z</time>
      </trkpt>
      <trkpt lat="42.47511" lon="2.0825">
        <ele>1602.5</ele>
        <time>2013-08-14T09:44:09Z</time>
      </trkpt>
      <trkpt lat="42.47508" lon="2.08252">
        <ele>1602.5</ele>
        <time>2013-08-14T09:44:11Z</time>
      </trkpt>
      <trkpt lat="42.47504" lon="2.08254">
        <ele>1602.2</ele>
        <time>2013-08-14T09:44:13Z</time>
      </trkpt>
      <trkpt lat="42.47502" lon="2.08255">
        <ele>1602.2</ele>
        <time>2013-08-14T09:44:14Z</time>
      </trkpt>
      <trkpt lat="42.47498" lon="2.08256">
        <ele>1602.3</ele>
        <time>2013-08-14T09:44:17Z</time>
      </trkpt>
      <trkpt lat="42.47495" lon="2.08257">
        <ele>1601.9</ele>
        <time>2013-08-14T09:44:19Z</time>
      </trkpt>
      <trkpt lat="42.47492" lon="2.08258">
        <ele>1601.8</ele>
        <time>2013-08-14T09:44:21Z</time>
      </trkpt>
      <trkpt lat="42.47489" lon="2.08259">
        <ele>1601.8</ele>
        <time>2013-08-14T09:44:23Z</time>
      </trkpt>
      <trkpt lat="42.47484" lon="2.08261">
        <ele>1601.6</ele>
        <time>2013-08-14T09:44:26Z</time>
      </trkpt>
      <trkpt lat="42.4748" lon="2.08262">
        <ele>1601</ele>
        <time>2013-08-14T09:44:29Z</time>
      </trkpt>
      <trkpt lat="42.47476" lon="2.08265">
        <ele>1600.8</ele>
        <time>2013-08-14T09:44:32Z</time>
      </trkpt>
      <trkpt lat="42.47472" lon="2.08266">
        <ele>1600.6</ele>
        <time>2013-08-14T09:44:35Z</time>
      </trkpt>
      <trkpt lat="42.47468" lon="2.08266">
        <ele>1600.2</ele>
        <time>2013-08-14T09:44:38Z</time>
      </trkpt>
      <trkpt lat="42.47464" lon="2.08267">
        <ele>1599.7</ele>
        <time>2013-08-14T09:44:41Z</time>
      </trkpt>
      <trkpt lat="42.47461" lon="2.08266">
        <ele>1599.6</ele>
        <time>2013-08-14T09:44:43Z</time>
      </trkpt>
      <trkpt lat="42.47457" lon="2.08266">
        <ele>1599.5</ele>
        <time>2013-08-14T09:44:46Z</time>
      </trkpt>
      <trkpt lat="42.47453" lon="2.08265">
        <ele>1599.1</ele>
        <time>2013-08-14T09:44:50Z</time>
      </trkpt>
      <trkpt lat="42.47449" lon="2.08263">
        <ele>1599.1</ele>
        <time>2013-08-14T09:44:55Z</time>
      </trkpt>
      <trkpt lat="42.47446" lon="2.08261">
        <ele>1598.7</ele>
        <time>2013-08-14T09:44:59Z</time>
      </trkpt>
      <trkpt lat="42.47443" lon="2.08256">
        <ele>1598.7</ele>
        <time>2013-08-14T09:45:03Z</time>
      </trkpt>
      <trkpt lat="42.4744" lon="2.08252">
        <ele>1598.4</ele>
        <time>2013-08-14T09:45:06Z</time>
      </trkpt>
      <trkpt lat="42.47438" lon="2.08249">
        <ele>1598.1</ele>
        <time>2013-08-14T09:45:08Z</time>
      </trkpt>
      <trkpt lat="42.47435" lon="2.08244">
        <ele>1597.7</ele>
        <time>2013-08-14T09:45:11Z</time>
      </trkpt>
      <trkpt lat="42.47434" lon="2.08241">
        <ele>1598.3</ele>
        <time>2013-08-14T09:45:13Z</time>
      </trkpt>
      <trkpt lat="42.47432" lon="2.08235">
        <ele>1598.5</ele>
        <time>2013-08-14T09:45:16Z</time>
      </trkpt>
      <trkpt lat="42.47431" lon="2.08234">
        <ele>1598.4</ele>
        <time>2013-08-14T09:45:17Z</time>
      </trkpt>
      <trkpt lat="42.47431" lon="2.08225">
        <ele>1598</ele>
        <time>2013-08-14T09:45:22Z</time>
      </trkpt>
      <trkpt lat="42.4743" lon="2.08221">
        <ele>1598</ele>
        <time>2013-08-14T09:45:24Z</time>
      </trkpt>
      <trkpt lat="42.47429" lon="2.08216">
        <ele>1598.8</ele>
        <time>2013-08-14T09:45:27Z</time>
      </trkpt>
      <trkpt lat="42.47427" lon="2.08212">
        <ele>1598.6</ele>
        <time>2013-08-14T09:45:29Z</time>
      </trkpt>
      <trkpt lat="42.47426" lon="2.08208">
        <ele>1598.2</ele>
        <time>2013-08-14T09:45:31Z</time>
      </trkpt>
      <trkpt lat="42.47426" lon="2.08202">
        <ele>1597.4</ele>
        <time>2013-08-14T09:45:34Z</time>
      </trkpt>
      <trkpt lat="42.47426" lon="2.08196">
        <ele>1597.1</ele>
        <time>2013-08-14T09:45:37Z</time>
      </trkpt>
      <trkpt lat="42.47426" lon="2.08192">
        <ele>1597.4</ele>
        <time>2013-08-14T09:45:39Z</time>
      </trkpt>
      <trkpt lat="42.47425" lon="2.08187">
        <ele>1597.7</ele>
        <time>2013-08-14T09:45:42Z</time>
      </trkpt>
      <trkpt lat="42.47424" lon="2.08181">
        <ele>1597.5</ele>
        <time>2013-08-14T09:45:45Z</time>
      </trkpt>
      <trkpt lat="42.47422" lon="2.08176">
        <ele>1597.3</ele>
        <time>2013-08-14T09:45:48Z</time>
      </trkpt>
      <trkpt lat="42.47418" lon="2.08173">
        <ele>1597.4</ele>
        <time>2013-08-14T09:45:51Z</time>
      </trkpt>
      <trkpt lat="42.47414" lon="2.08171">
        <ele>1597.2</ele>
        <time>2013-08-14T09:45:54Z</time>
      </trkpt>
      <trkpt lat="42.47411" lon="2.08171">
        <ele>1597.1</ele>
        <time>2013-08-14T09:45:56Z</time>
      </trkpt>
      <trkpt lat="42.47408" lon="2.08172">
        <ele>1597.1</ele>
        <time>2013-08-14T09:45:58Z</time>
      </trkpt>
      <trkpt lat="42.47405" lon="2.08172">
        <ele>1597.2</ele>
        <time>2013-08-14T09:46:00Z</time>
      </trkpt>
      <trkpt lat="42.47401" lon="2.08173">
        <ele>1597.3</ele>
        <time>2013-08-14T09:46:02Z</time>
      </trkpt>
      <trkpt lat="42.47397" lon="2.08173">
        <ele>1595.8</ele>
        <time>2013-08-14T09:46:04Z</time>
      </trkpt>
      <trkpt lat="42.47393" lon="2.08174">
        <ele>1595.2</ele>
        <time>2013-08-14T09:46:07Z</time>
      </trkpt>
      <trkpt lat="42.47389" lon="2.08175">
        <ele>1594.6</ele>
        <time>2013-08-14T09:46:10Z</time>
      </trkpt>
      <trkpt lat="42.47385" lon="2.08174">
        <ele>1594.2</ele>
        <time>2013-08-14T09:46:14Z</time>
      </trkpt>
      <trkpt lat="42.47381" lon="2.08173">
        <ele>1593.8</ele>
        <time>2013-08-14T09:46:17Z</time>
      </trkpt>
      <trkpt lat="42.4738" lon="2.08173">
        <ele>1593.7</ele>
        <time>2013-08-14T09:46:18Z</time>
      </trkpt>
      <trkpt lat="42.47373" lon="2.08174">
        <ele>1593.1</ele>
        <time>2013-08-14T09:46:23Z</time>
      </trkpt>
      <trkpt lat="42.47369" lon="2.08173">
        <ele>1592.8</ele>
        <time>2013-08-14T09:46:26Z</time>
      </trkpt>
      <trkpt lat="42.47366" lon="2.08174">
        <ele>1592.7</ele>
        <time>2013-08-14T09:46:29Z</time>
      </trkpt>
      <trkpt lat="42.47364" lon="2.08175">
        <ele>1592.7</ele>
        <time>2013-08-14T09:46:30Z</time>
      </trkpt>
      <trkpt lat="42.47361" lon="2.08177">
        <ele>1592.7</ele>
        <time>2013-08-14T09:46:31Z</time>
      </trkpt>
      <trkpt lat="42.47357" lon="2.0818">
        <ele>1592.1</ele>
        <time>2013-08-14T09:46:34Z</time>
      </trkpt>
      <trkpt lat="42.47354" lon="2.08184">
        <ele>1591.6</ele>
        <time>2013-08-14T09:46:37Z</time>
      </trkpt>
      <trkpt lat="42.4735" lon="2.08185">
        <ele>1591.9</ele>
        <time>2013-08-14T09:46:39Z</time>
      </trkpt>
      <trkpt lat="42.47348" lon="2.08187">
        <ele>1592</ele>
        <time>2013-08-14T09:46:40Z</time>
      </trkpt>
      <trkpt lat="42.47345" lon="2.08189">
        <ele>1591.6</ele>
        <time>2013-08-14T09:46:41Z</time>
      </trkpt>
      <trkpt lat="42.47343" lon="2.08191">
        <ele>1591.3</ele>
        <time>2013-08-14T09:46:42Z</time>
      </trkpt>
      <trkpt lat="42.4734" lon="2.08195">
        <ele>1590.9</ele>
        <time>2013-08-14T09:46:44Z</time>
      </trkpt>
      <trkpt lat="42.47337" lon="2.082">
        <ele>1590.7</ele>
        <time>2013-08-14T09:46:46Z</time>
      </trkpt>
      <trkpt lat="42.47335" lon="2.08202">
        <ele>1590.7</ele>
        <time>2013-08-14T09:46:47Z</time>
      </trkpt>
      <trkpt lat="42.47333" lon="2.08203">
        <ele>1590.7</ele>
        <time>2013-08-14T09:46:48Z</time>
      </trkpt>
      <trkpt lat="42.47331" lon="2.08206">
        <ele>1590.7</ele>
        <time>2013-08-14T09:46:49Z</time>
      </trkpt>
      <trkpt lat="42.47328" lon="2.08207">
        <ele>1590.7</ele>
        <time>2013-08-14T09:46:50Z</time>
      </trkpt>
      <trkpt lat="42.47325" lon="2.08209">
        <ele>1590.8</ele>
        <time>2013-08-14T09:46:51Z</time>
      </trkpt>
      <trkpt lat="42.47322" lon="2.08211">
        <ele>1590.9</ele>
        <time>2013-08-14T09:46:52Z</time>
      </trkpt>
      <trkpt lat="42.47319" lon="2.08212">
        <ele>1591</ele>
        <time>2013-08-14T09:46:53Z</time>
      </trkpt>
      <trkpt lat="42.47316" lon="2.08212">
        <ele>1590.8</ele>
        <time>2013-08-14T09:46:54Z</time>
      </trkpt>
      <trkpt lat="42.47314" lon="2.08213">
        <ele>1590.6</ele>
        <time>2013-08-14T09:46:55Z</time>
      </trkpt>
      <trkpt lat="42.47312" lon="2.08214">
        <ele>1590.5</ele>
        <time>2013-08-14T09:46:56Z</time>
      </trkpt>
      <trkpt lat="42.47309" lon="2.08215">
        <ele>1590.2</ele>
        <time>2013-08-14T09:46:57Z</time>
      </trkpt>
      <trkpt lat="42.47306" lon="2.08216">
        <ele>1590.1</ele>
        <time>2013-08-14T09:46:58Z</time>
      </trkpt>
      <trkpt lat="42.47303" lon="2.08216">
        <ele>1589.9</ele>
        <time>2013-08-14T09:46:59Z</time>
      </trkpt>
      <trkpt lat="42.473" lon="2.08216">
        <ele>1589.8</ele>
        <time>2013-08-14T09:47:00Z</time>
      </trkpt>
      <trkpt lat="42.47295" lon="2.08214">
        <ele>1589.3</ele>
        <time>2013-08-14T09:47:02Z</time>
      </trkpt>
      <trkpt lat="42.47291" lon="2.08212">
        <ele>1589.1</ele>
        <time>2013-08-14T09:47:04Z</time>
      </trkpt>
      <trkpt lat="42.47288" lon="2.08211">
        <ele>1589</ele>
        <time>2013-08-14T09:47:06Z</time>
      </trkpt>
      <trkpt lat="42.47284" lon="2.08207">
        <ele>1588</ele>
        <time>2013-08-14T09:47:09Z</time>
      </trkpt>
      <trkpt lat="42.47282" lon="2.08203">
        <ele>1587.3</ele>
        <time>2013-08-14T09:47:11Z</time>
      </trkpt>
      <trkpt lat="42.47281" lon="2.08199">
        <ele>1586.9</ele>
        <time>2013-08-14T09:47:13Z</time>
      </trkpt>
      <trkpt lat="42.4728" lon="2.08194">
        <ele>1586.7</ele>
        <time>2013-08-14T09:47:15Z</time>
      </trkpt>
      <trkpt lat="42.47281" lon="2.08191">
        <ele>1586.5</ele>
        <time>2013-08-14T09:47:17Z</time>
      </trkpt>
      <trkpt lat="42.47283" lon="2.08187">
        <ele>1586.4</ele>
        <time>2013-08-14T09:47:19Z</time>
      </trkpt>
      <trkpt lat="42.47284" lon="2.08186">
        <ele>1586.2</ele>
        <time>2013-08-14T09:47:20Z</time>
      </trkpt>
      <trkpt lat="42.47288" lon="2.0818">
        <ele>1585.4</ele>
        <time>2013-08-14T09:47:25Z</time>
      </trkpt>
      <trkpt lat="42.4729" lon="2.08175">
        <ele>1584.3</ele>
        <time>2013-08-14T09:47:28Z</time>
      </trkpt>
      <trkpt lat="42.47292" lon="2.0817">
        <ele>1583.7</ele>
        <time>2013-08-14T09:47:31Z</time>
      </trkpt>
      <trkpt lat="42.47293" lon="2.08166">
        <ele>1583.5</ele>
        <time>2013-08-14T09:47:33Z</time>
      </trkpt>
      <trkpt lat="42.47296" lon="2.08161">
        <ele>1583.4</ele>
        <time>2013-08-14T09:47:35Z</time>
      </trkpt>
      <trkpt lat="42.47298" lon="2.08156">
        <ele>1583.5</ele>
        <time>2013-08-14T09:47:37Z</time>
      </trkpt>
      <trkpt lat="42.473" lon="2.08152">
        <ele>1583</ele>
        <time>2013-08-14T09:47:39Z</time>
      </trkpt>
      <trkpt lat="42.47303" lon="2.08148">
        <ele>1582.4</ele>
        <time>2013-08-14T09:47:41Z</time>
      </trkpt>
      <trkpt lat="42.47307" lon="2.08145">
        <ele>1582</ele>
        <time>2013-08-14T09:47:43Z</time>
      </trkpt>
      <trkpt lat="42.47308" lon="2.08142">
        <ele>1581.9</ele>
        <time>2013-08-14T09:47:44Z</time>
      </trkpt>
      <trkpt lat="42.4731" lon="2.08141">
        <ele>1582</ele>
        <time>2013-08-14T09:47:45Z</time>
      </trkpt>
      <trkpt lat="42.47312" lon="2.08139">
        <ele>1582</ele>
        <time>2013-08-14T09:47:46Z</time>
      </trkpt>
      <trkpt lat="42.47315" lon="2.08137">
        <ele>1582.1</ele>
        <time>2013-08-14T09:47:47Z</time>
      </trkpt>
      <trkpt lat="42.47317" lon="2.08135">
        <ele>1581.8</ele>
        <time>2013-08-14T09:47:48Z</time>
      </trkpt>
      <trkpt lat="42.4732" lon="2.08133">
        <ele>1581.6</ele>
        <time>2013-08-14T09:47:49Z</time>
      </trkpt>
      <trkpt lat="42.47323" lon="2.0813">
        <ele>1581.4</ele>
        <time>2013-08-14T09:47:51Z</time>
      </trkpt>
      <trkpt lat="42.47326" lon="2.08125">
        <ele>1580.4</ele>
        <time>2013-08-14T09:47:54Z</time>
      </trkpt>
      <trkpt lat="42.47327" lon="2.0812">
        <ele>1579.8</ele>
        <time>2013-08-14T09:47:57Z</time>
      </trkpt>
      <trkpt lat="42.47329" lon="2.08116">
        <ele>1579.7</ele>
        <time>2013-08-14T09:48:00Z</time>
      </trkpt>
      <trkpt lat="42.47332" lon="2.08112">
        <ele>1578.6</ele>
        <time>2013-08-14T09:48:03Z</time>
      </trkpt>
      <trkpt lat="42.47335" lon="2.08107">
        <ele>1577.9</ele>
        <time>2013-08-14T09:48:06Z</time>
      </trkpt>
      <trkpt lat="42.47337" lon="2.08104">
        <ele>1578.1</ele>
        <time>2013-08-14T09:48:11Z</time>
      </trkpt>
      <trkpt lat="42.4734" lon="2.08099">
        <ele>1577.4</ele>
        <time>2013-08-14T09:48:16Z</time>
      </trkpt>
      <trkpt lat="42.47342" lon="2.08095">
        <ele>1577.1</ele>
        <time>2013-08-14T09:48:19Z</time>
      </trkpt>
      <trkpt lat="42.47344" lon="2.08091">
        <ele>1576.4</ele>
        <time>2013-08-14T09:48:23Z</time>
      </trkpt>
      <trkpt lat="42.47345" lon="2.0809">
        <ele>1576.2</ele>
        <time>2013-08-14T09:48:24Z</time>
      </trkpt>
      <trkpt lat="42.4735" lon="2.08082">
        <ele>1575.7</ele>
        <time>2013-08-14T09:48:32Z</time>
      </trkpt>
      <trkpt lat="42.47353" lon="2.0808">
        <ele>1575.7</ele>
        <time>2013-08-14T09:48:35Z</time>
      </trkpt>
      <trkpt lat="42.47355" lon="2.08076">
        <ele>1576.2</ele>
        <time>2013-08-14T09:48:38Z</time>
      </trkpt>
      <trkpt lat="42.47358" lon="2.08073">
        <ele>1575.7</ele>
        <time>2013-08-14T09:48:42Z</time>
      </trkpt>
      <trkpt lat="42.4736" lon="2.08069">
        <ele>1575</ele>
        <time>2013-08-14T09:48:45Z</time>
      </trkpt>
      <trkpt lat="42.47363" lon="2.08066">
        <ele>1575.4</ele>
        <time>2013-08-14T09:48:48Z</time>
      </trkpt>
      <trkpt lat="42.47366" lon="2.08062">
        <ele>1575.1</ele>
        <time>2013-08-14T09:48:51Z</time>
      </trkpt>
      <trkpt lat="42.4737" lon="2.08059">
        <ele>1574.7</ele>
        <time>2013-08-14T09:48:54Z</time>
      </trkpt>
      <trkpt lat="42.47373" lon="2.08056">
        <ele>1573.9</ele>
        <time>2013-08-14T09:48:57Z</time>
      </trkpt>
      <trkpt lat="42.47376" lon="2.08054">
        <ele>1573.9</ele>
        <time>2013-08-14T09:48:59Z</time>
      </trkpt>
      <trkpt lat="42.4738" lon="2.08052">
        <ele>1574.1</ele>
        <time>2013-08-14T09:49:01Z</time>
      </trkpt>
      <trkpt lat="42.47383" lon="2.08049">
        <ele>1573.4</ele>
        <time>2013-08-14T09:49:04Z</time>
      </trkpt>
      <trkpt lat="42.47386" lon="2.08045">
        <ele>1573.2</ele>
        <time>2013-08-14T09:49:07Z</time>
      </trkpt>
      <trkpt lat="42.47389" lon="2.08042">
        <ele>1573.1</ele>
        <time>2013-08-14T09:49:09Z</time>
      </trkpt>
      <trkpt lat="42.47392" lon="2.08037">
        <ele>1572.3</ele>
        <time>2013-08-14T09:49:12Z</time>
      </trkpt>
      <trkpt lat="42.47394" lon="2.08034">
        <ele>1571.8</ele>
        <time>2013-08-14T09:49:14Z</time>
      </trkpt>
      <trkpt lat="42.47394" lon="2.08029">
        <ele>1571.9</ele>
        <time>2013-08-14T09:49:16Z</time>
      </trkpt>
      <trkpt lat="42.47395" lon="2.08025">
        <ele>1571.7</ele>
        <time>2013-08-14T09:49:18Z</time>
      </trkpt>
      <trkpt lat="42.47396" lon="2.08021">
        <ele>1571.4</ele>
        <time>2013-08-14T09:49:20Z</time>
      </trkpt>
      <trkpt lat="42.47397" lon="2.08016">
        <ele>1571.3</ele>
        <time>2013-08-14T09:49:22Z</time>
      </trkpt>
      <trkpt lat="42.47398" lon="2.08012">
        <ele>1570.9</ele>
        <time>2013-08-14T09:49:24Z</time>
      </trkpt>
      <trkpt lat="42.47398" lon="2.0801">
        <ele>1570.7</ele>
        <time>2013-08-14T09:49:25Z</time>
      </trkpt>
      <trkpt lat="42.47399" lon="2.08004">
        <ele>1570.6</ele>
        <time>2013-08-14T09:49:28Z</time>
      </trkpt>
      <trkpt lat="42.47401" lon="2.07999">
        <ele>1570.6</ele>
        <time>2013-08-14T09:49:30Z</time>
      </trkpt>
      <trkpt lat="42.47402" lon="2.07995">
        <ele>1570.5</ele>
        <time>2013-08-14T09:49:32Z</time>
      </trkpt>
      <trkpt lat="42.47402" lon="2.07991">
        <ele>1570.2</ele>
        <time>2013-08-14T09:49:34Z</time>
      </trkpt>
      <trkpt lat="42.47402" lon="2.07985">
        <ele>1569.7</ele>
        <time>2013-08-14T09:49:37Z</time>
      </trkpt>
      <trkpt lat="42.47401" lon="2.07981">
        <ele>1569.4</ele>
        <time>2013-08-14T09:49:40Z</time>
      </trkpt>
      <trkpt lat="42.474" lon="2.07976">
        <ele>1569.3</ele>
        <time>2013-08-14T09:49:43Z</time>
      </trkpt>
      <trkpt lat="42.47399" lon="2.07971">
        <ele>1569.6</ele>
        <time>2013-08-14T09:49:45Z</time>
      </trkpt>
      <trkpt lat="42.47397" lon="2.07968">
        <ele>1569.8</ele>
        <time>2013-08-14T09:49:47Z</time>
      </trkpt>
      <trkpt lat="42.47395" lon="2.07963">
        <ele>1570</ele>
        <time>2013-08-14T09:49:49Z</time>
      </trkpt>
      <trkpt lat="42.47394" lon="2.0796">
        <ele>1570.1</ele>
        <time>2013-08-14T09:49:51Z</time>
      </trkpt>
      <trkpt lat="42.4739" lon="2.07957">
        <ele>1570.6</ele>
        <time>2013-08-14T09:49:54Z</time>
      </trkpt>
      <trkpt lat="42.47386" lon="2.07959">
        <ele>1570.1</ele>
        <time>2013-08-14T09:50:26Z</time>
      </trkpt>
      <trkpt lat="42.47386" lon="2.07959">
        <ele>1569.8</ele>
        <time>2013-08-14T09:50:27Z</time>
      </trkpt>
      <trkpt lat="42.47386" lon="2.07948">
        <ele>1570.7</ele>
        <time>2013-08-14T09:50:37Z</time>
      </trkpt>
      <trkpt lat="42.47386" lon="2.07943">
        <ele>1570.4</ele>
        <time>2013-08-14T09:50:39Z</time>
      </trkpt>
      <trkpt lat="42.47384" lon="2.07938">
        <ele>1570.4</ele>
        <time>2013-08-14T09:50:41Z</time>
      </trkpt>
      <trkpt lat="42.47383" lon="2.07936">
        <ele>1570.6</ele>
        <time>2013-08-14T09:50:42Z</time>
      </trkpt>
      <trkpt lat="42.47381" lon="2.07933">
        <ele>1570.7</ele>
        <time>2013-08-14T09:50:43Z</time>
      </trkpt>
      <trkpt lat="42.47379" lon="2.07929">
        <ele>1571.3</ele>
        <time>2013-08-14T09:50:45Z</time>
      </trkpt>
      <trkpt lat="42.47378" lon="2.07923">
        <ele>1571.5</ele>
        <time>2013-08-14T09:50:48Z</time>
      </trkpt>
      <trkpt lat="42.47376" lon="2.07919">
        <ele>1572.4</ele>
        <time>2013-08-14T09:50:51Z</time>
      </trkpt>
      <trkpt lat="42.47375" lon="2.07914">
        <ele>1573</ele>
        <time>2013-08-14T09:50:54Z</time>
      </trkpt>
      <trkpt lat="42.47374" lon="2.07909">
        <ele>1573.2</ele>
        <time>2013-08-14T09:50:57Z</time>
      </trkpt>
      <trkpt lat="42.4737" lon="2.07907">
        <ele>1573</ele>
        <time>2013-08-14T09:51:02Z</time>
      </trkpt>
      <trkpt lat="42.47368" lon="2.07908">
        <ele>1573.5</ele>
        <time>2013-08-14T09:51:07Z</time>
      </trkpt>
      <trkpt lat="42.47368" lon="2.07908">
        <ele>1573.5</ele>
        <time>2013-08-14T09:51:07Z</time>
      </trkpt>
    </trkseg>
  </trk>
</gpx>